Details of LTEs during August - 2011

1 2 3 4 5 6 7 8 9
Sl No Unit Tender No. Tender Date Last date & time of bid submission TE Opening date & time Tender Description EMD (in Rs.) Bid Type
1 AFK 20110581 31/08/2011 2011-09-23 14:00 2011-09-23 14:30 CARTG.CASE TO DRG.NO.KF/SK/1746   0.00 Single
2 AFK 20110581OP 31/08/2011 2011-10-07 14:00 2011-10-07 14:30 CARTG.CASE TO DRG.NO.KF/SK/1746   0.00 Single
3 AFK 20110582 31/08/2011 2011-09-23 14:00 2011-09-23 14:30 NOTCHED COIL TO ARDE 1933 PT ITV169   0.00 Single
4 AFK 20110583 31/08/2011 2011-09-09 14:00 2011-09-09 14:30 COLD ROLLED STEEL STRIP 0.5MM THICK   0.00 Single
5 AFK 20110583OP 31/08/2011 2011-09-09 14:00 2011-09-09 14:30 COLD ROLLED STEEL STRIP 0.5MM THICK   0.00 Single
6 AFK 20110584 31/08/2011 2011-09-27 14:00 2011-09-27 14:30 AUTOMISING NOZZLE OF CAPACITY 160KG, PRAKASH FUEL INJECTION GEAR PUMP, SHARP MAKE CASTIRON ACC FEED CHECK, THERMAX MAKE BOILERS CHEMICAL, BLOW DOWN VALVE SIZE 50MM ETC.   0.00 Single
7 GCF 111210NC56 31/08/2011 2011-09-22 10:30 2011-09-22 11:00 OIL SERVO SYSTEM 68/317   0.00 Single
8 GCF 111211NC56 31/08/2011 2011-09-22 10:30 2011-09-22 11:00 MT GASOLINE (MOTOR SPIRIT)   0.00 Single
9 OFK 11CST-0618 31/08/2011 2011-08-31 14:30 2011-08-31 13:00 COMP TYPE LOAD CELL CAP.23TON,A/D CONVER M/PROCESSOR DIGITIZER etc.   0.00 Single
10 OFK 11CST-0619 31/08/2011 2011-09-09 14:30 2011-09-09 13:00 COPPER TUBE 35X2.5MM W/T JSS-4710-1   0.00 Single
11 OFBA 110379 31/08/2011 2011-10-04 14:30 2011-10-04 14:30 OIL SEAL HIGH ROTARY VACCUM PU   0.00 Single
12 OFBA 110380 31/08/2011 2011-09-29 14:30 2011-09-29 14:30 RD TRANS.FR.OFCH TO OFBA REP/B   0.00 Single
13 OFBA 110381 31/08/2011 2011-09-29 14:30 2011-09-29 14:30 OIL SERVOFRIZ F-57 EQUIVALENT   0.00 Single
14 OFBA 110382 31/08/2011 2011-10-04 14:30 2011-10-04 14:30 CLIP CROCODILE PVC INSULATED   0.00 Single
15 OFT A221H48176 31/08/2011 2011-09-27 14:30 2011-09-27 15:00 Micro fine solid carbide Drill   0.00 Single
16 OFT A332H48177 31/08/2011 2011-09-27 14:30 2011-09-27 15:00 FORGING HAMMERS MADE OF TUNGS   0.00 Single
17 OFT A336H48178 31/08/2011 2011-09-27 14:30 2011-09-27 15:00 HAMMER 30 MM 64T 2023 137 A1   0.00 Single
18 OFBOL 11120146 31/08/2011 2011-09-23 14:30 2011-09-23 14:30 INTERNAL GEAR PUMP,DELIVERY CAPA-   0.00 Single
19 OFBOL 11120147 31/08/2011 2011-09-23 14:30 2011-09-23 14:30 CHESTERTON-615 HIGH TEMPERATURE   0.00 Single
20 AFK 20110580 30/08/2011 2011-09-23 14:00 2011-09-23 14:30 LEAD TIN FOIL 575X343X0.038MM THICK   0.00 Single
21 AFK 20110580OP 30/08/2011 2011-09-23 14:00 2011-09-23 14:30 LEAD TIN FOIL 575X343X0.038MM THICK   0.00 Single
22 OEFC 20110447 30/08/2011 2011-11-04 13:30 2011-11-04 14:00 9 PIN PRINT HEAD FOR WEP EX-330+DX PRINTER MAKE:-WIPRO/EPSON   0.00 Single
23 OEFC 20110689 30/08/2011 2011-11-14 13:30 2011-11-14 14:00 BUCKLE IRON ROLLER SINGLE 38MM BOW LEG. TD.   0.00 Single
24 MSF 11TE220312 30/08/2011 2011-09-23 14:30 2011-09-23 14:30 V BELT C-268 etc.   Single
25 GCF 110217SA56 30/08/2011 2011-08-31 10:30 2011-08-31 11:00 RECEIVER TO DRG.NO.SG-005.   0.00 Single
26 GCF 110218P556 30/08/2011 2011-08-31 10:30 2011-08-31 11:00 M/CING OF HOUSING ASSY,TRIGGER MECH   0.00 Single
27 GCF 110219P556 30/08/2011 2011-08-31 10:30 2011-08-31 11:00 M/CING.OF STRIKER TO DRG.NO.101000-   0.00 Single
28 GCF 111209NA56 30/08/2011 2011-08-30 10:30 2011-08-30 11:00 ONE COROMILL WELDON SHANK CUTTER   0.00 Single
29 RFI DTB3070410 30/08/2011 2011-10-14 14:00 2011-10-14 14:30 Purchase of WOODEN MALLET DRG NO.RFISK8520,   0.00 Single
30 RFI DTB3270409 30/08/2011 2011-10-14 14:00 2011-10-14 14:30 Purchase of ALUMINA GRIT SIZE:100,   0.00 Single
31 RFI DTB3270413 30/08/2011 2011-10-14 14:00 2011-10-14 14:30 Purchase of SOLID CARBURISING COMPOUND,   0.00 Single
32 RFI DTB3690412 30/08/2011 2011-09-26 14:00 2011-09-26 14:30 Purchase of BEARING FITTING TOOL,TMFT 36,   0.00 Single
33 RFI DTB4070411 30/08/2011 2011-10-14 14:00 2011-10-14 14:30 Purchase of PARTING INSERT TO SPEC. TAG, PARTING HOLDING TGTR 2525-3, TOOL HOLDER SVJNR 2020K 12F, INSERT VNMG 12T304 NF-IC 907,   0.00 Single
34 CFA 11PVTE0348 30/08/2011 2011-09-20 13:00 2011-09-20 14:00 KINETIC AIR VALVE 80 MMKINETIC AIR VALVE 100 MM   0.00 Single
35 CFA 11PVTE0349 30/08/2011 2011-09-20 13:00 2011-09-20 14:00 KINETISER HEATER   0.00 Single
36 CFA 11PVTE0350 30/08/2011 2011-09-20 13:00 2011-09-20 14:00 HEAT EXCHANGER CAT.NO:HE 12   0.00 Single
37 CFA 11PVTE0351 30/08/2011 2011-09-21 13:00 2011-09-21 14:00 SEALING SET 5 PARTS ROD SEALPLUNGER GUIDE RING 120 X 9.7SLIDE RING 120 X 5.6 X 2.5 MM   0.00 Single
38 GSF 1100000642 30/08/2011 2011-08-30 00:00 2011-08-30 00:00 SUPPLY OF HP PRINTER CARTRIDGE/ HEADS FOR GSF AS P,   0.00 Single
39 OPF 110110460 30/08/2011 2011-09-08 14:00 2011-09-08 14:30 (1) SELF SEAL BAG SZ 410X305MM 0.04 MM   0.00 Single
40 OPF 110110461 30/08/2011 2011-09-16 14:00 2011-09-16 14:30 (1) NETTING 3" SQUARE MESH   0.00 Single
41 OPF 110110462 30/08/2011 2011-09-16 14:00 2011-09-16 14:30 (1) DETALE.ALIGT.RING FOR PIT.PARA.JAGR   0.00 Single
42 OPF 110110463 30/08/2011 2011-09-16 14:00 2011-09-16 14:30 (1) SPREADER BAR BUCKLE   0.00 Single
43 OPF 110110464 30/08/2011 2011-09-16 14:00 2011-09-16 14:30 (1) "D" RING   0.00 Single
44 OPF 110110465 30/08/2011 2011-09-16 14:00 2011-09-16 14:30 (1) METLIC SLIDE FASTNR H/DUTY 457MM OG   0.00 Single
45 OPF 110110466 30/08/2011 2011-09-16 14:00 2011-09-16 14:30 (1) LOWER HARNESS LUG   0.00 Single
46 OPF 110110467 30/08/2011 2011-09-16 14:00 2011-09-16 14:30 (1) SEAT PAN LUG   0.00 Single
47 OPF 110110468 30/08/2011 2011-09-16 14:00 2011-09-16 14:30 (1) SHOULDER BUCKKLE (UPPER)   0.00 Single
48 OFKAT 2011000217 30/08/2011 2011-09-20 14:30 2011-09-20 14:30 STEEL ALMIRAH, MIRROR WITH WALL FIXING, WOODEN BEDSIDE TABLE   0.00 Single
49 OFKAT 2011000218 30/08/2011 2011-09-20 14:30 2011-09-20 14:30 BRASS STRIP FOR BR.CUP 7.62 MM   0.00 Single
50 OFK 11CST-0611 30/08/2011 2011-09-23 14:30 2011-09-23 13:00 SODIUM CHLORIDE (COMMON SALT)   0.00 Single
51 OFK 11CST-0612 30/08/2011 2011-09-20 14:30 2011-09-20 13:00 SIEMENS SITOP POWER SUPPLY,INPUT,SIEMENS SITOP POWER SUPPLY AMP-10,SIEMENS SITOP POWER SUPPLY AMP-20.,SIEMENS LITHIUM BATTERY,306 VOLTS. etc.   0.00 Single
52 OFK 11CST-0613 30/08/2011 2011-09-20 14:30 2011-09-20 13:00 FIX CONTACT 'D' TYPE SUITABLE,MOVING CONTACT SUITABLE FOR HALF,PARAMOUNT REALY, 10AMP 250 VOLT,24V etc.   0.00 Single
53 OFK 11CST-0614 30/08/2011 2011-09-20 14:30 2011-09-20 13:00 G.I.TUBE 20 MM MEDIUM CLASS   0.00 Single
54 OFDUN 0517-11 30/08/2011 2011-09-20 00:00 2011-09-20 00:00 POWER SUPPLY MODULE PSM-26,SPINDLE AMPLIFIER MODULE   0.00 Single
55 SAF 3113000617 30/08/2011 2011-09-16 14:30 2011-09-16 15:00 ST FLAT 24X35MM TO SPECN.BS:,   0.00 Single
56 SAF 3113000618 30/08/2011 2011-09-15 14:30 2011-09-15 15:00 PISTON EXTENSION WHITE FINISH,   0.00 Single
57 SAF 3113000619 30/08/2011 2011-09-23 14:30 2011-09-23 15:00 CRT MONITOR 9" A61L-0001-0093,SVM-2, 20/20(SERVO MODULE AMPL,   0.00 Single
58 SAF 3113000620 30/08/2011 2011-09-23 14:30 2011-09-23 15:00 A86L-0001-0125#A 9" CRT/MDI SM,SOFT KEY BOARD A20B-1001-0731/,PCU, SUB CPU CARD A16B-2200-03,   0.00 Single
59 SAF 3113000621 30/08/2011 2011-09-23 14:30 2011-09-23 15:00 AXIS MODULE,SVM2,40/40 A06B-60,I/O CARD A16B-2203 -0110 MAK,A16B-1212-0100 PS UNIT (A1 STA,   0.00 Single
60 SAF 3113000622 30/08/2011 2011-09-23 14:30 2011-09-23 15:00 SOFT KEY SHEET A02B-0092-C141,MDI CONTROL CARD A16B-1310-038,SVM1-405 A06B-6079-H103. MAKE,   0.00 Single
61 SAF 3113000623 30/08/2011 2011-09-23 14:30 2011-09-23 15:00 MOTHER BOARD PCB A20B-2002-066,PMC-M CARD A16B-1211-0901.MAKE,PCB, 5.6.AXIS-S1 CARD A16B-220,   0.00 Single
62 SAF 3113000624 30/08/2011 2011-09-23 14:30 2011-09-23 15:00 GAS OXYGEN COMPRESSED FOR INDU,   0.00 Single
63 SAF 3113000625 30/08/2011 2011-09-23 14:30 2011-09-23 15:00 LAMP 250 W,230 VOLT HIGH PRES,   0.00 Single
64 SAF 3113000626 30/08/2011 2011-09-23 14:30 2011-09-23 15:00 BATTERY INVAGOLD PREMIUM AKKUM,   0.00 Single
65 SAF 3113000627 30/08/2011 2011-09-23 14:30 2011-09-23 15:00 HEATER COIL DISC TYPE 2 KW 23,   0.00 Single
66 SAF 3113000628 30/08/2011 2011-09-23 14:30 2011-09-23 15:00 BALL BEARING NO 6314 MAKE - FA,ROLLER BEARING NO-N 316 MAKE F,   0.00 Single
67 MPF 3170122 30/08/2011 2011-09-16 14:30 2011-09-16 14:30 HYLAM RD 200MM DIA X 25MM THICK;   0.00 Single
68 MPF 3170124 30/08/2011 2011-10-04 14:30 2011-10-04 14:30 ROLLER SHAFT MTSK-207-2114-14; ADAPTOR PLATE MTSK-276-2507-12M; GUIDE BAR UPPER MTSK-207-4105-13; SUPPORT MTSK-207-2502-12;   0.00 Single
69 OCFAV 251/11-12 30/08/2011 2011-09-21 14:30 2011-09-21 14:30 SELF ADHESIVE POLY.BAG 41X30.5 CM   0.00 Single
70 OCFAV 252/11-12 30/08/2011 2011-09-21 14:30 2011-09-21 14:30 CARD BOARD BACK SUPPORT   0.00 Single
71 OFBA 110378 30/08/2011 2011-09-22 14:30 2011-09-22 14:30 RD.TRANSPORTATION OF PROP/EXPL   28500.00 Single
72 HVF 0410386 30/08/2011 2011-09-21 12:00 2011-09-21 15:00 STRAP , etc.   0.00 Single
73 HVF 0510472 30/08/2011 2011-09-30 12:00 2011-09-30 15:00 TEAKWOOD SWITCH BOX WITH 3MM THICK WHITE , etc.   0.00 Single
74 HVF 0812031 30/08/2011 2011-09-30 12:00 2011-09-30 15:00 THREE JAW POWER OPERATED CHUCK , etc.   0.00 Single
75 OFAJ RS2110151 30/08/2011 2011-10-14 14:00 2011-10-14 15:00 FESTO MAKE REED SWITCH., MAGNETIC SWITCH, PROX.SWITCH TYPE:SMEO-4U-S-LED-24-B   0.00 Single
76 OFT A212D48175 30/08/2011 2011-09-13 14:30 2011-09-13 15:00 MFG. & SUPPLY OF PLUNGER SPG.   0.00 Single
77 OFT A556A89933 30/08/2011 2011-09-27 14:30 2011-09-27 15:00 Steel 20mm BS 970 Gr 817 M40 Z   0.00 Single
78 OFT A556A89935 30/08/2011 2011-09-27 14:30 2011-09-27 15:00 Steel 20mm Dia Gr 709 M40   0.00 Single
79 OFT A556D89928 30/08/2011 2011-09-27 14:30 2011-09-27 15:00 C5081-1   0.00 Single
80 OFT A556D89929 30/08/2011 2011-09-27 14:30 2011-09-27 15:00 RING C3032 WITH OFT MATERIAL   0.00 Single
81 OFT A556E89930 30/08/2011 2011-09-27 14:30 2011-09-27 15:00 C1047 PIN   0.00 Single
82 OFT A556E89931 30/08/2011 2011-09-27 14:30 2011-09-27 15:00 C5044 DETENT   0.00 Single
83 OFT A556E89932 30/08/2011 2011-09-27 14:30 2011-09-27 15:00 C1012 Bolt Shoulder   0.00 Single
84 OFT A556G89934 30/08/2011 2011-09-27 14:30 2011-09-27 15:00 C9010 Release Small Arm   0.00 Single
85 OFCH 201100420 30/08/2011 2011-09-29 14:00 2011-09-29 14:30 SHEET M S 2500X1000X1.6MM THIC   0.00 Single
86 OFCH 201100421 30/08/2011 2011-09-29 14:00 2011-09-29 14:30 DISC CLPE 3MM DRG 1853 CONT 38   0.00 Single
87 OFCH 201100422 30/08/2011 2011-09-29 14:00 2011-09-29 14:30 OBTURATOR TO DRG. NO. CQA 155-   0.00 Single
88 OEFHZ 20110118 30/08/2011 2011-09-23 00:00 2011-09-23 00:00 PVC PIPE 2MM THICK 3/4" SIZE   0.00 Single
89 OEFHZ 20110119 30/08/2011 2011-09-23 00:00 2011-09-23 00:00 PVC ALUMINIUM CABLE 6MM SQ.   0.00 Single
90 VFJ 11AVA3227 30/08/2011 2011-11-01 14:00 2011-11-01 14:00 SET OF 15 HARNESSES FOR MPV,   0.00 Two
91 VFJ 11AVA3228 30/08/2011 2011-10-20 14:00 2011-10-20 14:00 PWER OPERATED REAR VIEW MIRROR,   0.00 Two
92 VFJ 11AVA3229 30/08/2011 2011-10-11 14:00 2011-10-11 14:00 TROCELLEN W/DENSITY 25KG/CU.MT,   0.00 Two
93 VFJ 11AVA3230 30/08/2011 2011-10-11 14:00 2011-10-11 14:00 TROCELLENE W/DENSITY 33KG/CUMT,   0.00 Two
94 VFJ 11AVA3231 30/08/2011 2011-10-11 14:00 2011-10-11 14:00 ROTATING SEARCH LIGHT,   0.00 Two
95 VFJ 11AVA3232 30/08/2011 2011-10-11 14:00 2011-10-11 14:00 PUBLIC ADDRESS SYSTEM,   0.00 Two
96 VFJ 11AVA3233 30/08/2011 2011-10-18 14:00 2011-10-18 14:00 HEAVY DUTY CABLES,   0.00 Two
97 VFJ 11AVA3234 30/08/2011 2011-10-18 14:00 2011-10-18 14:00 PROPELLER SHAFT (RA & AGB ),PROPELLER SHAFT ( FA & AGB ),PROPELLER SHAFT (GB & AGB),   0.00 Two
98 VFJ 11AVA3235 30/08/2011 2011-10-18 14:00 2011-10-18 14:00 HEAVY DUTY RADIATOR,   0.00 Two
99 VFJ 11AVA3236 30/08/2011 2011-10-18 14:00 2011-10-18 14:00 LEAF SPRING ASSY.(ARMY VERSION,   0.00 Two
100 VFJ 11AVA3237 30/08/2011 2011-10-25 14:00 2011-10-25 14:00 SET OF PNEUMATIC CYLINDER,   0.00 Two
101 VFJ 11AVA3238 30/08/2011 2011-10-25 14:00 2011-10-25 14:00 FLAME SENSOR,   0.00 Two
102 VFJ 11AVA3239 30/08/2011 2011-10-25 14:00 2011-10-25 14:00 MOD.TO STALLION DRAG LINK,   0.00 Two
103 VFJ 11AVA3240 30/08/2011 2011-10-25 14:00 2011-10-25 14:00 SPLIT TYPE AIR CONDITIONING,   0.00 Two
104 OFPM H1221 30/08/2011 2012-01-08 14:00 2012-01-08 15:00 RIM 675-73-270   0.00 Single
105 OFPM H1231 30/08/2011 2011-10-27 14:00 2011-10-27 15:00 BRANCH PIPE/765-06-811 BOLT DRG.NO.709-12-302 NUT 700-30-363 SCREW SET 700-35-288   0.00 Single
106 OFPM H1241 30/08/2011 2011-11-17 14:00 2011-11-17 15:00 UNION 765-05-396 BOLT 700-28-449. BOLT TO DRG:700-28-649 ROD 675-64-726 BOLT 675-73-467 ETC.   0.00 Single
107 OFPM H1251 30/08/2011 2011-09-22 14:00 2011-09-22 15:00 WASHER 765-24-326 WASHER 700-31-804 SCREW 700-35-304 BUSHING 675-50-161   0.00 Single
108 OFPM H1261 30/08/2011 2011-09-22 14:00 2011-09-22 15:00 BUSHING TO DRG NO. 765-38-245 BUSHING TO DRG NO.765-38-246 STRAP RETAINING TO DRG N0:CQA-ICV 675-39 AXLE 700-47-361-03 AXLE 675-64-238   0.00 Single
109 OFPM H1271 30/08/2011 2011-10-27 14:00 2011-10-27 15:00 PIPE 765-05-889 ROD:765-17-CD297 ROD 765-17-CD298   0.00 Single
110 OFPM H1281 30/08/2011 2011-10-27 14:00 2011-10-27 15:00 ROD 765-17-156 BLOCK [SCREW GRUB] TO DRG NO.709-17-68 EYE :765-24-177 BOLT 700-28-623 PLUG 765-33-121 ETC.   0.00 Single
111 OFPM H1291 30/08/2011 2011-10-13 14:00 2011-10-13 15:00 BRACKET 675-64-354 BOLT 675-65-384   0.00 Single
112 OFPM L311 30/08/2011 2011-09-15 14:00 2011-09-15 15:00 BEARING 6-80104 GOST 7242-81 ETY 500   0.00 Single
113 OFPM R711 30/08/2011 2011-09-16 14:00 2011-09-16 15:00 AL ALLOY BAR DIA:16 MM X 3000MM RDE-40 W   0.00 Single
114 OFPM R721 30/08/2011 2011-10-28 14:00 2011-10-28 15:00 STEEL BAR DIA:16MM X STD LENGTH.IS:5517   0.00 Single
115 OFPM T1511 30/08/2011 2011-09-27 14:00 2011-09-27 15:00 SQUARE SHOULDER END MILLING CUTTER.   0.00 Single
116 OFPM U261 30/08/2011 2011-09-16 14:00 2011-09-16 15:00 CERAMOL 256 IP   0.00 Single
117 HAPP 11/0235 30/08/2011 2011-10-04 14:00 2011-10-04 14:30 LATEX RUBBER MOULD CAP   0.00 Single
118 EFA 111482 30/08/2011 2011-10-18 00:00 2011-10-18 00:00 INJECTOR ATTACHING NUT   0.00 Single
119 OLF 1106012426 30/08/2011 2011-09-30 15:00 2011-09-30 15:00 TAPE,HOUSING,SPRING WASHER,WASHER,ROD .,SHAFT,FRAME WITH WINDING,BUSH (*),STUD (*),OIL SEAL,SCREW (*)   0.00 Single
120 OFBOL 11120139 30/08/2011 2011-09-27 14:30 2011-09-27 14:30 TRUCK TYRE,TUBE & FLAP(FRONT)S:10.0; TRUCK TYRE,TUBE & FLAP(REAR)S:10.00; TYRE,TUBE & FLAP(REAR)SIZE:7.50-16,; TYRE,TUBE & FLAP(FRONT)SIZE:7.50-16; CAR TYRE 165/80-R-14/15 WITH TUBE; etc   0.00 Single
121 OFBOL 11120140 30/08/2011 2011-10-28 14:30 2011-10-28 14:30 IBR FLANGE,SIZE:3"DIA HAVING 8-HOLE; IBR FLANGE,SIZE:4"DIA HAVING 8-HOLE; IBR FLANGE, CLASS-300,SIZE:50 MM NB; IBR FLANGE, CLASS-300,SIZE:50 MM NB; IBR NON RETURN VALVE,CLASS-300; etc   12213.00 Single
122 OFBOL 11120141 30/08/2011 2011-09-23 14:30 2011-09-23 14:30 SINGLE ROW BALL BEARING NO.6206 ; SINGLE ROW BALL BEARING NO.6205 ; SINGLE ROW BALL BEARING NO.6202 ; SINGLE ROW BALL BEARING NO.6203 ; SINGLE ROW BALL BEARING NO.6204; etc   7179.00 Single
123 OFBOL 11120142 30/08/2011 2011-10-11 14:30 2011-10-11 14:30 PEDESTAL FAN,SIZE:24",1400RPM NON-   0.00 Single
124 OFBOL 11120143 30/08/2011 2011-10-11 14:30 2011-10-11 14:30 BEARING NO. IBP 208J ; BEARING N0. NTN F 205J MAKE: NTN ; BEARING NO.FYH F206J ; BEARING NO. NBC 330 MAKE: NBC ; BEARING NO. HE 309 MAKE: J&J/JMC; etc   0.00 Single
125 OFBOL 11120144 30/08/2011 2011-09-23 14:30 2011-09-23 14:30 BEARING,SKF-6207,SIZE-25*72*17 ; SINGLE ROW BALL BEARING NO.6206 ; SINGLE ROW BALL BEARING NO.6305 OR ; SINGLE ROW BALL BEARING NO.6306 - ; SINGLE ROW BALL BEARING NO.6307 OR; etc   0.00 Single
126 OFBOL 11120145 30/08/2011 2011-09-23 14:30 2011-09-23 14:30 WORM TYPE HOSE CLIP,15MM ; WORM TYPE HOSE CLIP,25MM ; WORM TYPE HOSE CLIP,50MM ; PVC WIRE BREADED HOSE,8MM WITHSTAND; PVC WIRE BREADED HOSE,10MM WITHSTA-; etc   0.00 Single
127 GIF 0249111256 30/08/2011 2011-10-11 15:00 2011-10-11 15:00 CONTINUOUS COMP. STATIONERY SIZE: 1   0.00 Single
128 GIF 0250111239 30/08/2011 2011-12-08 15:00 2011-12-08 15:00 BURSTING STRENGTH TESTER III - TWO-   0.00 Single
129 OFDR 2011000190 30/08/2011 2011-10-11 14:30 2011-10-11 15:00 1. TAIL ADAPTER FOR 51 MM SMOKE   2.00 Single
130 OFDR 2011000191 30/08/2011 2011-10-11 14:30 2011-10-11 15:00 1. EMPTY COMP.FOR BASE BLEED IGNITER.   2.00 Single
131 OFDR 2011000192 30/08/2011 2011-10-11 14:30 2011-10-11 15:00 1. DELAY TUBE FOR 51MM ILLG.   2.00 Single
132 OFDR 2011000193 30/08/2011 2011-10-11 14:30 2011-10-11 15:00 1. SET OF 5 COMP.FOR UPPERSET 51MM ILL   2.00 Single
133 OFDR 2011000194 30/08/2011 2011-10-11 14:30 2011-10-11 15:00 1. BODY UPPER FOR 81 MM MK-II   3.00
134 OFDR 2011000195 30/08/2011 2011-10-11 14:30 2011-10-11 15:00 1. BODY LOWER FOR 81MM MK-II   3.00
135 OFDR 2011000196 30/08/2011 2011-10-11 14:30 2011-10-11 15:00 1. ADAPTER NOSE FOR 81MM MK-IIabc   3.00
136 OFDR 2011000197 30/08/2011 2011-10-11 14:30 2011-10-11 15:00 1. CASE CARTRIDGE FOR 16 MM WHITE   3.00
137 OFDR 2011000198 30/08/2011 2011-10-11 14:30 2011-10-11 15:00 1. CARTRIDGE CASE FOR 16 MM RED   3.00
138 OFDR 2011000199 30/08/2011 2011-10-11 14:30 2011-10-11 15:00 1. CARTRIDGE CASE FOR 16 MM GREEN   3.00
139 OFDR 2011000200 30/08/2011 2011-10-11 14:30 2011-10-11 15:00 1. BOTTOM PLATE WITH SWIVEL FOR 84 MM   3.00
140 OEFC 20110445 29/08/2011 2011-09-14 13:30 2011-09-14 14:00 ROPE COTTON C/L R/P U/D 2" CIR(16MM DIA) (IN MULTIPLE LENGTH 4 MTRS.)   0.00 Single
141 OEFC 20110446 29/08/2011 2011-09-19 13:30 2011-09-19 14:00 INDOTAN-540 (INDOFIL COMPANY) / RELUGAN RF(BASF) / TYCON AF(COMPONENT & EQUIPT.) / RETAN-540 (LANXESS INDIA PVT. LTD.) / SASYNTAN-540 (SYNTAN & COLLOIDS) /   9300.00 Single
142 OEFC 20110454 29/08/2011 2011-08-29 13:30 2011-08-29 14:00 FASTNER HOOK/LOOP TAPE SYN. OG 50MM (FOR SYN. WEB EQUPT. IMP. VER. POUCHES AMMN.ICK ) ONE SET CONSISTING OF :-   0.00 Single
143 OEFC 20110677 29/08/2011 2011-11-11 13:30 2011-11-11 14:00 SQUARE STEEL 1-3/8" (35MM) TD.   0.00 Single
144 OEFC 20110724 29/08/2011 2011-11-18 13:30 2011-11-18 14:00 RING STEEL 45MM TD. 1-3/4"XX5/16"   0.00 Single
145 MSF 11TE210306 29/08/2011 2011-09-09 14:30 2011-09-09 14:30 ALUMINIUM INGOT IS:2590-1987(Gr.3) etc.   Single
146 MSF 11TE210308 29/08/2011 2011-09-23 14:30 2011-09-23 14:30 PAPER WHITE CARTRIDGE. etc.   Single
147 MSF 11TE210309 29/08/2011 2011-09-23 14:30 2011-09-23 14:30 COPY PRINTER MASTER ROLL (CPMT-18G) etc.   Single
148 MSF 11TE220310 29/08/2011 2011-09-23 14:30 2011-09-23 14:30 SET OF SPARES AS PER ANNEXTURE FOR etc.   Single
149 MSF 11TE220311 29/08/2011 2011-09-23 14:30 2011-09-23 14:30 GROUP SEAL DRG. NO. OH/289/A. NEOPRENE RUBBER ORING SIZE-ID9 NEOPRENE RUBBER O RING SIZE-ID4255 etc.   Single
150 MSF 11TE230307 29/08/2011 2011-09-21 14:30 2011-09-21 14:30 SAFETY SHOE LADIES etc.   Single
151 GCF 111208NC56 29/08/2011 2011-09-06 10:30 2011-09-06 11:00 BEARING-SR DG- BALL 61948A   0.00 Single
152 RFI DZB1080055 29/08/2011 2011-10-12 14:00 2011-10-12 14:30 Purchase of WORKING STATION, CHAIR PCH-7003D, REVOLVING CHAIR, BOOK SHELF, VSDU, STEEL ALMIRAH, JWM TABLE, CHAIR FOR JWM,   1724587.10 Single
153 CFA 11PVTE0346 29/08/2011 2011-09-20 13:00 2011-09-20 14:00 TYRE, TUBE & FLAP - 10.00 X 20   0.00 Single
154 CFA 11PVTE0347 29/08/2011 2011-09-20 13:00 2011-09-20 14:00 ROUGH CAST WIRED GLASS   0.00 Single
155 GSF 1100000636 29/08/2011 2011-09-22 00:00 2011-09-22 00:00 SEPTUM IN FINISHED COND.TO PT.NO.QX-338.,   0.00 Single
156 GSF 1100000637 29/08/2011 2011-09-22 00:00 2011-09-22 00:00 COPPER BALL TO PART NO QX-159 IN F/C,   0.00 Single
157 GSF 1100000638 29/08/2011 2011-09-22 00:00 2011-09-22 00:00 SAFETY PLATE DRG.F-1321-437540-C.F/C.FUZE FFV-64C.,   0.00 Single
158 GSF 1100000639 29/08/2011 2011-09-22 00:00 2011-09-22 00:00 SPRING RING TO DRG.NO.F-1321-420540B IN FIN/COND.,   0.00 Single
159 GSF 1100000640 29/08/2011 2011-09-22 00:00 2011-09-22 00:00 O RING GASKET DRG.NO.F-1321-431780-C.F/C.FFV-64C.,   0.00 Single
160 OCFS 2011000021 29/08/2011 2011-09-22 14:30 2011-09-22 15:00 MAXTREAT-3220   0.00 Single
161 OCFS 2011000137 29/08/2011 2011-09-20 14:30 2011-09-20 15:00 NEEDLE CYLINDER (4"),NEEDLE CYLINDER (4.5")   0.00 Single
162 HEF TE11120122 29/08/2011 2011-09-20 00:00 2011-09-20 00:00 CENTRAL BAFFLE FOR COPPER0410970121   0.00 Single
163 HEF TE11120123 29/08/2011 2011-09-20 00:00 2011-09-20 00:00 DETETRYLATING POT (CCI)DR9910929675   0.00 Single
164 OFKAT 2011000215 29/08/2011 2011-09-20 14:30 2011-09-20 14:30 GODREJ TABLE T-8., CHAIR CANE, CHAIR CANE BOTTOM WITH ARMS, COMPUTER TABLE, CHAIR GODREJ CHR-7, CHAIR REVOLING GODREJ MAKE   0.00 Single
165 OFKAT 2011000216 29/08/2011 2011-09-27 14:30 2011-09-27 14:30 PROPELLER SHAFT ASEMBLY   0.00 Single
166 OFK 11CST-0607 29/08/2011 2011-09-20 14:30 2011-09-20 13:00 TURNNING TOOL(L.H.) KHT-130656 A   0.00 Single
167 OFK 11CST-0608 29/08/2011 2011-09-09 14:30 2011-09-09 13:00 MARKING OF LOT ON FILLED INGNITERS   0.00 Single
168 OFK 11CST-0609 29/08/2011 2011-09-16 14:30 2011-09-16 13:00 O/PLN.OFFICE/SYM5'X4'X3.6"H W/CHAIR,O/PLN.OFFICE SYM 5'X4'X3'.6"H W/S/C,O/PLN OFFICE SYM5'X4'X3'.6"H W/S/C.,OFFICERS/JWM TABLE 01 NO.S(MM) WITH etc.   0.00 Single
169 OFK 11CST-0610 29/08/2011 2011-09-20 14:30 2011-09-20 13:00 SHOES CANVAS SIZE 5 WITH RUBBER SOL,SHOES CANVAS SIZE 6 WITH RUBBER SOL,CANVAS SHOES SIZE 7,SHOES CANVAS SIZE 8,SHOES CANVAS SIZE 9,SHOES CANVAS SIZE 10 etc.   0.00 Single
170 SAF 3113000615 29/08/2011 2011-09-20 14:30 2011-09-20 15:00 COMBINATION PLIER TO I.S.3650:,   0.00 Single
171 SAF 3113000616 29/08/2011 2011-09-20 14:30 2011-09-20 15:00 ENGINEERS BALL PEIN HAMMER 200,   0.00 Single
172 MPF 3170118 29/08/2011 2011-09-30 14:30 2011-09-30 14:30 MIDDLE TURRET TO MTSK-292-4170-11.; GAUGING PLATE TO MTSK-292-4113-12.; SPIRAL PLATE TO MTSK-292-5018-11.;   0.00 Single
173 MPF 3170119 29/08/2011 2011-09-23 14:30 2011-09-23 14:30 BAR-I TO DRG.NO.MTSK-292-3103-14.; BAR-II TO DRG.NO.MTSK-292-3104-14.; TIE BLOCK TO DRG.MTSK-251-6001-13.; TARGET BLOCK TO MTSK-251-6008-14.;   0.00 Single
174 MPF 3170120 29/08/2011 2011-09-27 14:30 2011-09-27 14:30 GEAR WHEEL MTSK-207-2401-13; WHEEL TO DRG.NO.MTSK-292-2201-12.; SPLIT WHEEL TO DRG.MTSK-292-4115-12;   0.00 Single
175 MPF 3170121 29/08/2011 2011-09-02 14:30 2011-09-02 14:30 CHARGES FOR TRANS.OF KAVACH MOD-II.;   0.00 Single
176 OCFC 2011LTE223 29/08/2011 2011-09-22 00:00 2011-09-22 00:00 ,PLUG SHRG20P4ESH8 ,PLUG FEMALE SHR32P10ESH1 ,PLUG FEMALE SSHR32P10ESH4 ,PLUG FEMALE SHR40P16ESH2   0.00 Single
177 OCFC 2011LTE224 29/08/2011 2011-09-15 00:00 2011-09-15 00:00 ,PLUG SHRG20P4ESH8 ,PLUG FEMALE SHR32P10ESH1 ,PLUG FEMALE SSHR32P10ESH4 ,PLUG FEMALE SHR40P16ESH2   0.00 Single
178 HVF 0108193 29/08/2011 2011-09-15 12:00 2011-09-15 15:00 ACCESS HOLE COVER , etc.   0.00 Single
179 HVF 0510479 29/08/2011 2011-09-23 12:00 2011-09-23 15:00 RUBBER HOSE STEEL BRAIDED HEAVY DUTY. , etc.   0.00 Single
180 HVF 0510480 29/08/2011 2011-09-23 12:00 2011-09-23 15:00 DIGITAL ENERGY METER , etc.   0.00 Single
181 HVF 0510481 29/08/2011 2011-10-11 12:00 2011-10-11 15:00 POLYESTER BASED ENAMELLED COPPER WIRE , etc.   0.00 Single
182 HVF 0510483 29/08/2011 2011-09-23 12:00 2011-09-23 15:00 LOCTITE THREAD LOCKING NO.222 , etc.   0.00 Single
183 HVF 1800260 29/08/2011 2011-09-16 12:00 2011-09-16 15:00 PREPARATION OF BASE MAP BY SURVEYING THE , etc.   0.00 Single
184 OFT A110L48174 29/08/2011 2011-09-20 14:30 2011-09-20 15:00 HRC FUSES 200 AMPS   0.00 Single
185 OFT A556D89919 29/08/2011 2011-09-27 14:30 2011-09-27 15:00 C2052   0.00 Single
186 OFT A556D89920 29/08/2011 2011-09-27 14:30 2011-09-27 15:00 C1006   0.00 Single
187 OFT A556D89921 29/08/2011 2011-09-27 14:30 2011-09-27 15:00 C5081   0.00 Single
188 OFT A556D89922 29/08/2011 2011-09-27 14:30 2011-09-27 15:00 C5078   0.00 Single
189 OFT A556D89923 29/08/2011 2011-09-27 14:30 2011-09-27 15:00 C2025   0.00 Single
190 OFT A556D89924 29/08/2011 2011-09-27 14:30 2011-09-27 15:00 C1082   0.00 Single
191 OFT A556D89925 29/08/2011 2011-09-27 14:30 2011-09-27 15:00 C2022   0.00 Single
192 OFT A556D89926 29/08/2011 2011-09-27 14:30 2011-09-27 15:00 C5088   0.00 Single
193 OFT A556D89927 29/08/2011 2011-09-27 14:30 2011-09-27 15:00 C5088-1   0.00 Single
194 OFT A559D89902 29/08/2011 2011-09-22 14:30 2011-09-22 15:00 A1026 DETENT FLASH HIDER   0.00 Single
195 OFT A559D89903 29/08/2011 2011-10-11 14:30 2011-10-11 15:00 A5220 THUMB PIECE FEED TRAY   0.00 Single
196 OFT A559D89904 29/08/2011 2011-09-22 14:30 2011-09-22 15:00 A6416 EXCLUDER DUST   0.00 Single
197 OFT A559D89905 29/08/2011 2011-09-22 14:30 2011-09-22 15:00 A6417   0.00 Single
198 OFT A559D89906 29/08/2011 2011-09-22 14:30 2011-09-22 15:00 A6312 BRACKET PIN EXCLUDER   0.00 Single
199 OFT A559D89907 29/08/2011 2011-09-22 14:30 2011-09-22 15:00 A3102 TRADE THUMB PIECE   0.00 Single
200 OFT A559D89908 29/08/2011 2011-09-22 14:30 2011-09-22 15:00 A6415   0.00 Single
201 OFT A559D89909 29/08/2011 2011-09-22 14:30 2011-09-22 15:00 A6311   0.00 Single
202 OFT A559D89910 29/08/2011 2011-09-22 14:30 2011-09-22 15:00 A6313   0.00 Single
203 OFT A559D89911 29/08/2011 2011-09-22 14:30 2011-09-22 15:00 A2644 CATCH CYLINDER   0.00 Single
204 OFT A559D89912 29/08/2011 2011-09-22 14:30 2011-09-22 15:00 A2061   0.00 Single
205 OFT A559D89913 29/08/2011 2011-09-22 14:30 2011-09-22 15:00 A2045   0.00 Single
206 OFT A559D89914 29/08/2011 2011-10-11 14:30 2011-10-11 15:00 A2033 HANDLE LOCK A2033   0.00 Single
207 OFT A559D89915 29/08/2011 2011-09-22 14:30 2011-09-22 15:00 A2314   0.00 Single
208 OFT A559D89916 29/08/2011 2011-09-22 14:30 2011-09-22 15:00 A5324   0.00 Single
209 OFT A559D89917 29/08/2011 2011-09-22 14:30 2011-09-22 15:00 A0101 SPRING LEAF   0.00 Single
210 OFT A559D89918 29/08/2011 2011-09-22 14:30 2011-09-22 15:00 A2036   0.00 Single
211 VFJ 112TA0217 29/08/2011 2011-09-08 14:30 2011-09-08 14:30 HEX SCREW M8X1.25X25,   0.00 Single
212 VFJ 11AVA3226 29/08/2011 2011-09-20 14:30 2011-09-20 14:30 S/A RADIATOR WITH COWL,   0.00 Single
213 OFPM D341 29/08/2011 2011-10-18 14:00 2011-10-18 15:00 WASH BASIN SZ: 550 X 400 MM   0.00 Single
214 OFPM D351 29/08/2011 2011-10-18 14:00 2011-10-18 15:00 GLASS PANES CLEAR THICKNESS 4MM 1280X770 GLASS PANES CLEAR THICKNESS 4MM 1280X450 GLASS PANES CLEAR THICKNESS 4MM 1280X490 GLASS PANES CLEAR 4 X 300 X 600 MM   0.00 Single
215 OFPM D371 29/08/2011 2011-10-18 14:00 2011-10-18 15:00 HEAVY DUTY BRASS BALL VALVE HEAVY DUTY BRASS BALL VALVE HEAVY DUTY BRASS BALL VALVE   0.00 Single
216 OFPM K491 29/08/2011 2011-09-29 14:00 2011-09-29 15:00 GASKET   0.00 Single
217 OFPM K501 29/08/2011 2011-09-29 14:00 2011-09-29 15:00 GASKET   0.00 Single
218 OFPM L301 29/08/2011 2011-09-29 14:00 2011-09-29 15:00 BEARING 80200 ETY 500-65 BEARING 6-18   0.00 Single
219 OFPM V1341 29/08/2011 2011-12-31 14:00 2011-12-31 15:00 AZIMUTH INDICATOR H0-5203-66 VOLTAGE REGULATOR TO PART NO:PH.000TY ELECTRIC SPEEDOMETER SENDING UNIT ME-301 HOURMETRE 228.CH.P.-110 TY 25-07-1455-81 DOUBLE POINTER UNIVERSAL ELEC THERMOMETE ETC.   0.00 Single
220 OFPM V1361 29/08/2011 2011-11-30 14:00 2011-11-30 15:00 LIGHT OC nt 37 TO 765-82-CD243 HEAD LIGHT TO 765-82-SB395 DOME LAMP PMV-71 LIGHT SMALL FM1-3, DUO.242.001 TY LIGHT DUO.242.001TY FRMI-B ETC.   0.00 Single
221 EFA 111378 29/08/2011 2011-09-27 00:00 2011-09-27 00:00 UNION   0.00 Single
222 EFA 111379 29/08/2011 2011-09-27 00:00 2011-09-27 00:00 CLAMP   0.00 Single
223 EFA 111380 29/08/2011 2011-09-27 00:00 2011-09-27 00:00 PLUG   0.00 Single
224 EFA 111381 29/08/2011 2011-09-27 00:00 2011-09-27 00:00 GASKET   0.00 Single
225 EFA 111382 29/08/2011 2011-09-27 00:00 2011-09-27 00:00 BOLT M10 X 30   0.00 Single
226 EFA 111383 29/08/2011 2011-09-27 00:00 2011-09-27 00:00 CLIP OF 3 PIPES   0.00 Single
227 EFA 111384 29/08/2011 2011-09-27 00:00 2011-09-27 00:00 WASHER   0.00 Single
228 EFA 111385 29/08/2011 2011-09-27 00:00 2011-09-27 00:00 DELIVERY VALVE SPRING   0.00 Single
229 EFA 111386 29/08/2011 2011-09-27 00:00 2011-09-27 00:00 GASKET   0.00 Single
230 EFA 111387 29/08/2011 2011-09-27 00:00 2011-09-27 00:00 WASHER   0.00 Single
231 EFA 111388 29/08/2011 2011-09-30 00:00 2011-09-30 00:00 ROUND PIN 3 X 8   0.00 Single
232 EFA 111389 29/08/2011 2011-09-30 00:00 2011-09-30 00:00 GASKET   0.00 Single
233 EFA 111390 29/08/2011 2011-09-30 00:00 2011-09-30 00:00 LIMITER   0.00 Single
234 EFA 111391 29/08/2011 2011-09-30 00:00 2011-09-30 00:00 LOCK WASHER 7   0.00 Single
235 EFA 111392 29/08/2011 2011-09-30 00:00 2011-09-30 00:00 LOCKING RING   0.00 Single
236 EFA 111393 29/08/2011 2011-09-30 00:00 2011-09-30 00:00 SPLINED BUSHING   0.00 Single
237 EFA 111394 29/08/2011 2011-09-30 00:00 2011-09-30 00:00 GASKET   0.00 Single
238 EFA 111395 29/08/2011 2011-09-30 00:00 2011-09-30 00:00 GASKET   0.00 Single
239 EFA 111396 29/08/2011 2011-09-30 00:00 2011-09-30 00:00 TUBE   0.00 Single
240 EFA 111397 29/08/2011 2011-09-30 00:00 2011-09-30 00:00 GASKET   0.00 Single
241 EFA 111398 29/08/2011 2011-09-30 00:00 2011-09-30 00:00 BOLT   0.00 Single
242 EFA 111399 29/08/2011 2011-09-30 00:00 2011-09-30 00:00 OIL BY PASS TUBE   0.00 Single
243 EFA 111400 29/08/2011 2011-09-30 00:00 2011-09-30 00:00 RETAINER   0.00 Single
244 EFA 111401 29/08/2011 2011-09-30 00:00 2011-09-30 00:00 BUSH(OG)   0.00 Single
245 EFA 111402 29/08/2011 2011-09-30 00:00 2011-09-30 00:00 SETTING SCREW   0.00 Single
246 EFA 111403 29/08/2011 2011-09-30 00:00 2011-09-30 00:00 BUSH   0.00 Single
247 EFA 111404 29/08/2011 2011-09-30 00:00 2011-09-30 00:00 JET PIPE OF MAIN JOURNAL   0.00 Single
248 EFA 111405 29/08/2011 2011-09-30 00:00 2011-09-30 00:00 GASKET   0.00 Single
249 EFA 111406 29/08/2011 2011-09-30 00:00 2011-09-30 00:00 SEALING RING   0.00 Single
250 EFA 111407 29/08/2011 2011-09-30 00:00 2011-09-30 00:00 GASKET FOR INCLINED SHAFT CASI   0.00 Single
251 EFA 111408 29/08/2011 2011-09-30 00:00 2011-09-30 00:00 CLAMPING NUT   0.00 Single
252 EFA 111409 29/08/2011 2011-09-30 00:00 2011-09-30 00:00 CAM-SHAFT END CAP   0.00 Single
253 EFA 111410 29/08/2011 2011-10-18 00:00 2011-10-18 00:00 RING   0.00 Single
254 EFA 111411 29/08/2011 2011-10-07 00:00 2011-10-07 00:00 LOCKWASHER-12   0.00 Single
255 EFA 111412 29/08/2011 2011-10-07 00:00 2011-10-07 00:00 NUT M12X1.5   0.00 Single
256 EFA 111413 29/08/2011 2011-10-07 00:00 2011-10-07 00:00 WASHER   0.00 Single
257 EFA 111414 29/08/2011 2011-10-07 00:00 2011-10-07 00:00 NUT ROUND M6   0.00 Single
258 EFA 111415 29/08/2011 2011-10-07 00:00 2011-10-07 00:00 LOCKING WASHER   0.00 Single
259 EFA 111416 29/08/2011 2011-10-07 00:00 2011-10-07 00:00 PACKING SPRING   0.00 Single
260 EFA 111417 29/08/2011 2011-10-07 00:00 2011-10-07 00:00 RETAINING RING   0.00 Single
261 EFA 111418 29/08/2011 2011-10-07 00:00 2011-10-07 00:00 BRIGHT WASHER 12   0.00 Single
262 EFA 111419 29/08/2011 2011-10-07 00:00 2011-10-07 00:00 PIPE, MIDDLE   0.00 Single
263 EFA 111420 29/08/2011 2011-10-07 00:00 2011-10-07 00:00 GASKET   0.00 Single
264 EFA 111421 29/08/2011 2011-10-07 00:00 2011-10-07 00:00 BRIGHT WASHER 18   0.00 Single
265 EFA 111422 29/08/2011 2011-10-07 00:00 2011-10-07 00:00 WASHER 6   0.00 Single
266 EFA 111423 29/08/2011 2011-10-18 00:00 2011-10-18 00:00 COVER   0.00 Single
267 EFA 111424 29/08/2011 2011-10-07 00:00 2011-10-07 00:00 SUB.ASSY.CLIP   0.00 Single
268 EFA 111425 29/08/2011 2011-10-07 00:00 2011-10-07 00:00 CLIP   0.00 Single
269 EFA 111426 29/08/2011 2011-10-07 00:00 2011-10-07 00:00 END CAP   0.00 Single
270 EFA 111427 29/08/2011 2011-10-07 00:00 2011-10-07 00:00 SCREW   0.00 Single
271 EFA 111428 29/08/2011 2011-10-18 00:00 2011-10-18 00:00 GASKET   0.00 Single
272 EFA 111429 29/08/2011 2011-10-07 00:00 2011-10-07 00:00 CLAMP   0.00 Single
273 EFA 111430 29/08/2011 2011-10-11 00:00 2011-10-11 00:00 LOCKING WASHER 18X   0.00 Single
274 EFA 111431 29/08/2011 2011-10-11 00:00 2011-10-11 00:00 GASKET   0.00 Single
275 EFA 111432 29/08/2011 2011-10-11 00:00 2011-10-11 00:00 PLUG   0.00 Single
276 EFA 111433 29/08/2011 2011-10-11 00:00 2011-10-11 00:00 LOCK WASHER 10   0.00 Single
277 EFA 111434 29/08/2011 2011-10-11 00:00 2011-10-11 00:00 RETAINING RING   0.00 Single
278 EFA 111435 29/08/2011 2011-10-11 00:00 2011-10-11 00:00 GASKET   0.00 Single
279 EFA 111436 29/08/2011 2011-10-11 00:00 2011-10-11 00:00 SHIM   0.00 Single
280 EFA 111437 29/08/2011 2011-10-11 00:00 2011-10-11 00:00 SEALING RING   0.00 Single
281 EFA 111438 29/08/2011 2011-10-11 00:00 2011-10-11 00:00 RING   0.00 Single
282 EFA 111439 29/08/2011 2011-10-11 00:00 2011-10-11 00:00 COVER SCREW   0.00 Single
283 EFA 111440 29/08/2011 2011-10-11 00:00 2011-10-11 00:00 BUSH   0.00 Single
284 EFA 111441 29/08/2011 2011-10-11 00:00 2011-10-11 00:00 WASHER   0.00 Single
285 EFA 111442 29/08/2011 2011-10-11 00:00 2011-10-11 00:00 RETAINING RING   0.00 Single
286 EFA 111443 29/08/2011 2011-10-11 00:00 2011-10-11 00:00 COVER   0.00 Single
287 EFA 111444 29/08/2011 2011-10-11 00:00 2011-10-11 00:00 COVER   0.00 Single
288 EFA 111445 29/08/2011 2011-10-11 00:00 2011-10-11 00:00 LOCK WASHER 11   0.00 Single
289 EFA 111446 29/08/2011 2011-10-11 00:00 2011-10-11 00:00 PLATE   0.00 Single
290 EFA 111447 29/08/2011 2011-10-11 00:00 2011-10-11 00:00 SPRING   0.00 Single
291 EFA 111448 29/08/2011 2011-10-11 00:00 2011-10-11 00:00 SPACER   0.00 Single
292 EFA 111449 29/08/2011 2011-10-11 00:00 2011-10-11 00:00 SEALING RING   0.00 Single
293 EFA 111450 29/08/2011 2011-10-14 00:00 2011-10-14 00:00 NUT M18 X 1.5 5H6H   0.00 Single
294 EFA 111451 29/08/2011 2011-10-14 00:00 2011-10-14 00:00 GASKET   0.00 Single
295 EFA 111452 29/08/2011 2011-10-14 00:00 2011-10-14 00:00 SEAL   0.00 Single
296 EFA 111453 29/08/2011 2011-10-14 00:00 2011-10-14 00:00 BUSH   0.00 Single
297 EFA 111454 29/08/2011 2011-10-14 00:00 2011-10-14 00:00 COVER NUT M 24 X 1.5 5H6H   0.00 Single
298 EFA 111455 29/08/2011 2011-10-14 00:00 2011-10-14 00:00 GAUZE   0.00 Single
299 EFA 111456 29/08/2011 2011-10-14 00:00 2011-10-14 00:00 WASHER   0.00 Single
300 EFA 111457 29/08/2011 2011-10-14 00:00 2011-10-14 00:00 SEALING RING   0.00 Single
301 EFA 111458 29/08/2011 2011-10-14 00:00 2011-10-14 00:00 PACKING RING   0.00 Single
302 EFA 111459 29/08/2011 2011-10-14 00:00 2011-10-14 00:00 PIPE UNION   0.00 Single
303 EFA 111460 29/08/2011 2011-10-14 00:00 2011-10-14 00:00 REINFORCED SEAL   0.00 Single
304 EFA 111461 29/08/2011 2011-10-14 00:00 2011-10-14 00:00 SPACER/INSERTION   0.00 Single
305 EFA 111462 29/08/2011 2011-10-14 00:00 2011-10-14 00:00 PLATE   0.00 Single
306 EFA 111463 29/08/2011 2011-10-14 00:00 2011-10-14 00:00 GASKET   0.00 Single
307 EFA 111464 29/08/2011 2011-10-14 00:00 2011-10-14 00:00 LOCKING WASHER 15   0.00 Single
308 EFA 111465 29/08/2011 2011-10-14 00:00 2011-10-14 00:00 RETAINING RING   0.00 Single
309 EFA 111466 29/08/2011 2011-10-14 00:00 2011-10-14 00:00 NIPPLE   0.00 Single
310 EFA 111467 29/08/2011 2011-10-14 00:00 2011-10-14 00:00 FLANGE   0.00 Single
311 EFA 111468 29/08/2011 2011-10-14 00:00 2011-10-14 00:00 LOCKING RING   0.00 Single
312 EFA 111469 29/08/2011 2011-10-14 00:00 2011-10-14 00:00 ROUND PIN 5 S7 X 8   0.00 Single
313 EFA 111470 29/08/2011 2011-10-18 00:00 2011-10-18 00:00 SPACE RING 2.8 MM   0.00 Single
314 EFA 111471 29/08/2011 2011-10-18 00:00 2011-10-18 00:00 BUSHING   0.00 Single
315 EFA 111472 29/08/2011 2011-10-18 00:00 2011-10-18 00:00 BUSHING   0.00 Single
316 EFA 111473 29/08/2011 2011-10-18 00:00 2011-10-18 00:00 SLEEVE   0.00 Single
317 EFA 111474 29/08/2011 2011-10-18 00:00 2011-10-18 00:00 PLUG   0.00 Single
318 EFA 111475 29/08/2011 2011-10-18 00:00 2011-10-18 00:00 SEAL   0.00 Single
319 EFA 111476 29/08/2011 2011-10-18 00:00 2011-10-18 00:00 PLUG   0.00 Single
320 EFA 111477 29/08/2011 2011-10-18 00:00 2011-10-18 00:00 NON-RETURN VALVE BODY   0.00 Single
321 EFA 111478 29/08/2011 2011-10-18 00:00 2011-10-18 00:00 LOCK WASHER 6   0.00 Single
322 EFA 111479 29/08/2011 2011-10-18 00:00 2011-10-18 00:00 NUT M12-7H   0.00 Single
323 EFA 111480 29/08/2011 2011-10-18 00:00 2011-10-18 00:00 HOLDER   0.00 Single
324 EFA 111481 29/08/2011 2011-10-18 00:00 2011-10-18 00:00 BUSH OF CONNECTING ROD   0.00 Single
325 EFA 112012 29/08/2011 2011-09-16 00:00 2011-09-16 00:00 TA IN MACHINING   0.00 Single
326 OLF 1106012424 29/08/2011 2011-09-19 15:00 2011-09-19 15:00 COMPARATOR STAND MODEL NO.820   0.00 Single
327 OFDR 2011000182 29/08/2011 2011-09-20 14:30 2011-09-20 15:00 1. MAGNESIUM ALUMINIUM ALLOY POWDERED   3.00 Single
328 OFDR 2011000183 29/08/2011 2011-09-20 14:30 2011-09-20 15:00 1. HARDNER EH-411   3.00 Single
329 OFDR 2011000184 29/08/2011 2011-09-20 14:30 2011-09-20 15:00 1. FIEXIBLE PVC INSULATED CABLE   2.00 Single
330 OFDR 2011000185 29/08/2011 2011-09-20 14:30 2011-09-20 15:00 1. ELECTRICAL POWER CONTACTOR, 70A   2.00 Single
331 OFDR 2011000186 29/08/2011 2011-09-20 14:30 2011-09-20 15:00 1. SUPPLY & FIXING OF EXHAUST SYSTEM   2.00 Single
332 OFDR 2011000187 29/08/2011 2011-09-20 14:30 2011-09-20 15:00 1. STATIMETER (LOAD CELL) 50 TONNE 2. STATIMETER (LOAD CELLS) OF 2 TONNE   2.00 Single
333 OFDR 2011000188 29/08/2011 2011-09-20 14:30 2011-09-20 15:00 1. POTASSIUM CHLORATE GR.II   3.00 Single
334 OFDR 2011000189 29/08/2011 2011-09-20 14:30 2011-09-20 15:00 1. POTASSIUM PERCHLORATE POWDER   3.00 Single
335 AFK 20110575 28/08/2011 2011-09-16 14:00 2011-09-16 14:30 DECORATIVE WATER PROOF CEMENT, CEMENT DECORATIVE SNOWCEM BRICK RED, DECORATIVE CEMENT WHITE SHADE ETC.   0.00 Single
336 AFK 20110576 28/08/2011 2011-09-30 14:00 2011-09-30 14:30 BRACKET FOR TUBE TRIMING M/C IN CT   0.00 Single
337 AFK 20110577 28/08/2011 2011-09-30 14:00 2011-09-30 14:30 TOOL STEEL RD 16 MM - EN 31 WITH   0.00 Single
338 AFK 20110578 28/08/2011 2011-09-30 14:00 2011-09-30 14:30 PINION &SPIRAL GEAR CSP-2773&2774   0.00 Single
339 AFK 20110579 28/08/2011 2011-09-30 14:00 2011-09-30 14:30 7.2V 2000MAH LI-ION BATTERY PACK   0.00 Single
340 MSF 11TE210305 28/08/2011 2011-09-23 14:30 2011-09-23 14:30 THREAD MILLING HOB FOR NOSE ADAPTER etc.   Single
341 MSF 11TE220304 28/08/2011 2011-09-23 14:30 2011-09-23 14:30 THYRISTOR-MONOBLOCK MDLC (SKKT)250/ THYRISTOR CONTROL CARD etc.   Single
342 RFI DTB3170406 28/08/2011 2011-09-30 14:00 2011-09-30 14:30 Purchase of LID FOR CRYOCAN CONTAINAR FOR, `CRYOCAN'-CONT.FOR L/NITROGEN.,   0.00 Single
343 RFI DTB3180407 28/08/2011 2011-09-30 14:00 2011-09-30 14:30 Purchase of COLLET ER 20/3-4 MM, COLLET ER 20/4-5 MM, COLLET ER 20/5-6 MM, COLLET ER 20/9-10 MM, COLLET ER 20/12-11 AA, ADAPTOR, ADAPTOR,   0.00 Single
344 RFI DTB3180408 28/08/2011 2011-09-30 14:00 2011-09-30 14:30 Purchase of COLLET CHUCK EXTENSION OF ER16, AA SERIES HIGHLY PRECISE COLLE, AA SERIES HIGHLY PRECISE COLLE, AA SERIES HIGHLY PRECISE COLLE, AA SERIES HIGHLY PRECISE COLLE, AA SERIES HIGHLY PRECISE COL   0.00 Single
345 RFI DTB3480404 28/08/2011 2011-09-30 14:00 2011-09-30 14:30 Purchase of CORO DRILL, CENTRAL INSERT, PERIPHERAL INSERT,   0.00 Single
346 RFI DTB3480405 28/08/2011 2011-09-30 14:00 2011-09-30 14:30 Purchase of S/C CAM SIDE & FACE M/CUTTER, SOLID CARBIDE T-SLOT CUTTER,   0.00 Single
347 RFI DTB7970403 28/08/2011 2011-09-16 14:00 2011-09-16 14:30 Purchase of OIL, KEROSINE SUPERIOR QUALITY,   0.00 Single
348 OCFS 2011000135 28/08/2011 2011-09-20 14:30 2011-09-20 15:00 FLAT BED KNITTING EQUIPMENT 8 GAUGE   0.00 Single
349 OFKAT 2011000214 28/08/2011 2011-09-20 14:30 2011-09-20 14:30 GODREJ OPTIMIZER   0.00 Single
350 SAF 3113000613 28/08/2011 2011-09-16 14:30 2011-09-16 15:00 OILER HAND WITH SCREW CAP BR,   0.00 Single
351 SAF 3113000614 28/08/2011 2011-09-20 14:30 2011-09-20 15:00 SPRING, LEAF,   0.00 Single
352 MPF 3100436 28/08/2011 2011-09-20 14:30 2011-09-20 14:30 CABLE FLEX CC PVCINS 16/0.2MM 1100V; CABLE,PVC INSULATED,4CORE,1.5SQ.MM;   0.00 Single
353 MPF 3100437 28/08/2011 2011-09-23 14:30 2011-09-23 14:30 REAR TYRE FOR MAHINDRA TRACTOR585DI; FRONT TYRES 6.00-16 FIELD GRIP.;   0.00 Single
354 MPF 3100438 28/08/2011 2011-09-13 14:30 2011-09-13 14:30 THYRISTOR CONTROL CARD MODEL:3XXX.;   0.00 Single
355 MPF 3100439 28/08/2011 2011-09-09 14:30 2011-09-09 14:30 FORGING FOR SHAFT LEFT;   0.00 Single
356 MPF 3100440 28/08/2011 2011-09-27 14:30 2011-09-27 14:30 GRAVITY DIE CASTING FOR BODY;   0.00 Single
357 MPF 3100441 28/08/2011 2011-10-07 14:30 2011-10-07 14:30 GLASS SCALE SLIDER,5 MICRON.; GLASS SCALE SLIDER,1 MICRON.;   0.00 Single
358 MPF 3100442 28/08/2011 2011-09-27 14:30 2011-09-27 14:30 SHIM DRG.BLT-74-016-02(675-74-16-02; HANDLE DRG.BLT-74-035(675-74-35).;   0.00 Single
359 MPF 3100443 28/08/2011 2011-09-20 14:30 2011-09-20 14:30 GAUZE 676-38-23 (T-38-43).;   0.00 Single
360 MPF 3100444 28/08/2011 2011-09-20 14:30 2011-09-20 14:30 ALU.CASTING FOR COVER RH D-ILG-1028;   0.00 Single
361 MPF 3170112 28/08/2011 2011-09-27 14:30 2011-09-27 14:30 BUSH.MTSK-207-2106-13; GEAR 90 T MTSK-276-4101-12; SHAFT TO DRG.NO.MTSK-292-5006-13.;   0.00 Single
362 MPF 3170113 28/08/2011 2011-09-20 14:30 2011-09-20 14:30 FRAME TO DRG.NO.MTSK-292-1100-11.;   0.00 Single
363 MPF 3170114 28/08/2011 2011-09-27 14:30 2011-09-27 14:30 SYSTEM AIR DRYIER 1/2"-FESTO;   0.00 Single
364 MPF 3170115 28/08/2011 2011-09-30 14:30 2011-09-30 14:30 VALVE TERMINAL FESTO-18220; VALVE TERMINAL FESTO-18200;   0.00 Single
365 MPF 3170116 28/08/2011 2011-09-30 14:30 2011-09-30 14:30 CHUTE TO DRG.NO.MTSK-292-1018-12.; CHUTE JOINING BUSH MTSK-276-3103-14; NUT TO DRG.NO.MTSK-276-3108-14.;   0.00 Single
366 MPF 3170117 28/08/2011 2011-09-30 14:30 2011-09-30 14:30 LOWER CAM TO DRG.MTSK-292-4125-12.; HOPPER GUARD TO MTSK-292-5019-13.;   0.00 Single
367 HVF 0410380 28/08/2011 2011-09-21 12:00 2011-09-21 15:00 RING , etc.   0.00 Single
368 HVF 0410381 28/08/2011 2011-09-21 12:00 2011-09-21 15:00 PANEL ASSY , etc.   0.00 Single
369 HVF 0410382 28/08/2011 2011-09-21 12:00 2011-09-21 15:00 AUTOMATIC MATCHING UNIT PAC-15-2C , etc.   0.00 Single
370 HVF 0410383 28/08/2011 2011-09-21 12:00 2011-09-21 15:00 CROSS-CUT TRUMP SAW ASSY , etc.   0.00 Single
371 HVF 0410384 28/08/2011 2011-09-21 12:00 2011-09-21 15:00 PANEL , etc.   0.00 Single
372 HVF 0701752 28/08/2011 2011-09-22 12:00 2011-09-22 15:00 WORM , etc.   0.00 Single
373 OFAJ SS2110078 28/08/2011 2011-09-21 14:00 2011-09-21 15:00 CHIP BREAKER 73398217.FOR TOOL/H., CLAMP SCREW WIDIA 73080215 FOR SNUN, INSERT SCREW FOR T.H.21480388.   0.00 Single
374 OFAJ SS2110079 28/08/2011 2011-09-21 14:00 2011-09-21 15:00 CARBIDE INSERT TPMR 160308 GR.TG/GC, DOVET.T.H.SP-734-5738(L.H.)., SCREW TO WIDIA NO.21480072.   0.00 Single
375 OFAJ SS2110080 28/08/2011 2011-09-21 14:00 2011-09-21 15:00 CARBIDE TIP T&F TOOL 20X20 GR.P30   0.00 Single
376 VFJ 114G7048 28/08/2011 2011-09-06 14:00 2011-09-06 14:00 SERVICE CONTRACT FOR DRIVERS,   0.00 Single
377 FGK 310432 28/08/2011 2011-08-30 00:00 2011-08-30 00:00 OIL BHARAT TRIPONOL-H/TRIMOFIN,   0.00 Single
378 FGK 310433 28/08/2011 2011-10-20 00:00 2011-10-20 00:00 BALL BEARING 7004 CTRDULP 3.MA,   0.00 Single
379 OFPM C1281 28/08/2011 2011-09-20 14:00 2011-09-20 15:00 PRINTER RIBBON WITH CARTRIDGE FOR DMP   0.00 Single
380 OFPM C1291 28/08/2011 2011-09-20 14:00 2011-09-20 15:00 BRASS PAD LOCKS 85MM 10 LEVERS   0.00 Single
381 OFPM C1301 28/08/2011 2011-10-11 14:00 2011-10-11 15:00 AMMONIA PROCESS PAPER 1.02X10 Mts.   0.00 Single
382 OFPM C1311 28/08/2011 2011-09-27 14:00 2011-09-27 15:00 APRON RUBBER ACID / ALKALI PROOF MADE OF   0.00 Single
383 OFPM D331 28/08/2011 2011-09-27 14:00 2011-09-27 15:00 SUPPLY & INSTALL OF CONVEX BRIGHT MIRROR   0.00 Single
384 OFPM H1111 28/08/2011 2011-10-27 14:00 2011-10-27 15:00 BOLT 700-28-603 STUD,PLAIN 700-29-479 1 POL-15, GOST 2162-78 WASHER 675-64-727   0.00 Single
385 OFPM H1121 28/08/2011 2011-09-22 14:00 2011-09-22 15:00 WASHER 672-31-6 WASHER 700-31-170 WASHER :672-31-74 GASKET 700-40-143 RIB 765-05-755 ETC.   0.00 Single
386 OFPM H1131 28/08/2011 2011-09-29 14:00 2011-09-29 15:00 SHAFT 700-47-175 UNION NUT/700-30229 INDICATOR 675-73-296 PIN TO DRG. NO.625334-K   0.00 Single
387 OFPM H1141 28/08/2011 2011-09-29 14:00 2011-09-29 15:00 CLAMP BUSHING TO DRG.NO. 240-01-25 UNION NUT 240-01-26 BUSHING TO DRG2:765-24-12 PIN TO DRG NO:765-24-40 PIPE 765-24-223 ETC.   0.00 Single
388 OFPM H1151 28/08/2011 2011-09-22 14:00 2011-09-22 15:00 STUD PLAIN 700-29-224 765-31-11 RETAINER BOSS 700-51-254 BOSS 675-57-307 UNION 765-78-573 ETC.   0.00 Single
389 OFPM H1161 28/08/2011 2011-09-29 14:00 2011-09-29 15:00 NIPPLE 765-05-52 NIPPLE DRG. NO:700-57-3 NOPPLE/700-57-416 NOPPLE/700-57-418 NIPPLE/700-57-417 ETC.   0.00 Single
390 OFPM H1171 28/08/2011 2011-10-27 14:00 2011-10-27 15:00 GASKET 54-83-011-1 GASKET 54-83-013 GASKET 54-83-014 GASKET 54-83-294 GASKET 54-83-295 ETC.   0.00 Single
391 OFPM H1181 28/08/2011 2011-09-29 14:00 2011-09-29 15:00 CLAMP 672-54-9-23 GASKET 765-06-184 GASKET 765-06-261 LOCK WASHER, M240-26-085 WASHER 700-31-665 ETC.   0.00 Single
392 OFPM H1191 28/08/2011 2011-09-29 14:00 2011-09-29 15:00 VALVE 765-05-CD249 ROD 765-17-CD238 AXLE 700-47-358-04   0.00 Single
393 OFPM H1201 28/08/2011 2011-09-22 14:00 2011-09-22 15:00 BAND/765-06-CD421 BAND/765-06-CD422 BAND 272-86-17   0.00 Single
394 OFPM H1211 28/08/2011 2011-09-29 14:00 2011-09-29 15:00 GASKET/748-09-55 GASKET 748-25-338 GASKET TO DRG NO.675-34-PD002 GASKET TO DRG 765-38-242-01 GASKET 700-40-260-05 ETC.   0.00 Single
395 HAPP 11/0234 28/08/2011 2011-10-04 14:00 2011-10-04 14:30 OXYGEN GAS FOR WELDING PURPOSE   0.00 Single
396 AFK 20110568 27/08/2011 2011-09-23 14:00 2011-09-23 14:30 BOTTOM DIE (TC)., BOTTOM DIE(TC),8MM CASE AFK/CT-1565, BOTTOM DIE (TC)., BOTTOM DIE (TC) FOR IST DRAW., BOTTOM DIE (TC) FOR IIND DRAW ETC.   0.00 Single
397 AFK 20110569 27/08/2011 2011-09-20 14:00 2011-09-20 14:30 SUPPLY&INSTALLATION OF M.ADPTN.KIT   0.00 Single
398 AFK 20110570 27/08/2011 2011-09-30 14:00 2011-09-30 14:30 BARIUM NITRATE GRI CRY SP-JSS 6810   0.00 Single
399 AFK 20110571 27/08/2011 2011-09-02 14:00 2011-09-02 14:30 STRIKER DET 3 PART ITW 65 DC (I)   0.00 Single
400 AFK 20110572 27/08/2011 2011-09-16 14:00 2011-09-16 14:30 CONTRACT FOR HIRING OF AMBULANCEVAN   0.00 Single
401 AFK 20110573 27/08/2011 2011-09-27 14:00 2011-09-27 14:30 WORM WHEEL AND PINION, CRANK WHEEL FOR TUBE ROLLING M/C, HELICAL GEARS FOR REDUCTION MOTOR, FINGER FOR SEMI HEADING MACHINE, FEEDING DIAL FOR SLIDING BLOCK ETC.   0.00 Single
402 AFK 20110574 27/08/2011 2011-09-27 14:00 2011-09-27 14:30 PVC FLAME RETARDENT SMOKE FRE., PVC FLAME RETARDENT SMOKE FREE., PVC FLAME RETARDENT SMOKE FREE., PVC INSULATED POWER CABLES 2.5 SQMM, PVC INSULATED POWER CABLES 4 SQ MM ETC.   0.00 Single
403 OEFC 20110439 27/08/2011 2011-09-19 13:30 2011-09-19 14:00 GASKET FOR BOX H2A (AS PER OFBH DRG. NO.OFB/SK/712 )MAT- VULCANISED NATURAL RUBBER CLASS "A" TO SPEC IND/ME/584 (F) COLOUR OF RUBBER TO BE BLACK.   0.00 Single
404 OEFC 20110440 27/08/2011 2011-09-12 13:30 2011-09-12 14:00 ROPE COTTON CABLE LAID 14 MM DIA U/D ROT PROOFED IN M/L 3.35 METER   6500.00 Single
405 OEFC 20110441 27/08/2011 2011-09-14 13:30 2011-09-14 14:00 BALMOL BL-SF0 (BARMER LAWRIE)/DERMINOL NC LIQUID (CLARIANT)/LIPODERM LIQUIR E- XS (BASF)/CHROMOPOL SG (TFL)   31000.00 Single
406 OEFC 20110442 27/08/2011 2011-09-14 13:30 2011-09-14 14:00 NYLON SEWING THREAD BLACK, VARIETY NO. H 1   0.00 Single
407 MSF 11TE230303 27/08/2011 2011-09-09 14:30 2011-09-09 14:30 CONSERVANCY CONTRACT OF O.F.H. etc.   Single
408 GCF 111207NC56 27/08/2011 2011-09-29 10:30 2011-09-29 11:00 METAL SWITCH FUSE UNIT 32 AMPS   0.00 Single
409 RFI DTB8690401 27/08/2011 2011-09-26 14:00 2011-09-26 14:30 Purchase of SURGE CONTROLLER V-20C, SURGE CONTROLLER VF24V DC,   0.00 Single
410 RFI DTB8690402 27/08/2011 2011-09-26 14:00 2011-09-26 14:30 Purchase of LUBRICATION UNIT DMCLS 2500,   0.00 Single
411 OCFS 2011000132 27/08/2011 2011-09-20 14:30 2011-09-20 15:00 AMC OF RISOGRAPH M/C. MODEL RZ-220   0.00 Single
412 OCFS 2011000136 27/08/2011 2011-08-28 14:30 2011-08-28 15:00 METALLIC BUCKLE   0.00 Single
413 OPF 110110451 27/08/2011 2011-09-08 14:00 2011-09-08 14:30 (1) CORD NYLON BRAIDED SPECIAL WHITE   0.00 Single
414 OPF 110110452 27/08/2011 2011-09-08 14:00 2011-09-08 14:30 (1) BUCKLE STEEL38 MM BLACK E PAINT   0.00 Single
415 OPF 110110453 27/08/2011 2011-09-08 14:00 2011-09-08 14:30 (1) BUCKLE PLASTIC BLACK 38 MM   0.00 Single
416 OPF 110110454 27/08/2011 2011-09-08 14:00 2011-09-08 14:30 (1) BUCKLE PLASTIC BLACK 48 MM   0.00 Single
417 OPF 110110455 27/08/2011 2011-09-08 14:00 2011-09-08 14:30 (1) LINE PRINTER RIBBON   0.00 Single
418 OPF 110110456 27/08/2011 2011-09-08 14:00 2011-09-08 14:30 (1) TRANSFER TABLE TROLLY   0.00 Single
419 OPF 110110457 27/08/2011 2011-09-08 14:00 2011-09-08 14:30 (1) ELECT.SAFETY SHOES S-6 (2) ELECT.SAFETY SHOES S-7 (3) ELECT.SAFETY SHOES S-8 (4) ELECT.SAFETY SHOES S-9   0.00 Single
420 OPF 110110458 27/08/2011 2011-09-08 14:00 2011-09-08 14:30 (1) CEILING FAN SIZE 1400 MM SWEEP.   0.00 Single
421 OFK 11CST-0602 27/08/2011 2011-09-13 14:30 2011-09-13 13:00 ADDITIVE LINER DRG.ARDE-1716/DET-7   0.00 Single
422 OFK 11CST-0603 27/08/2011 2011-09-20 14:30 2011-09-20 13:00 COPPER BUS BAR 100X10MM BS2870 ET   0.00 Single
423 OFK 11CST-0604 27/08/2011 2011-09-20 14:30 2011-09-20 13:00 RECOVERY BOX 30FT LONG DRG.NO.PR157   0.00 Single
424 OFDUN 0509-11 27/08/2011 2011-09-16 00:00 2011-09-16 00:00 BRASS ROD 16.MM.DIA,BRASS ROD 19 MM DIA   0.00 Single
425 OFDUN 0510-11 27/08/2011 2011-09-16 00:00 2011-09-16 00:00 CR.NI.STEEL ROD 32MM DIA,M.S.ROD 5/8" DIA,CARBON STEEL ROD 35 MM C-30,CARBON ST. ROD 40MM(1-5/8"DIA)   0.00 Single
426 OFDUN 0511-11 27/08/2011 2011-09-16 00:00 2011-09-16 00:00 BRASS ROD 48 MM DIA.   0.00 Single
427 OFDUN 0512-11 27/08/2011 2011-09-16 00:00 2011-09-16 00:00 NOSE PAD DRG NO.2023/56,BATTERY HOUSING IRDE-2023/48,ADAPTER(WASHER) IRDE-2048/138,LAMP HOLDER C 11-   0.00 Single
428 OFDUN 0513-11 27/08/2011 2011-09-20 00:00 2011-09-20 00:00 H.T.BRASS FLAT 19MMX22MM W.   0.00 Single
429 OFDUN 0514-11 27/08/2011 2011-09-20 00:00 2011-09-20 00:00 RUBBER SLIPPER IN VARIOUS SIZE   0.00 Single
430 OFDUN 0515-11 27/08/2011 2011-09-20 00:00 2011-09-20 00:00 ELECT.INSULATED SYN.MAT OF   0.00 Single
431 MPF 3170102 27/08/2011 2011-09-23 14:30 2011-09-23 14:30 PNEU CYL DA FESTO DSN-16-10-PA; CYL TRUNION MOUNTG FESTO DSN-16-PA.; DISTRIBUTOR BLOCK FESTO-6704;   0.00 Single
432 MPF 3170103 27/08/2011 2011-10-11 14:30 2011-10-11 14:30 CALI.GAU.LOW MTSK-292-0061-DW-1025M; CALI.GAU.HIG.MTSK-292-0062-DW-1026M;   0.00 Single
433 MPF 3170104 27/08/2011 2011-09-23 14:30 2011-09-23 14:30 SAFETY AIR GUN FESTO PART NO 35528; PLASTIC TUBING MAKE:FESTO 159668; PLASTIC TUBING CODE:159664 FESTOOR;   0.00 Single
434 MPF 3170105 27/08/2011 2011-09-27 14:30 2011-09-27 14:30 CENTER SHAFT MTSK-207-4150-11; GEAR 90 TEETH,MTSK-207-2102-12; DISTRIBUTION WHEEL,MTSK-292-2104-12;   0.00 Single
435 MPF 3170106 27/08/2011 2011-09-27 14:30 2011-09-27 14:30 LOWER GUIDING SHAFT MTSK-207-4110-1; ROLLER SUPPORT MTSK-276-4106-13; ROLLER SUPPORT MTSK-276-4135-13; UPPRER GAUGING SHAFT MTSK-207-4201-;   0.00 Single
436 MPF 3170107 27/08/2011 2011-09-27 14:30 2011-09-27 14:30 GUIDE BUSE MTSK-207-4117-14; GUIDE BLOCK MTSK 207-8202-12; CHUTE HOLDER TO MTSK-292-5014-12.;   0.00 Single
437 MPF 3170108 27/08/2011 2011-09-27 14:30 2011-09-27 14:30 SPIRAL PLASTIC TUBE FESTO 19796; PLASTIC TUBING FESTO-159670; PLASTIC TUBING PUN-8X1.25 FESTO-159; QUICK STAR PUSH IN FITTING FESTO-15; PLUG 1/2"BSP FESTO 3571 B.1/2;   0.00 Single
438 MPF 3170109 27/08/2011 2011-09-30 14:30 2011-09-30 14:30 DEEP GROOVE BALL BEARING:75X115X20; SINGLE ROW DEEP GROOVE BALL BEARING; SELF ALIGNING BALL BEARING SKF1212E;   0.00 Single
439 MPF 3170110 27/08/2011 2011-09-30 14:30 2011-09-30 14:30 TRACK ROLLER 19X6X12 INA NATR-6 PP; TRACK ROLLER INA CAT NATR-10PP; BRG BALL SRDG SKF 6207ZZ; BRG BALL SRDG BEARING SKF 6205ZZ;   0.00 Single
440 MPF 3170111 27/08/2011 2011-09-30 14:30 2011-09-30 14:30 SPRING PLUNGERS DRG.MTSK-292-1063.; SHOULDER SCREW-DIA.8X37 LONG THREAD;   0.00 Single
441 OFBA 110376 27/08/2011 2011-09-22 14:30 2011-09-22 14:30 GAS NITROGEN   0.00 Single
442 OFBA 110377 27/08/2011 2011-09-29 14:30 2011-09-29 14:30 SPARE FOR ICE PRODUCING   0.00 Single
443 HVF 0410374 27/08/2011 2011-09-21 12:00 2011-09-21 15:00 SUPPORT , etc.   0.00 Single
444 HVF 0410375 27/08/2011 2011-09-21 12:00 2011-09-21 15:00 BRACKET ASSY , etc.   0.00 Single
445 HVF 0410376 27/08/2011 2011-09-21 12:00 2011-09-21 15:00 BRACKET , etc.   0.00 Single
446 HVF 0410377 27/08/2011 2011-09-21 12:00 2011-09-21 15:00 BAND ASSY , etc.   0.00 Single
447 HVF 0410379 27/08/2011 2011-10-06 12:00 2011-10-06 15:00 LH STORAGE BATTERY RACK ASSEMBLY DRAWING , etc.   0.00 Single
448 HVF 0510478 27/08/2011 2011-09-20 12:00 2011-09-20 15:00 WOODEN CASES FOR PACKING OF GEAR BOXES , etc.   0.00 Single
449 HVF 0612698 27/08/2011 2011-09-20 12:00 2011-09-20 15:00 IMPACT WRENCH PNEUMATIC 1" SQ. DRIVE , etc.   0.00 Single
450 HVF 0612699 27/08/2011 2011-10-18 12:00 2011-10-18 15:00 SPLINE RING GAUGE , etc.   0.00 Single
451 HVF 0612700 27/08/2011 2011-09-23 12:00 2011-09-23 15:00 MORSE TAPER DRILL SLEEVE , etc.   0.00 Single
452 HVF 0612701 27/08/2011 2011-10-18 12:00 2011-10-18 15:00 GRINDING WHEEL MOUNTED POINT , etc.   0.00 Single
453 HVF 0612702 27/08/2011 2011-09-23 12:00 2011-09-23 15:00 TAP HAND & SHORT , etc.   0.00 Single
454 HVF 0812029 27/08/2011 2011-09-30 12:00 2011-09-30 15:00 CALIBRATION OF WEIGH BRIDGE CAPACITY , etc.   0.00 Single
455 OFV 20110309 27/08/2011 1899-12-31 14:30 1899-12-31 15:00 SOLID CARBIDE DRILL ROUND SHANK,   0.00 Single
456 OFV 20110310 27/08/2011 1899-12-31 14:30 1899-12-31 15:00 THROUGH FEED WORK REST CENTRELESS,   0.00 Single
457 OFAJ FS2110077 27/08/2011 2011-09-06 14:00 2011-09-06 15:00 CAP (WITHOUT TREATMENT) TO FS-2498   0.00 Single
458 OFAJ RS2110148 27/08/2011 2011-09-27 14:00 2011-09-27 15:00 PLUNGER AS PER DRG.NO: MM/966B.   0.00 Single
459 OFAJ RS2110149 27/08/2011 2011-09-27 14:00 2011-09-27 15:00 AMC OF DMP & DJ PRINTERS   0.00 Single
460 OFAJ RS2110150 27/08/2011 2011-09-27 14:00 2011-09-27 15:00 QUICK RELEASE COUPLING DOUBLE VALVE, SHANKAR COUPLING   0.00 Single
461 OFCH 201100419 27/08/2011 2011-09-19 14:00 2011-09-19 14:30 TRANS.EMPTY SHELLS -155MM OFCH   0.00 Single
462 OEFHZ 20110115 27/08/2011 2011-09-20 00:00 2011-09-20 00:00 TIMBER CHIR BATTON 30X90X1450   3.00 Single
463 OEFHZ 20110116 27/08/2011 2011-09-20 00:00 2011-09-20 00:00 S&F OF FIRE DETECTION & ALARM SYS.   3.00 Single
464 OEFHZ 20110117 27/08/2011 2011-09-23 00:00 2011-09-23 00:00 SUPPLY&RETROFITTING OF800 AMP.4POLE   3.00 Single
465 VFJ 11AVA3221 27/08/2011 2011-09-29 14:00 2011-09-29 14:00 TUBELESS TYRE - RUN FLAT SYS,   0.00 Two
466 VFJ 11AVA3222 27/08/2011 2011-09-29 14:00 2011-09-29 14:00 SPLIT TYPE AIR CONDITIONING,   0.00 Single
467 VFJ 11AVA3223 27/08/2011 2011-09-29 14:00 2011-09-29 14:00 REAR GLASS (ARMY) MPV.,SIDE GLASS (ARMY) MPV.,CO-DRIVER SIDE GLASS (ARMY)MPV,DRIVER SIDE GLASS (ARMY) MPV,WIND SHIELD GLASS (ARMY) MPV.,   0.00 Single
468 VFJ 11AVA3224 27/08/2011 2011-09-29 14:00 2011-09-29 14:00 AUDIO VISUAL WARNING DEVICE,   0.00 Single
469 VFJ 11AVA3225 27/08/2011 2011-09-29 14:00 2011-09-29 14:00 FLAME SENSOR,   0.00 Two
470 OFPM C1271 27/08/2011 2011-09-13 14:00 2011-09-13 15:00 XEROX MACHINE   0.00 Single
471 OFPM L291 27/08/2011 2011-09-29 14:00 2011-09-29 15:00 BALL B-19MM GOST 3722-81 ETY-500 BALLB 12-200 SH-8 GOST3722-81 ETY 500-65 BALL b10-100 GOST 3722-81 AND ETY 500   0.00 Single
472 OFPM M181 27/08/2011 2011-09-13 14:00 2011-09-13 15:00 MIXER BLADE,MODEL:150-A.   0.00 Single
473 OFPM M191 27/08/2011 2011-09-13 14:00 2011-09-13 15:00 RUBBER SHEET FOR ROTARY TABLE DIA 2000 DUST BAGS SIZE:800X2000MM /SHOT BLAST MC   0.00 Single
474 OFPM V1311 27/08/2011 2011-11-30 14:00 2011-11-30 15:00 DRIVE PULLEY 765-78-CD828   0.00 Single
475 OFPM V1321 27/08/2011 2011-11-09 14:00 2011-11-09 15:00 SIGNAL LIGHT PANEL TO DRG.765-82-CD289 HOLDER LIGHT TO DRG.NO.765-95-CD116 LIGHT COVER GST-64-KL TY 16-535-472-80 MARKER LIGHT COVER 5DB.310.013-02 MARKER LIGHT COVER 5DB.310.013-01 ETC.   0.00 Single
476 OFPM V1331 27/08/2011 2011-11-30 14:00 2011-11-30 15:00 LUG N2K 4X 6.5 LIMIT SWITCH 675-41-SB141 SLAVE STARTING RECEPTACLE 765-82-Cb273 AUTOMATIC CIRCUIT BREAKER AZS-10 SWITCH BOARD FIRE CONTROL 902A ETC.   0.00 Single
477 HAPP 11/0231 27/08/2011 2011-09-30 14:00 2011-09-30 14:30 CABLE ELECTRIC,4 COREX1.5 SQMM,COPPER   0.00 Single
478 HAPP 11/0232 27/08/2011 2011-09-30 14:00 2011-09-30 14:30 ROTATING CENTRE-GAMET,REF NO.H 9000254   0.00 Single
479 HAPP 11/0233 27/08/2011 2011-10-04 14:00 2011-10-04 14:30 SPEAKER BOX 2X100W(200W)   0.00 Single
480 EFA 111354 27/08/2011 2011-09-23 00:00 2011-09-23 00:00 CLAMP   0.00 Single
481 EFA 111355 27/08/2011 2011-09-23 00:00 2011-09-23 00:00 SLEEVE   0.00 Single
482 EFA 111356 27/08/2011 2011-09-23 00:00 2011-09-23 00:00 GASKET   0.00 Single
483 EFA 111357 27/08/2011 2011-09-23 00:00 2011-09-23 00:00 T-PIECE-GASKET   0.00 Single
484 EFA 111358 27/08/2011 2011-09-23 00:00 2011-09-23 00:00 RING   0.00 Single
485 EFA 111359 27/08/2011 2011-09-23 00:00 2011-09-23 00:00 PIPE OF FIRST MAIN JOURNAL   0.00 Single
486 EFA 111360 27/08/2011 2011-10-07 00:00 2011-10-07 00:00 SEALING RING   0.00 Single
487 EFA 111361 27/08/2011 2011-09-23 00:00 2011-09-23 00:00 GASKET   0.00 Single
488 EFA 111362 27/08/2011 2011-09-23 00:00 2011-09-23 00:00 LOCATING PIN   0.00 Single
489 EFA 111363 27/08/2011 2011-09-23 00:00 2011-09-23 00:00 GASKET   0.00 Single
490 EFA 111364 27/08/2011 2011-09-23 00:00 2011-09-23 00:00 GASKET   0.00 Single
491 EFA 111365 27/08/2011 2011-09-23 00:00 2011-09-23 00:00 PLATE LOCK   0.00 Single
492 EFA 111366 27/08/2011 2011-09-23 00:00 2011-09-23 00:00 ANGLE PIECE   0.00 Single
493 EFA 111367 27/08/2011 2011-09-23 00:00 2011-09-23 00:00 BODY GASKET   0.00 Single
494 EFA 111368 27/08/2011 2011-09-23 00:00 2011-09-23 00:00 REDUCING VALVE SEAT   0.00 Single
495 EFA 111369 27/08/2011 2011-09-23 00:00 2011-09-23 00:00 SEAL   0.00 Single
496 EFA 111370 27/08/2011 2011-10-07 00:00 2011-10-07 00:00 STUD M 6 X 32   0.00 Single
497 EFA 111371 27/08/2011 2011-09-27 00:00 2011-09-27 00:00 WASHER   0.00 Single
498 EFA 111372 27/08/2011 2011-09-27 00:00 2011-09-27 00:00 LOCK WASHER 10   0.00 Single
499 EFA 111373 27/08/2011 2011-09-27 00:00 2011-09-27 00:00 GASKET   0.00 Single
500 EFA 111374 27/08/2011 2011-09-27 00:00 2011-09-27 00:00 LOCK WASHER   0.00 Single
501 EFA 111375 27/08/2011 2011-09-27 00:00 2011-09-27 00:00 LOCK WASHER   0.00 Single
502 EFA 111376 27/08/2011 2011-09-27 00:00 2011-09-27 00:00 GASKET   0.00 Single
503 EFA 111377 27/08/2011 2011-09-27 00:00 2011-09-27 00:00 STOPPER   0.00 Single
504 OLF 1106012422 27/08/2011 2011-09-26 15:00 2011-09-26 15:00 COVER,HOLDER,PLATE (*),SCREW DRIVER BLADE,SEALING CUP,SEPERATOR,SCREEN,SPRING,WASHER (*),CLAMP,PACKING,WASHER,WASHER   0.00 Single
505 OLF 1106042419 27/08/2011 2011-11-28 15:00 2011-11-28 15:00 PLATE,PLATE   0.00 Single
506 OLF 1106042420 27/08/2011 2011-10-10 15:00 2011-10-10 15:00 FLASH LAMP,ISP-600,POT. SP5-2V-1W-1.5 KOHM,POT. SP5-2V-1W-15 KOHM,POT. SP5-3-1 KOHM +/-5%,POTENTIOMETER PP3-41-68 OHMS,POTENTIOMETER PPML-0.1-4P,POTENTIOMETER SP5-3-1W-22K+-5%,RELAY TKE-54PD1,RELAY,RE   0.00 Single
507 OLF 1106042421 27/08/2011 2011-10-10 15:00 2011-10-10 15:00 WIRE MGTF-0.07,WIRE MGSH-0.05, GOST-10349-75,WIRE MGTFE-0.12,WIRE PETV-2-0.112(WINDING WIRE,WIRE PEVNKH-1-0.3,WIRE-PETV-2-0.2,WIRE-PETV-2-0.5,WIRE-PSHCH-1.0,GOST-9125,CAPACITOR K-75-40B-2KV-20MIC.F,M   0.00 Single
508 OFBOL 11120137 27/08/2011 2011-10-28 14:30 2011-10-28 14:30 3 PH,INDUCTION MOTOR, REF-IS 325:   12066.00 Single
509 GIF 0242111228 27/08/2011 2011-10-04 15:00 2011-10-04 15:00 GAUGES REQUIRED FOR NOSE ADAPTER BU   0.00 Single
510 GIF 0243111228 27/08/2011 2011-10-04 15:00 2011-10-04 15:00 GAUGES REQUIRED FOR BUSH OF BASE BO   0.00 Single
511 GIF 0244111228 27/08/2011 2011-10-04 15:00 2011-10-04 15:00 GAUGES REQUIRED FOR ADAPTER BUSH.   0.00 Single
512 GIF 0245111260 27/08/2011 2011-10-11 15:00 2011-10-11 15:00 DEPRESSED CENTER GRINDING WHEEL SIZ   0.00 Single
513 GIF 0246111256 27/08/2011 2011-10-25 15:00 2011-10-25 15:00 PRINTER CARTRIDGE FOR HP-1608   0.00 Single
514 GIF 0247111256 27/08/2011 2011-10-11 15:00 2011-10-11 15:00 CONTINUOUS STATIONERY, PART-I.   0.00 Single
515 GIF 0248111256 27/08/2011 2011-10-25 15:00 2011-10-25 15:00 BLANK CD-R, SPEED 52 X, CAPACITY 70 CARTRIDGE BLACK HP-850 FOR INKJET P CARTRIDGE RIBBON MAKE ABEE/PRODOT/T   0.00 Single
516 AFK 20110561 26/08/2011 2011-09-27 14:00 2011-09-27 14:30 H.PERFORMANCE COMPOSITE LINK V-BELT, H.P.COMPOSITE POWERTWIST + V-BELT ETC.   0.00 Single
517 AFK 20110562 26/08/2011 2011-09-27 14:00 2011-09-27 14:30 PVC INSULATED FLEXIBLE CABLE2.5SQMM   0.00 Single
518 AFK 20110563 26/08/2011 2011-09-27 14:00 2011-09-27 14:30 PIV CHAIN GEAR BOX 2A RATIO 6:1   0.00 Single
519 AFK 20110564 26/08/2011 2011-09-27 14:00 2011-09-27 14:30 GRINDING WHEEL300X50X110MM   0.00 Single
520 AFK 20110565 26/08/2011 2011-09-27 14:00 2011-09-27 14:30 HRC FUSE LINKS HF 63A, HRC FUSELINK,BOLTED,C.TAG,80AMPS,, HRC FUSELINK,BOLTED,C.TAG,160AMPS,, HRC FUSELINK,BOLTED,C.TAG,315AMPS,, HRC FUSELINK,BOLTED,OFFSET,80AMPS ETC.   0.00 Single
521 AFK 20110566 26/08/2011 2011-09-27 14:00 2011-09-27 14:30 'BUSH MAIN BEARING' SPARE PART, PACKING RINGS FOR GLANDS SIZE 55.8, 'SUCTION VALVE' FOR IST STAGE,SPARE, DELIVERY VALVE ASSEMBLY 1ST STAGE, SUCTION VALVE FOR IIND STAGE S.PART ETC.   0.00 Single
522 AFK 20110567 26/08/2011 2011-09-27 14:00 2011-09-27 14:30 PISTON RING FOR NEW WIRE EXTRUSION   0.00 Single
523 OEFC 20110438 26/08/2011 2011-09-19 13:30 2011-09-19 14:00 S.M. WIRE 6 MM   0.00 Single
524 OEFC 20110443 26/08/2011 2011-08-26 13:30 2011-08-26 14:00 TRANSPORTATION OF MADE UP STORES FROM O OEF KANPUR TO OF CHANDA.   0.00 Single
525 MSF 11TE230300 26/08/2011 2011-09-16 14:30 2011-09-16 14:30 HARD DISK(EXTERNAL) 500 GB. etc.   Single
526 MSF 11TE230301 26/08/2011 2011-09-16 14:30 2011-09-16 14:30 STANDARD SAMPLE OF LEADED BRASS FOR etc.   Single
527 GCF 110212GL56 26/08/2011 2011-10-04 10:30 2011-10-04 11:00 CU.ALLOY SHT.5MM THICKX 175MMX365MM CU OR CU ALL.STRIP4MM THIC.X30MM WI   0.00 Single
528 GCF 110213L756 26/08/2011 2011-10-11 10:30 2011-10-11 11:00 RING TO CAT/PT.NO.M2/BOF-6006876. "O" RING DRG 6117890-3. "O" RING DRG.NO. 6117890-2   0.00 Single
529 GCF 110214L756 26/08/2011 2011-10-11 10:30 2011-10-11 11:00 GREASE GUN-5049156. STUD WHEEL FLAT TO DRG.NO.6111022-2   0.00 Single
530 GCF 110215L756 26/08/2011 2011-10-11 10:30 2011-10-11 11:00 ST.SQR.75MM.BS:970-EN19B."T"COND.   0.00 Single
531 GCF 110216L756 26/08/2011 2011-10-11 10:30 2011-10-11 11:00 JOINT BALL REAR GRIP M2/1010-000626   0.00 Single
532 RFI DTB4470400 26/08/2011 2011-09-26 14:00 2011-09-26 14:30 Purchase of HALOGEN FREE CABLE, THERMOPLASTIC BUSBAR BOXES, THERMOPLASTIC BUSBAR BOXES,   0.00 Single
533 GSF 1100000624 26/08/2011 2011-09-12 00:00 2011-09-12 00:00 HEATING ELEMENT GLOBER SILICON CARBIDE,18MM DIA., ENERGY METER 40 AMPS, 3 PHASE, 4 WIRE,DIGITAL TYPE,   0.00 Single
534 GSF 1100000625 26/08/2011 2011-09-19 00:00 2011-09-19 00:00 CLEANING OF WATER STORAGE TANKS AT STE,NJRE,HOSP.,   0.00 Single
535 GSF 1100000626 26/08/2011 2011-09-22 00:00 2011-09-22 00:00 M.S.ANGLE AS PER IS SIZE:1-1/2INCH.X 1-1/2 INCH., MS FLAT STRIP AS PER IS SIZE:25MM WIDTH,6MM THK., M.S.ANGLE AS PER IS SIZE: 25MM X 25MM X 5MM THICK.,   0.00 Single
536 GSF 1100000631 26/08/2011 2011-09-19 00:00 2011-09-19 00:00 NOT AVAILABLE   0.00 Single
537 HEF TE11120119 26/08/2011 2011-09-15 00:00 2011-09-15 00:00 DRIVE SHAFTS S.S. 2010970051   0.00 Single
538 HEF TE11120120 26/08/2011 2011-09-15 00:00 2011-09-15 00:00 PAINT BLUE COLOUR ACID AL9910933027   0.00 Single
539 HEF TE11120121 26/08/2011 2011-09-02 00:00 2011-09-02 00:00 CENTRE PIECE DET 2 PT 6140600800   0.00 Single
540 OFKAT 2011000213 26/08/2011 2011-09-15 14:30 2011-09-15 14:30 AMC OF WEIGHING SCALE OKAT-25, AMC OF WEIGHING SCALE 1000KG., AMC OF WEIGHING SCALE OKAT-440, AMC&CAL.WEIGHSCALE 3000 KG., AMC&CAL WEIGH SCALES 5000KG, AMC CLBR. M/C 0KAT NO. 578, AMC&CALIB M/C OKAT41   0.00 Single
541 OFK 11CST-0596 26/08/2011 2011-09-20 14:30 2011-09-20 13:00 PHOSDRAW NO.2   0.00 Single
542 OFK 11CST-0598 26/08/2011 2011-09-16 14:30 2011-09-16 13:00 WATTMAN FILTER PAPER NO 01 58*68CM   0.00 Single
543 OFDUN 0508-11 26/08/2011 2011-09-16 00:00 2011-09-16 00:00 ANNUAL CONTRACT OF LAB.REAGENT   0.00 Single
544 SAF 3113000609 26/08/2011 2011-09-16 14:30 2011-09-16 15:00 DRILL S/C DIA7.8MM,   0.00 Single
545 SAF 3113000610 26/08/2011 2011-09-16 14:30 2011-09-16 15:00 SOLID CARBIDE HEAD FOR END MIL,HOLDER FOR 12MM DIA S/C HEAD.,   0.00 Single
546 SAF 3113000611 26/08/2011 2011-09-16 14:30 2011-09-16 15:00 THREE JAW POWER OPRATED HIGH S,   0.00 Single
547 MPF 3100435 26/08/2011 2011-09-13 14:30 2011-09-13 14:30 PAINT OLIVE GREEN (WEAPON) IS: 8982; PAINT APPLE GREEN ENAMEL IS-C-281; ASIAN APCOLITE PHIROZI PAINT(4LTR.C;   0.00 Single
548 MPF 3170094 26/08/2011 2011-09-20 14:30 2011-09-20 14:30 LOWER CHUTE-III TO MTSK-292-3130-43; CHUTE UPPER-II TO MTSK-292-3140-43.; CHUTE LOWER-II TO MTSK-292-3150-43.;   0.00 Single
549 MPF 3170095 26/08/2011 2011-09-20 14:30 2011-09-20 14:30 SHAFT TO DRG.NO.MTSK-292-2101-12.; WHEEL TO DRG.NO.MTSK-292-2301-12.; CAM UPPER TO DRG.MTSK-292-4102-12.;   0.00 Single
550 MPF 3170096 26/08/2011 2011-09-20 14:30 2011-09-20 14:30 LOWER PUNCH TO DRG.MTSK-292-4101-14; BOTTOM PLUG TO DRG.MTSK-292-4123-14; TOP PLUG TO DRG.MTSK-292-4124-14.;   0.00 Single
551 MPF 3170097 26/08/2011 2011-09-20 14:30 2011-09-20 14:30 GUIDE PLATE I-A & V-A.; GUIDE PLATE XII & IX.; GUIDE PLATE XI-B & VIII-B.;   0.00 Single
552 MPF 3170099 26/08/2011 2011-09-30 14:30 2011-09-30 14:30 HEXAGON NUT I DRG.MTSK-207-4116-14; GUIDE BAR LOWER MTSK-207-4126-14; STEPPED PIN-II(MOD)MTSK-207-4218-14; SENSING PLUG MTSK-276-4108-14;   0.00 Single
553 MPF 3170100 26/08/2011 2011-09-23 14:30 2011-09-23 14:30 LEG SUPPORT-MTSK-207-1300-13(5.56MM; BOX SMALL TO DRG : MTSK-276-3130-42; MAIN BOX TO DRG.NO.MTSK-292-3120-42; STAND TO DRG.NO.MTSK-292-5002-13.;   0.00 Single
554 MPF 3170101 26/08/2011 2011-09-23 14:30 2011-09-23 14:30 REDUCING NIPPLE FESTO-197633; QUICK STAR PUSH IN FITTING FESTO-19; PUSH IN/THREADED FITT.FESTO-153306; DOUBLE NIPPLE FESTO CODE-15 627; PUSH-IN/THREADED FITTING TYPE QSL-;   0.00 Single
555 OCFAV 250/11-12 26/08/2011 2011-09-12 14:30 2011-09-12 14:30 DIRECT ON LINE STARTER 25-30HP MOTO   6938.00 Single
556 OFBA 110373 26/08/2011 2011-09-15 14:30 2011-09-15 14:30 GAS FREON-22   25500.00 Single
557 OFBA 110374 26/08/2011 2011-09-29 14:30 2011-09-29 14:30 PIPE STEAM M.S.3/4   0.00 Single
558 OFBA 110375 26/08/2011 2011-09-29 14:30 2011-09-29 14:30 WIRE MESH G.I.3   0.00 Single
559 OCFC 2011LTE217 26/08/2011 2011-10-04 00:00 2011-10-04 00:00 ,PLUG SHRG20P4ESH8 ,PLUG FEMALE SHR32P10ESH1 ,PLUG FEMALE SSHR32P10ESH4 ,PLUG FEMALE SHR40P16ESH2   0.00 Single
560 OCFC 2011LTE218 26/08/2011 2011-09-20 00:00 2011-09-20 00:00 ,PLUG SHRG20P4ESH8 ,PLUG FEMALE SHR32P10ESH1 ,PLUG FEMALE SSHR32P10ESH4 ,PLUG FEMALE SHR40P16ESH2   0.00 Single
561 OCFC 2011LTE219 26/08/2011 2011-09-20 00:00 2011-09-20 00:00 ,PLUG SHRG20P4ESH8 ,PLUG FEMALE SHR32P10ESH1 ,PLUG FEMALE SSHR32P10ESH4 ,PLUG FEMALE SHR40P16ESH2   0.00 Single
562 OCFC 2011LTE220 26/08/2011 2011-09-20 00:00 2011-09-20 00:00 ,PLUG SHRG20P4ESH8 ,PLUG FEMALE SHR32P10ESH1 ,PLUG FEMALE SSHR32P10ESH4 ,PLUG FEMALE SHR40P16ESH2   0.00 Single
563 OCFC 2011LTE221 26/08/2011 2011-09-01 00:00 2011-09-01 00:00 ,PLUG SHRG20P4ESH8 ,PLUG FEMALE SHR32P10ESH1 ,PLUG FEMALE SSHR32P10ESH4 ,PLUG FEMALE SHR40P16ESH2   0.00 Single
564 OCFC 2011LTE222 26/08/2011 2011-10-04 00:00 2011-10-04 00:00 ,PLUG SHRG20P4ESH8 ,PLUG FEMALE SHR32P10ESH1 ,PLUG FEMALE SSHR32P10ESH4 ,PLUG FEMALE SHR40P16ESH2   0.00 Single
565 HVF 0510475 26/08/2011 2011-09-20 12:00 2011-09-20 15:00 COTTON YARN WASTE COLOURED FREE FROM NON , etc.   0.00 Single
566 HVF 0812027 26/08/2011 2011-10-11 12:00 2011-10-11 15:00 STARTER FULLY AUTOMATIC STATOR/ROTOR , etc.   0.00 Single
567 OFAJ IS2110142 26/08/2011 2011-10-04 14:00 2011-10-04 15:00 SUPPLY OF BASE FOR AL ALLOY LOGS AS, SUPPLY OF SUPPORT FOR AL ALLOY LOGS   0.00 Single
568 OFAJ RS2110146 26/08/2011 2011-09-20 14:00 2011-09-20 15:00 BALLUFF MAKE PROXIMITY SWITCH., BALLUFF PROX SW. BES 516-325-G-S4-C, EVALUATION UNIT BALLUFF 717346LS, INDUCTIVE PROXIMITY SWITCH BALLUF., LINEAR DISPLACEMENT TRANSDUCER, LINEAR DISPLACEMENT TRANSDUCE   0.00 Single
569 OFAJ TS2110064 26/08/2011 2011-09-06 14:00 2011-09-06 15:00 INNER FLEXIBLE SHAFT ASSY FOR GRIND   0.00 Single
570 OFT A110L48172 26/08/2011 2011-09-20 14:30 2011-09-20 15:00 PEDESTAL FAN CAST ALUMINIUM AL   0.00 Single
571 OFT A150R48170 26/08/2011 2011-10-13 14:30 2011-10-13 15:00 SERVICE OF HP DESIGNJET 500-42   0.00 Single
572 OFT A220H48166 26/08/2011 2011-09-22 14:30 2011-09-22 15:00 DRILL POINT GRINDER TABLE MOUN   0.00 Single
573 OFT A220N48169 26/08/2011 2011-09-15 14:30 2011-09-15 15:00 COOLANT LUBRICANT OIL   0.00 Single
574 OFT A221H48159 26/08/2011 2011-09-22 14:30 2011-09-22 15:00 COLLET FOR ISO 40 TAPER THROUG   0.00 Single
575 OFT A22UH48160 26/08/2011 2011-09-22 14:30 2011-09-22 15:00 COLLETS TO DIN 6499, SIZE ER25   0.00 Single
576 OFT A22UH48161 26/08/2011 2011-09-22 14:30 2011-09-22 15:00 COLLET CHUCK, COLLETS AND WREN   0.00 Single
577 OFT A22UH48162 26/08/2011 2011-09-22 14:30 2011-09-22 15:00 ER TOP CLAMPING NUT TO ISCAR   0.00 Single
578 OFT A22UH48163 26/08/2011 2011-09-22 14:30 2011-09-22 15:00 SET OF COLLETS TO DIN 6499 SIZ   0.00 Single
579 OFT A22UH48164 26/08/2011 2011-09-22 14:30 2011-09-22 15:00 ER TOP CLAMPING NUT TO ISCAR   0.00 Single
580 OFT A22UH48165 26/08/2011 2011-09-22 14:30 2011-09-22 15:00 COLLET FOR COLLET CHUCKS BT/40 ,COLLET FOR CDOLLET CHUCK 5 - 6 ,COLLETS FOR COLLET CHUCK 8-9 ,COLLETS COLLET CHUCK 9 - 10 MM ,COLLETS COLLET CHUCKS 12 - 13   0.00 Single
581 OFT A22UH48167 26/08/2011 2011-09-22 14:30 2011-09-22 15:00 INSERTS DNMG 150612 COATED   0.00 Single
582 OFT A331H48158 26/08/2011 2011-09-22 14:30 2011-09-22 15:00 GUN DRILL 9.70 MM DIA   0.00 Single
583 OFT A440R48171 26/08/2011 2011-09-15 14:30 2011-09-15 15:00 IMAGING DRUM FOR HP2550 COLOUR   0.00 Single
584 OFT A49UH48168 26/08/2011 2011-09-22 14:30 2011-09-22 15:00 2.5 HSS DRILL   0.00 Single
585 OFT A685H48157 26/08/2011 2011-09-22 14:30 2011-09-22 15:00 T.C.ROTARY BURRS 9.5 MM   0.00 Single
586 OEFHZ 20110113 26/08/2011 2011-09-16 00:00 2011-09-16 00:00 WHEEL BARROW 100 LTRS BIN   3.00 Single
587 OEFHZ 20110114 26/08/2011 2011-09-16 00:00 2011-09-16 00:00 SANTRO BIN 1000 LTRS   3.00 Single
588 VFJ 111WP0070 26/08/2011 2011-09-20 14:30 2011-09-20 14:30 ANGLE ASSY,   0.00 Single
589 VFJ 111WP0071 26/08/2011 2011-09-20 14:30 2011-09-20 14:30 BUSH,   0.00 Single
590 VFJ 111WP0072 26/08/2011 2011-09-20 14:30 2011-09-20 14:30 BRACKET CRANK ARM,   0.00 Single
591 VFJ 111WP0073 26/08/2011 2011-09-20 14:30 2011-09-20 14:30 SEAT BASE ASSEMBLY,   0.00 Single
592 VFJ 111WP0074 26/08/2011 2011-09-20 14:30 2011-09-20 14:30 GUARD ASSY (FRONT LIGHT MTG),   0.00 Single
593 VFJ 111WP0075 26/08/2011 2011-09-20 14:30 2011-09-20 14:30 GUARD ASSY FOR RR LIGHT,   0.00 Single
594 VFJ 111WP0076 26/08/2011 2011-09-20 14:30 2011-09-20 14:30 HINGE 765-50-2448,   0.00 Single
595 VFJ 112TA0216 26/08/2011 2011-08-26 14:30 2011-08-26 14:30 FORG. FOR GEAR INPUT HIGH BS-3,   0.00 Single
596 VFJ 112TP0068 26/08/2011 2011-09-29 14:30 2011-09-29 14:30 CASTING FOR BLANK U/RACE RING,   18958.00 Two
597 VFJ 112TP0069 26/08/2011 2011-09-29 14:30 2011-09-29 14:30 CASTING FOR COMMANDER RING,   18344.00 Two
598 VFJ 112TP0070 26/08/2011 2011-09-29 14:30 2011-09-29 14:30 SEGMENT (AL ALLOY),   11888.00 Two
599 VFJ 112TP0071 26/08/2011 2011-09-29 14:30 2011-09-29 14:30 CASTING FOR LOWER RACE RING,   11848.00 Two
600 VFJ 112TP0072 26/08/2011 2011-10-18 14:30 2011-10-18 14:30 U- BLOCK 95X135X165,   10670.00 Two
601 VFJ 112TP0073 26/08/2011 2011-10-18 14:30 2011-10-18 14:30 M.S. BLOCK 65X173X185,   9754.00 Two
602 VFJ 112TP0074 26/08/2011 2011-09-22 14:30 2011-09-22 14:30 CASTING FOR COMMANDER RING,   0.00 Single
603 VFJ 112TP0075 26/08/2011 2011-09-22 14:30 2011-09-22 14:30 CASTING FOR BLANK U/RACE RING,   0.00 Single
604 VFJ 113EV0019 26/08/2011 2011-09-01 14:30 2011-09-01 14:30 SQ TUBE 40 X40 X3MM THICK,   0.00 Single
605 VFJ 113EV0020 26/08/2011 2011-09-01 14:30 2011-09-01 14:30 RECTANGULAR M.S. TUBE,STEEL TUBE 38X2.5MM ST35.29,   0.00 Single
606 OFPM S1221 26/08/2011 2011-09-27 14:00 2011-09-27 15:00 TIG WELDING TORCH TO SUIT BTW 50-8   0.00 Single
607 OFPM S1231 26/08/2011 2011-09-27 14:00 2011-09-27 15:00 GASKET SHEET GASKET SHEET SIZE:1.5M X 1.6M X 1MM. GASKET SHEET 1.5MTR X 1.5MTR X 2MM GASKET SHEET: 1.5MTR X 1.5MTR X 0.5MM   0.00 Single
608 EFA 114058 26/08/2011 2011-09-28 00:00 2011-09-28 00:00 HIGH PRESSURE FUEL PIPELINE ASSY.; HIGH PRESSURE FUEL PIPELINE ASSY.; HIGH PRESSURE FUEL PIPE LINE ASSY.; HIGH PRESSURE FUEL PIPE LINE ASSY.;   0.00 Single
609 EFA 115147 26/08/2011 2011-09-20 00:00 2011-09-20 00:00 ANVIL FOR BORE GAGE   0.00 Single
610 EFA 115148 26/08/2011 2011-09-20 00:00 2011-09-20 00:00 FILE,HALF ROUND,BASTARD   0.00 Single
611 OLF 1106012416 26/08/2011 2011-09-26 15:00 2011-09-26 15:00 PAINT SYNTHETIC BLACK   0.00 Single
612 OLF 1106012417 26/08/2011 2011-09-26 15:00 2011-09-26 15:00 PAINT SY. ENAMEL SUPER WHITE   0.00 Single
613 OLF 1106012418 26/08/2011 2011-11-07 15:00 2011-11-07 15:00 LASER ROD (FINISHED)   0.00 Single
614 OFDR 2011000180 26/08/2011 2011-09-02 14:30 2011-09-02 15:00 1. ZIRCONIUM NICKEL ALLOY POWDERED   2.00 Single
615 OFDR 2011000181 26/08/2011 2011-09-20 14:30 2011-09-20 15:00 1. GENERATOR SMOKE ASSY(EMPTY)ORANGE3A   2.00 Single
616 AFK 20110556 25/08/2011 2011-09-27 14:00 2011-09-27 14:30 SPIRAL BEVEL GEAR SET,BSP3366,67,68   0.00 Single
617 AFK 20110557 25/08/2011 2011-09-27 14:00 2011-09-27 14:30 SPARE PART FOR MASHALL MAKE BOILER   0.00 Single
618 AFK 20110558 25/08/2011 2011-09-27 14:00 2011-09-27 14:30 8 LINES EXTENSION/LINE CARD   0.00 Single
619 AFK 20110559 25/08/2011 2011-09-16 14:00 2011-09-16 14:30 CASES WOOD PACKING 7A/L CIA/AMN/570   0.00 Single
620 AFK 20110560 25/08/2011 2011-09-16 14:00 2011-09-16 14:30 CONT P 17,ARDE 1910 DET 1TO5 ERU204   0.00 Single
621 AFK 20110560OP 25/08/2011 2011-09-16 14:00 2011-09-16 14:30 CONT P 17,ARDE 1910 DET 1TO5 ERU204   0.00 Single
622 OEFC 20110428 25/08/2011 2011-09-26 13:30 2011-09-26 14:00 NETTING MOSQUITO COTTON SQUARE MESH MOCKLENO WEAVE WHITE 109 CMS   0.00 Single
623 OEFC 20110430 25/08/2011 2011-09-19 13:30 2011-09-19 14:00 BRASS ROD 16MM DIA IN STRAIGHT LENGTH OF 1.25MTR AND ABOVE   13700.00 Single
624 MSF 11TE210298 25/08/2011 2011-09-21 14:30 2011-09-21 14:30 QUARTZ SAND FOR ESR (IS:1987-1968) etc.   Single
625 MSF 11TE210299 25/08/2011 2011-09-21 14:30 2011-09-21 14:30 CLAMP SHOE FOR HOLDING GUN BARREL etc.   Single
626 RFI DTB4270396 25/08/2011 2011-09-26 14:00 2011-09-26 14:30 Purchase of F-9116/1-S (EXPT),   0.00 Single
627 RFI DTB6280392 25/08/2011 2011-09-26 14:00 2011-09-26 14:30 Purchase of DELTA DRILL DIA.11MM - R415 5,   0.00 Single
628 RFI DTB6280393 25/08/2011 2011-09-26 14:00 2011-09-26 14:30 Purchase of SHOULDER MILLING CUTTER, INSERT SCREW, INSERT,   0.00 Single
629 RFI DTB6380394 25/08/2011 2011-09-26 14:00 2011-09-26 14:30 Purchase of SLOT MILL DIA 6.5,   0.00 Single
630 RFI DTB6380395 25/08/2011 2011-09-26 14:00 2011-09-26 14:30 Purchase of T-22/ALT, 6D C'CUT END MILL,   0.00 Single
631 RFI DTB6380397 25/08/2011 2011-09-26 14:00 2011-09-26 14:30 Purchase of D-17/ALT, 14D C'CUT END MILL,   0.00 Single
632 RFI DTB6890389 25/08/2011 2011-09-12 14:00 2011-09-12 14:30 Purchase of 18" REPLICA,   0.00 Single
633 RFI DTB6890390 25/08/2011 2011-09-12 14:00 2011-09-12 14:30 Purchase of 9" REPLICA,   0.00 Single
634 RFI DZB0490054 25/08/2011 2011-09-14 14:00 2011-09-14 14:30 Purchase of TRANSPORTATION,   0.00 Single
635 GSF 1100000614 25/08/2011 2011-09-12 00:00 2011-09-12 00:00 MOULDED CASE CIRCUIT BREAKER 100 AMP.TRIPPLE POLE,   0.00 Single
636 GSF 1100000615 25/08/2011 2011-09-15 00:00 2011-09-15 00:00 STEEL FORGE BLOCK 3 1/2"+1/4"X3 1/2"+1/4"X1 1/2",   0.00 Single
637 GSF 1100000616 25/08/2011 2011-10-20 00:00 2011-10-20 00:00 FORGING FOR CRANK(MK-II) TO GSF DRG NO F-2271.,   0.00 Single
638 GSF 1100000617 25/08/2011 2011-09-12 00:00 2011-09-12 00:00 SCREW STOP WEDGE MK-1 (ITEM-6) RGF-10819/99 F/C,   0.00 Single
639 GSF 1100000618 25/08/2011 2011-09-12 00:00 2011-09-12 00:00 BUSH FIRING HOLE (ITEM-4) RGF-10819/100 F/C,   0.00 Single
640 GSF 1100000619 25/08/2011 2011-09-12 00:00 2011-09-12 00:00 SPRING MAIN,MARK 2 TO DRG.NO.NAD.1OO2C/99/4,   0.00 Single
641 GSF 1100000620 25/08/2011 2011-09-12 00:00 2011-09-12 00:00 CRANK HANDLE TO DRG.CO-817,RGF-10819198 ITEM-1 F/C,   0.00 Single
642 GSF 1100000621 25/08/2011 2011-09-12 00:00 2011-09-12 00:00 SPACER (NAD-1025/6) F/C,   0.00 Single
643 GSF 1100000622 25/08/2011 2011-09-22 00:00 2011-09-22 00:00 STEEL TUBE 6 MM O/D X 3 MM I/D TO IS-2039,CDS-I.,   0.00 Single
644 OCFS 2011000133 25/08/2011 2011-08-27 14:30 2011-08-27 15:00 ELASTIC TAPE WHITE 40 MM   0.00 Single
645 OCFS 2011000134 25/08/2011 2011-08-27 14:30 2011-08-27 15:00 PL SLID FAS L SPL DUTY CE OG 20CMS   0.00 Single
646 OPF 110110446 25/08/2011 2011-09-12 14:00 2011-09-12 14:30 (1) FOOT PUMP FOR BOAT SILLINGER   0.00 Single
647 OPF 110110447 25/08/2011 2011-09-12 14:00 2011-09-12 14:30 (1) PLASTIC ZIP C/E MED.DUTY 70 CMS   0.00 Single
648 OFKAT 2011000179 25/08/2011 2011-08-25 14:30 2011-08-25 14:30 CARBON COLLECTOR OF CHARG.M/C   0.00 Single
649 OFKAT 2011000209 25/08/2011 2011-09-22 14:30 2011-09-22 14:30 WOOD WOOL FILTER PADS IN NYLON, PIANO TYPE SWITCH 5/6AMPS.250V   0.00 Single
650 OFKAT 2011000210 25/08/2011 2011-09-22 14:30 2011-09-22 14:30 TELEPHONE DP 30 PAIRS, TELEPHONE SET ELECTRONIC, KRONE MODULE 10 PAIRS, LINE PROTECTION MODULE, KRONE BASE STAND 10PAIR KRONE   0.00 Single
651 OFKAT 2011000211 25/08/2011 2011-09-22 14:30 2011-09-22 14:30 C.T.33KV FOR M.R.S   0.00 Single
652 OFKAT 2011000212 25/08/2011 2011-09-22 14:30 2011-09-22 14:30 SPRING RETURN PUSH BOTTON BL31, ROOM HEATER 1000 WATT, COOKING COIL 1250 WATT, IGNITOR FOR 250 WATT HPSV LAMP, IGNITOR FOR 150 WATT HPSV LAMP, IGNITOR FOR METALHALIDE LAMP70   0.00 Single
653 OFK 11CST-0594 25/08/2011 2011-09-20 14:30 2011-09-20 13:00 RRL N/PERCOLATING FLEX.F/F DELI/H.P   0.00 Single
654 OFK 11CST-0595 25/08/2011 2011-09-16 14:30 2011-09-16 13:00 ALMIRAH STEEL LARGEGODREJ FOURSHELF   0.00 Single
655 OFDUN 0504-11 25/08/2011 2011-09-16 00:00 2011-09-16 00:00 FOSECO D.S.2 TUBE,FOSECO D.S.3 TUBE   0.00 Single
656 OFDUN 0505-11 25/08/2011 2011-09-16 00:00 2011-09-16 00:00 SLOT.RAISED COUNT.SUNK HD.SCRE   0.00 Single
657 OFDUN 0506-11 25/08/2011 2011-09-16 00:00 2011-09-16 00:00 TESTING OF P/VESSEL ASPER"A"   0.00 Single
658 OFDUN 0507-11 25/08/2011 2011-09-16 00:00 2011-09-16 00:00 MICROMATIC F/FILTER610X610X300   0.00 Single
659 SAF 3113000602 25/08/2011 2011-09-16 14:30 2011-09-16 15:00 INDEXABLE END MILL DIA 20 MM.,   0.00 Single
660 SAF 3113000603 25/08/2011 2011-09-13 14:30 2011-09-13 15:00 LIQUID NITROGEN GAS.,   0.00 Single
661 SAF 3113000604 25/08/2011 2011-09-16 14:30 2011-09-16 15:00 CARBIDE TOOL SANDVIK NO.R216.2,   0.00 Single
662 SAF 3113000605 25/08/2011 2011-09-16 14:30 2011-09-16 15:00 BORING&PROFILING INSERT HORN N,   0.00 Single
663 SAF 3113000606 25/08/2011 2011-09-16 14:30 2011-09-16 15:00 T-SLOT CUTTER AS PER DRG NO SK,   0.00 Single
664 SAF 3113000607 25/08/2011 2011-09-16 14:30 2011-09-16 15:00 DRILL SOLID CARBIDE MICROGRAIN,   0.00 Single
665 SAF 3113000608 25/08/2011 2011-09-16 14:30 2011-09-16 15:00 SOLID CARBIDE END MILL DIA 16.,   0.00 Single
666 MPF 3100434 25/08/2011 2011-09-23 14:30 2011-09-23 14:30 COCK DISTRIBUTION;   0.00 Single
667 MPF 3170085 25/08/2011 2011-09-13 14:30 2011-09-13 14:30 SHAFT TO MTSK-292-2601-12.; GUIDE PLATE I-B & V-B.; GUIDE PLATE I-B & IV-B.;   0.00 Single
668 MPF 3170086 25/08/2011 2011-09-13 14:30 2011-09-13 14:30 GUIDE PLATE X-A & VII-A.; PLATE TO DRG.NO.MTSK-292-8101-14.;   0.00 Single
669 MPF 3170087 25/08/2011 2011-09-06 14:30 2011-09-06 14:30 DISCO VARIABLE SPEED DRIVE WITH HEL;   0.00 Single
670 MPF 3170088 25/08/2011 2011-09-13 14:30 2011-09-13 14:30 GUIDE PLATE XIII-A & XIV-A.; GUIDE PLATE XIII-B & XIV-B.;   0.00 Single
671 MPF 3170089 25/08/2011 2011-09-13 14:30 2011-09-13 14:30 GUIDE PLATE X-B & VII-B.; GUIDE PLATE XI-A & VIII-A.;   0.00 Single
672 MPF 3170090 25/08/2011 2011-09-16 14:30 2011-09-16 14:30 GUIDE PLATE XI-C & VIII-C.; GUIDE PLATE I-A & IV-A.;   0.00 Single
673 MPF 3170091 25/08/2011 2011-09-16 14:30 2011-09-16 14:30 TRACK I&IV DRG.NO.MTSK-292-1012-13.; TRACK XIII & XIV.;   0.00 Single
674 MPF 3170092 25/08/2011 2011-09-16 14:30 2011-09-16 14:30 TRACK II TO DRG.NO.MTSK-292-1004-13; TRACK XI-A & VIII-A.;   0.00 Single
675 MPF 3170093 25/08/2011 2011-09-16 14:30 2011-09-16 14:30 TRACK XI-B & VIII-B.; STAND TO DRG.NO.MTSK-292-2810-13.;   0.00 Single
676 OCFAV 247/11-12 25/08/2011 2011-09-19 14:30 2011-09-19 14:30 THREAD TRIMMING CAM ROLLER P.NO.CTT SCREW PART NO.DSCBJ002200 SUNSTAR WIPER SPRING P. NO.CWT-BH000300 SHUTTLE DRIVE P. NO.CHK-HP000200 THREAD TAKE -UP LEVER P.NO.ATH-SM00   0.00 Single
677 OCFAV 248/11-12 25/08/2011 2011-09-19 14:30 2011-09-19 14:30 MOVING MES P.NO.ATT-PS000900 FIXED MES P.NO.CTT-NB000200 FOR BSM HINGE SCREW P.NO.10S024S-306H FOR SPRING SHAFT SCREW NUT P.NO.DSN-AA0 NEEDLE BAR(KCR) 1201 P.NO.CNB-KA000   0.00 Single
678 OCFAV 249/11-12 25/08/2011 2011-09-14 14:30 2011-09-14 14:30 NIV SELF SEALING POLY BAG 38X27 CM   0.00 Single
679 HVF 0108192 25/08/2011 2011-09-08 12:00 2011-09-08 15:00 STIFFNER, LOWER SKIRT-1 & 2 , etc.   0.00 Single
680 HVF 0210591 25/08/2011 2011-09-15 12:00 2011-09-15 15:00 GASKET , etc.   0.00 Single
681 HVF 0210592 25/08/2011 2011-09-15 12:00 2011-09-15 15:00 PLATE , etc.   0.00 Single
682 HVF 0410370 25/08/2011 2011-09-21 12:00 2011-09-21 15:00 PIPE LINE , etc.   0.00 Single
683 HVF 0410371 25/08/2011 2011-09-21 12:00 2011-09-21 15:00 PIPELINE , etc.   0.00 Single
684 HVF 0410372 25/08/2011 2011-09-21 12:00 2011-09-21 15:00 BRACKET , etc.   0.00 Single
685 HVF 0612697 25/08/2011 2011-09-20 12:00 2011-09-20 15:00 END MILL CUTTER 63X78X27 MM , etc.   0.00 Single
686 HVF 0701749 25/08/2011 2011-09-08 12:00 2011-09-08 15:00 RELEASE RING III FRICTION CLUTCH , etc.   0.00 Single
687 HVF 0701750 25/08/2011 2011-09-29 12:00 2011-09-29 15:00 SHEET:8GOST 19903-74,40-TB1-M1 TO GOST: , etc.   0.00 Single
688 OFV 20110308 25/08/2011 1899-12-31 14:30 1899-12-31 15:00 ULTRASONIC WATER FLOW METER, CLAMP,   0.00 Single
689 OFAJ IS2110139 25/08/2011 2011-09-23 14:00 2011-09-23 15:00 ELECT.CUT RODE E-901 DIA 3.15MM DIA, ELECTRODE CUTRODS E-901 4MM DIA., SI BRONZE BRAZING A-21055 DIA3.15MM   0.00 Single
690 OFAJ IS2110140 25/08/2011 2011-09-23 14:00 2011-09-23 15:00 DRY CHEMICAL POWDER FOR A,B,C CLASS   0.00 Single
691 OFAJ IS2110141 25/08/2011 2011-09-23 14:00 2011-09-23 15:00 LAMINITING ROLL 100X685X0.037MM   0.00 Single
692 OFAJ RS2110144 25/08/2011 2011-09-27 14:00 2011-09-27 15:00 INDUS.IMMERSSION HEATER ., SILICON CARBIDE HEATING ROD 900 MM.   0.00 Single
693 OFAJ RS2110145 25/08/2011 2011-09-27 14:00 2011-09-27 15:00 COUPLING, EQUAL ELBOW   0.00 Single
694 OFT A100L48155 25/08/2011 2011-09-15 14:30 2011-09-15 15:00 ELBOW EQUAL G.I 2" ,G.I COUPLING 1". ,G.I COUPLING 2". ,UNION G.I 2" DIA BSP THREADED.   0.00 Single
695 OFT A100L48156 25/08/2011 2011-09-20 14:30 2011-09-20 15:00 M.S TEE EQUAL (G.I) 1" BSP ,M.S TEE EQUAL (G.I) 2" BSP ,GUN METAL GATE VALVE 3/4" ,GUN METAL GATE VALVE 1"   0.00 Single
696 OFT A110L48148 25/08/2011 2011-09-08 14:30 2011-09-08 15:00 THERMOCOUPLE STRAIGHT "K" TYPE   0.00 Single
697 OFT A110L48149 25/08/2011 2011-08-30 14:30 2011-08-30 15:00 4 WAY EXTENION BOARD 6 AMPS   0.00 Single
698 OFT A110L48150 25/08/2011 2011-09-13 14:30 2011-09-13 15:00 STAINLESS STEEL BOLT HEXAGONAL ,STAINLESS STEEL BOLT AND NUT H   0.00 Single
699 OFT A110L48151 25/08/2011 2011-10-18 14:30 2011-10-18 15:00 AC ADAPTOR FOR CORDLESS TELEPH ,AC ADAPTOR FOR CORDLESS TELEPH   0.00 Single
700 OFT A110L48152 25/08/2011 2011-09-20 14:30 2011-09-20 15:00 REGISTERED JACK 11 (RJ 11) MOD ,REGISTERED JACK 9 (RJ 9) MODUL ,SURFACE MOUNT/PCB MOUNT PUSH T ,SURFACE MOUNT/PCB MOUNT PUSH T   0.00 Single
701 OFT A110L48153 25/08/2011 2011-09-20 14:30 2011-09-20 15:00 TELEPHONE HANDSET COILED CORD, ,TELEPHONE LINE CORD, TWO CORE   0.00 Single
702 OFT A160L48154 25/08/2011 2011-10-18 14:30 2011-10-18 15:00 RE-CONDITIONING AND CALIBRATIO ,RE-CONDITIONING AND CALIBRATIO   0.00 Single
703 VFJ 111WP0066 25/08/2011 2011-09-20 14:30 2011-09-20 14:30 BUSH (RR DOOR LOCK),   0.00 Single
704 VFJ 111WP0067 25/08/2011 2011-09-20 14:30 2011-09-20 14:30 TORSION BAR 765-50-1352.,   0.00 Single
705 VFJ 111WP0068 25/08/2011 2011-09-20 14:30 2011-09-20 14:30 PIN (STG.SYSTEM),   0.00 Single
706 VFJ 111WP0069 25/08/2011 2011-09-20 14:30 2011-09-20 14:30 MUD GUARD ASSY,   0.00 Single
707 VFJ 112TA0215 25/08/2011 2011-09-29 14:00 2011-09-29 14:00 SPEEDO METER HSG.,   0.00 Two
708 FGK 310430 25/08/2011 2011-10-18 00:00 2011-10-18 00:00 CEMENTED BENCH SIZE: 5'FIT COM,   0.00 Single
709 OFPM H1091 25/08/2011 2011-09-29 14:00 2011-09-29 15:00 WASHER 240-01-23 GASKET 765-06-264 STRAPTO DRG NO:765-24-191 WASHER 700-31-762 WASHER 700-31-255 ETC.   0.00 Single
710 OFPM H1101 25/08/2011 2011-09-22 14:00 2011-09-22 15:00 WASHER 765-05-1007 GASKET 765-05-1009-02 LOCK RING 700-39-303 GASKET 700-40-98 GASKET 700-40-210 ETC.   0.00 Single
711 OFPM R701 25/08/2011 2011-09-16 14:00 2011-09-16 15:00 ST SH 1.5X1250X2500MM GR-DD IS:1079-88 ST.SHEET:1.5X1250X2500MM Gr.DD IS:513-86   0.00 Single
712 OFPM V1271 25/08/2011 2011-10-12 14:00 2011-10-12 15:00 BOLT 700-28-745-03 MULTIPURPOSE CLIP 672-54-cd2-08 BUSHING 765-78-1531 WASHER TO DRG.NO.675-95-133   0.00 Single
713 OFPM V1281 25/08/2011 2011-09-21 14:00 2011-09-21 15:00 STOWAGE RACK TO DRG No.675-67-CD12 STOWAGE RACK TO DRG No.675-67-Cb13   0.00 Single
714 OFPM V1291 25/08/2011 2011-09-14 14:00 2011-09-14 15:00 TURRET ELEC.EQPT(KIT-A) DRG 675-95-CD3   0.00 Single
715 OFPM V1301 25/08/2011 2011-09-21 14:00 2011-09-21 15:00 SEATS TO DRG.NO.675-60-CD2   0.00 Single
716 EFA 111353 25/08/2011 2011-09-23 00:00 2011-09-23 00:00 PACKING RING   0.00 Single
717 EFA 115144 25/08/2011 2011-09-20 00:00 2011-09-20 00:00 BRUSH-BRASS WIRE,WITH HANDLE   0.00 Single
718 EFA 115145 25/08/2011 2011-09-20 00:00 2011-09-20 00:00 HAND HACKSAW BLADE,HSS,300X12.5X.63   0.00 Single
719 EFA 115146 25/08/2011 2011-09-20 00:00 2011-09-20 00:00 DIAL VERNIER 0 TO 150 MM RANGE   0.00 Single
720 OFDR 2011000177 25/08/2011 2011-09-13 14:30 2011-09-13 15:00 1. CHROMIUM STEEL ROUND (EN-31)DIA-18 2. CHROMIUM STEEL ROUND (EN-1) 3. CHROMIUM STEEL ROD (EN-31) 28MM DIA   2.00 Single
721 OFDR 2011000178 25/08/2011 2011-09-16 14:30 2011-09-16 15:00 1. MOULDED PLASTIC CHAIR   2.00 Single
722 OFDR 2011000179 25/08/2011 2011-09-16 14:30 2011-09-16 15:00 1. PIN LOCKING FOR 81MM MK-II   3.00 Single
723 AFK 20110549 24/08/2011 2011-09-27 14:00 2011-09-27 14:30 501 BAR SOAP [HALF]   0.00 Single
724 AFK 20110550 24/08/2011 2011-09-27 14:00 2011-09-27 14:30 5MM PLUGGING   0.00 Single
725 OEFC 20110422 24/08/2011 2011-09-21 13:30 2011-09-21 14:00 THREAD SEWING NYLON HEAVY OG.   0.00 Single
726 OEFC 20110423 24/08/2011 2011-09-21 13:30 2011-09-21 14:00 COTTON SEWING THREAD 270 D TEX/9 KHAKI   0.00 Single
727 OEFC 20110424 24/08/2011 2011-09-26 13:30 2011-09-26 14:00 COTTON SEWING THREAD 590 DTEX/3 WHITE   0.00 Single
728 OEFC 20110425 24/08/2011 2011-08-24 13:30 2011-08-24 14:00 BUCKLE ALUMINIUM 57MM (MALE FOR BELT WAIST OF SYNT, BUCKLE ALUMINIUM 57MM (FEMALE) FOR BELT WAIST OF S, ,   0.00 Single
729 OEFC 20110426 24/08/2011 2011-09-26 13:30 2011-09-26 14:00 COTTON SEWING THREAD 590 DTEX/3 O.G.   0.00 Single
730 OEFC 20110427 24/08/2011 2011-09-26 13:30 2011-09-26 14:00 SANDOPAN DTC I LIQUID   0.00 Single
731 OEFC 20110429 24/08/2011 2011-08-24 13:30 2011-08-24 14:00 BRASS SHEET 3 MM THICK.   0.00 Single
732 MSF 11TE220294 24/08/2011 2011-09-21 14:30 2011-09-21 14:30 AIR BREAK CONTACTOR, 415 V, 50HZ etc.   Single
733 MSF 11TE220295 24/08/2011 2011-09-21 14:30 2011-09-21 14:30 THERMISTOR MOTOR PROTECTION SIRIUS SAFETY RELAY ELECTRONIC RELAY etc.   Single
734 MSF 11TE220296 24/08/2011 2011-09-21 14:30 2011-09-21 14:30 AIR BREAK CONTACTOR,175 AMPS 415V,3 etc.   Single
735 GCF 111205NC56 24/08/2011 2011-10-04 10:30 2011-10-04 11:00 HYLAM LAMINATED SHEET -3 MM THICK. HYLAM RD.63 MM DIA(2-1/2") HYLAM LAMINATED SHEET-1 MM.THICK. HYLAM LAMINATED SHEET-2 MM.   0.00 Single
736 GCF 111206NC56 24/08/2011 2011-10-04 10:30 2011-10-04 11:00 SOIENOID COIL, TYPE A 120 110V AC SOLENOID COIL, TYPE D24 24 DC FOR SOLENOID COIL, TYPE A 240 230V AC   0.00 Single
737 RFI ATB0600233 24/08/2011 2011-09-16 14:00 2011-09-16 14:30 Purchase of REBOUND SLIDE (DRG.NO.REV-106),   0.00 Single
738 RFI DTB4470385 24/08/2011 2011-09-26 14:00 2011-09-26 14:30 Purchase of MOUNTING LUMINAIRE CFL LAMPS,   0.00 Single
739 RFI DTB4490384 24/08/2011 2011-09-26 14:00 2011-09-26 14:30 Purchase of DIGITAL LUX METER, MODEL-LM120, RPM MEASURMENT METER,   0.00 Single
740 RFI DTB4490386 24/08/2011 2011-08-29 14:00 2011-08-29 14:30 Purchase of DECORATIVE POLE WITH FITTING,   0.00 Single
741 RFI DTB4490388 24/08/2011 2011-09-26 14:00 2011-09-26 14:30 Purchase of GROUND EMBEDED LIGHT FITTING,   0.00 Single
742 RFI DTB8280387 24/08/2011 2011-09-23 14:00 2011-09-23 14:30 Purchase of GRANITE SURFACE PLAT, MAGNETIC V BLOCK SET,   0.00 Single
743 OCFS 2011000131 24/08/2011 2011-08-25 14:30 2011-08-25 15:00 TRANPORT OF STORE TO 51 ASP DIGARU   0.00 Single
744 HEF TE11120118 24/08/2011 2011-09-15 00:00 2011-09-15 00:00 PLATFORM TROLLEY 2060486001   0.00 Single
745 HEF TR11120011 24/08/2011 2011-09-15 00:00 2011-09-15 00:00 TRANSPORTATION & COLLECTI2222220736   0.00 Single
746 OFK 11CST-0591 24/08/2011 2011-09-16 14:30 2011-09-16 13:00 DIGITAL MICROPROCESSOR BASED DTC,DIGITAL PROGMM ABLE TEMP.CONTROLLER etc.   0.00 Single
747 OFK 11CST-0592 24/08/2011 2011-09-16 14:30 2011-09-16 13:00 AIR CIRCULATOR HEAVY DUTY 3PHA,415V,AIR CIRCULATOR HEAVY SINGLE PH.200W etc.   0.00 Single
748 OFK 11CST-0593 24/08/2011 2011-09-16 14:30 2011-09-16 13:00 INDUSTRIAL PRESSURE TRANSDUCER   0.00 Single
749 OFDUN 0499-11 24/08/2011 2011-09-16 00:00 2011-09-16 00:00 HOUSING TO DRG.CWC/229/19   0.00 Single
750 OFDUN 0500-11 24/08/2011 2011-09-16 00:00 2011-09-16 00:00 HAND GLOVES COTTON KHAKI COLR   0.00 Single
751 OFDUN 0501-11 24/08/2011 2011-09-16 00:00 2011-09-16 00:00 SHATTER ALLOY CAST.ODD/C/826/1   0.00 Single
752 OFDUN 0502-11 24/08/2011 2011-09-16 00:00 2011-09-16 00:00 PERSPEX SHEET 2MMX4`X3`FEET   0.00 Single
753 OFDUN 0503-11 24/08/2011 2011-09-16 00:00 2011-09-16 00:00 CHAPPAL LEATHER BLACK WITH,LEATHER SHOE BLACK FOR GENTS,CHAPPAL LEATHER BLACK -LADIES.,LEATHER SHOE   0.00 Single
754 SAF 3113000600 24/08/2011 2011-09-16 14:30 2011-09-16 15:00 INVESTMENT CASTING TO DRG. NO.,   0.00 Single
755 MPF 3100433 24/08/2011 2011-08-30 14:30 2011-08-30 14:30 LABOUR CHARGES FOR PART M/C AS PER;   0.00 Single
756 OCFAV 243/11-12 24/08/2011 2011-09-19 14:30 2011-09-19 14:30 REGULATOR ELEC. FAN SWEEP 1400 MM   0.00 Single
757 OCFAV 244/11-12 24/08/2011 2011-09-19 14:30 2011-09-19 14:30 TENDER NOTE BOOK PASS OUT BOOK IAOF 1932(1OO SHEET   0.00 Single
758 OCFAV 245/11-12 24/08/2011 2011-09-19 14:30 2011-09-19 14:30 HARD BOARD 1830 X 1220 X 6 MM(6X4')   0.00 Single
759 OCFAV 246/11-12 24/08/2011 2011-09-19 14:30 2011-09-19 14:30 GLASS MARKING PENCIL WHITE "APSARA"   0.00 Single
760 OFBA 110364 24/08/2011 2011-09-29 14:30 2011-09-29 14:30 GLASS CRUCIRLE 62 CAP-30 ML   0.00 Single
761 OFBA 110365 24/08/2011 2011-09-29 14:30 2011-09-29 14:30 ELBOW GR.I SIZE 1/2"   0.00 Single
762 OFBA 110366 24/08/2011 2011-09-29 14:30 2011-09-29 14:30 REPAIRS TO M.S.BUFFER TANK   0.00 Single
763 OFBA 110367 24/08/2011 2011-09-29 14:30 2011-09-29 14:30 ELECTRODE AMOL SZ.10GAUGE(3.2)   0.00 Single
764 OFBA 110368 24/08/2011 2011-09-29 14:30 2011-09-29 14:30 CELLS ELECTRIC FOR TOURCH   0.00 Single
765 HVF 0210589 24/08/2011 2011-09-15 12:00 2011-09-15 15:00 RING , etc.   33531.00 Single
766 HVF 0210590 24/08/2011 2011-09-15 12:00 2011-09-15 15:00 CLAMP , etc.   193639.50 Single
767 HVF 0410367 24/08/2011 2011-10-12 12:00 2011-10-12 15:00 MOUNTING OF PIPE LINES FROM BLOWER TO , etc.   0.00 Single
768 HVF 0510474 24/08/2011 2011-09-20 12:00 2011-09-20 15:00 PAINT ENAMEL SMOKE GREY FOR GENERAL , etc.   0.00 Single
769 HVF 0612694 24/08/2011 2011-09-16 12:00 2011-09-16 15:00 TAP HAND & SHORT , etc.   0.00 Single
770 HVF 0612695 24/08/2011 2011-09-16 12:00 2011-09-16 15:00 ADAPTER FOR TORQUE WRENCH FOR TIGHTENING , etc.   0.00 Single
771 HVF 0612696 24/08/2011 2011-09-16 12:00 2011-09-16 15:00 MACHINE VICE PRECISION WITH SERRATED JAW , etc.   0.00 Single
772 OFAJ FS2110074 24/08/2011 2011-09-13 14:00 2011-09-13 15:00 CONV.OF BLANK SK-871 TO MOTOR TUBE   0.00 Single
773 OFAJ FS2110075 24/08/2011 2011-09-21 14:00 2011-09-21 15:00 STEEL BALL 3.5-200 TO CQA(A)/AMN/   0.00 Single
774 OFAJ IS2110137 24/08/2011 2011-10-28 14:00 2011-10-28 15:00 HIGH PURITY GAS 93%ARGON+5%CO2+2%02   0.00 Single
775 OFAJ RS2110142 24/08/2011 2011-10-19 14:00 2011-10-19 15:00 SP:GDM TURNMILL-POWER S./MONITORING, SP:GDM- POWER MODULE 20/40A, 1 AXIS, SP:GDM- POWER MODULE 30/60A, 2 AXIS, SP:GDM- POWER MODULE 8/16A, 2 AXIS, SP:GDM-POWER MODULE 40/80A, 1 AXIS   0.00 Single
776 OFAJ RS2110143 24/08/2011 2011-10-18 14:00 2011-10-18 15:00 PNEUMATIC MANIPULATOR.   0.00 Single
777 OFT A160R48147 24/08/2011 2011-09-13 14:30 2011-09-13 15:00 PLYWOOD WELL SEASONED   0.00 Single
778 OFT A556D89900 24/08/2011 2011-09-15 14:30 2011-09-15 15:00 C3003 LOCK PIN   0.00 Single
779 OFT A556D89901 24/08/2011 2011-09-15 14:30 2011-09-15 15:00 C3011 PIN STRAIGHT HEADLESS   0.00 Single
780 OFCH 201100418 24/08/2011 2011-10-17 14:00 2011-10-17 14:30 ACID ACETIC TO IS-695-1986   0.00 Single
781 VFJ 113ET3418 24/08/2011 2011-09-13 14:30 2011-09-13 14:30 SET OF WASHER(LPTA)CONSIST. OF,   0.00 Single
782 VFJ 11AVA3220 24/08/2011 2011-10-11 14:30 2011-10-11 14:30 SPLIT TYPE AIR CONDITIONING,   0.00 Single
783 FGK 310428 24/08/2011 2011-10-13 00:00 2011-10-13 00:00 SINUMERIK OPERATOR PANEL FRONT,   0.00 Single
784 OFPM H1041 24/08/2011 2011-11-17 14:00 2011-11-17 15:00 GASKET 765-33-56 GASKET 765-33-80   0.00 Single
785 OFPM H1051 24/08/2011 2011-09-22 14:00 2011-09-22 15:00 GASKET:765-05-1009 GASKET 700-31-753 COVER 765-33-15 GASKET 700-40-237-01 GASKET 700-40-123 ETC.   0.00 Single
786 OFPM H1061 24/08/2011 2011-09-22 14:00 2011-09-22 15:00 GASKET 765-38-186 GASKET TO DRG.NO.765-38-241 RING 700-42-24 PLUG 730-12-327 EAR 765-17-396 ETC.   0.00 Single
787 OFPM H1071 24/08/2011 2011-11-17 14:00 2011-11-17 15:00 BUSHING 765-56-30 WASHER 765-56-31 LEVER HAED TO DRG NO. 701-119-11   0.00 Single
788 OFPM H1081 24/08/2011 2011-09-22 14:00 2011-09-22 15:00 NUT/700-33-47 BRACE 765-06-132 SCREW SET 700-35-271 PLUG 700-37-315 SHAFT 700-47-201 ETC.   0.00 Single
789 OFPM R681 24/08/2011 2011-09-23 14:00 2011-09-23 15:00 AL.ALLOY RD DIA 60X500 TO 1000MM   0.00 Single
790 OFPM R691 24/08/2011 2011-10-07 14:00 2011-10-07 15:00 AL SH 2X1250X2500MM SP:AMG6bM GOST:21631   0.00 Single
791 OFPM V1261 24/08/2011 2011-11-23 14:00 2011-11-23 15:00 SET OF ITEMS FOR 765-78-CD6 (SPARES) ROLLER ASSEMBLY DRIVER 765-78-CD659   0.00 Single
792 EFA 111350 24/08/2011 2011-09-20 00:00 2011-09-20 00:00 NUT   0.00 Single
793 EFA 111351 24/08/2011 2011-09-20 00:00 2011-09-20 00:00 NUT M8   0.00 Single
794 EFA 111352 24/08/2011 2011-09-20 00:00 2011-09-20 00:00 PISTON SEALING RING   0.00 Single
795 EFA 118039 24/08/2011 2011-09-27 00:00 2011-09-27 00:00 OPTIMIZER OPD2 18" (MAKE:GODREJ)   0.00 Single
796 OLF 1106012413 24/08/2011 2011-09-23 15:00 2011-09-23 15:00 BEVEL GEAR WHEEL,BEVEL GEAR WHEEL,BEVEL GEAR WHEEL,SPRING RING,BUSH,FLANGE,BASE,CAP   0.00 Single
797 OLF 1106012414 24/08/2011 2011-09-23 15:00 2011-09-23 15:00 TAPE   0.00 Single
798 OLF 1106012415 24/08/2011 2011-10-07 15:00 2011-10-07 15:00 PVC SLEEVE 2.5X0.4,SLEEVE,PVC, 3.31TV50- 2.0X0.4,SLEEVE PVC 3.31TV40-12.0X0.7,SLEEVE PVC 3.31TV50-1.0X0.4,SLEEVE PVC,3.31TV-40-1.0X0.4MM,SLEEVE TEFLON,F-4DE-2.0X0.4 MM,SLEEVE,PVC 3.31TV50-1.5X0.4,SLEE   0.00 Single
799 OFDR 2011000175 24/08/2011 2011-09-13 14:30 2011-09-13 15:00 1. FEVICOL (IN 5 KG CONTR.)   2.00 Single
800 OFDR 2011000176 24/08/2011 2011-09-06 14:30 2011-09-06 15:00 1. WASHER STAR 32.512MM 1-1/2"R/G/Y   2.00 Single
801 MSF 11TE220292 23/08/2011 2011-09-16 14:30 2011-09-16 14:30 CLUTCH PLATE (NCC/222, ITEM NO CLUTCH PLATE (NCC/222, ITEM NO etc.   Single
802 MSF 11TE220293 23/08/2011 2011-09-16 14:30 2011-09-16 14:30 WORM WORM WHEEL & SHAFT FOR PEELING etc.   Single
803 GCF 110210LG56 23/08/2011 2011-08-23 10:30 2011-08-23 11:00 M/CNG OF SPANER RING DOUBLE ENDED(T M/CNG OF SOCKET SPANNER TOMMY BAR MACHINING OF PIN LOCK DRG.ILG-1917. M/CING OF BUSH TIE ROD ILG-1210   0.00 Single
804 GCF 110211LG56 23/08/2011 2011-08-23 10:30 2011-08-23 11:00 MACHINING OF SCREW DRG.NO.ILG-1464.   0.00 Single
805 GCF 111203NC56 23/08/2011 2011-09-27 10:30 2011-09-27 11:00 PVC PIPE OF 25MMX2MM(WALL THICKNESS   0.00 Single
806 GCF 111204NC56 23/08/2011 2011-10-04 10:30 2011-10-04 11:00 LASER TONER CARTRIGE FOR HP PRINTER BLACK TONER CARTRIDGE 88A ONE SET OF 5 CARTRIDGES TONER CARTRIDGE FOR LASER PRINTER   0.00 Single
807 RFI DTB3070382 23/08/2011 2011-09-23 14:00 2011-09-23 14:30 Purchase of FLINT PAPER/SAND PAPER, PAPER WATER PROOF,ISS GRIT 180,   0.00 Single
808 RFI DTB3180379 23/08/2011 2011-09-26 14:00 2011-09-26 14:30 Purchase of SHIM, INSERT SCREW., ALLENKEY (TORX), HOLDER T-MAX - SVJBR 2525 M16, TOOL-HOLDER NO.SVJBL 2525 M16., SHIM SCREW - 5512-090-01,   0.00 Single
809 RFI DTB3180380 23/08/2011 2011-09-26 14:00 2011-09-26 14:30 Purchase of COLLET CHUCK ADAPTOR ER-50, AA SERIES HIGHLY PRECISE COLLE, AA SERIES HIGHLY PRECISE COLLE,   0.00 Single
810 RFI DTB3480383 23/08/2011 2011-09-26 14:00 2011-09-26 14:30 Purchase of SOLID MASTER ENDMILL, S.C.ENDMILL,   0.00 Single
811 RFI DTB8280381 23/08/2011 2011-09-23 14:00 2011-09-23 14:30 Purchase of DIGIMATIC MICROMETER, DIGIMATIC HEIGHT GAUGE, DIAL BORE GAUGE 18-35MM, VERNIER CALIPER.,   0.00 Single
812 CFA 11PVTE0343 23/08/2011 2011-09-16 13:00 2011-09-16 14:00 GLASS PANES 600 X 300 X 3 MM   0.00 Single
813 CFA 11PVTE0344 23/08/2011 2011-09-16 13:00 2011-09-16 14:00 CABLE PVC 1CORE FLXI 1.5 SQMM   0.00 Single
814 GSF 1100000613 23/08/2011 2011-09-15 00:00 2011-09-15 00:00 SET OF PARTS FOR ERECTION FOR AK-630M GUN WITH ALT,   0.00 Single
815 OFKAT 2011000208 23/08/2011 2011-09-20 14:30 2011-09-20 14:30 STEEL WIRE ROPE 8MM DIA.   0.00 Single
816 OFK 11CST-0589 23/08/2011 2011-09-16 14:30 2011-09-16 13:00 ARALDITE CY-232,HARDNER-951 OF CIBA etc.   0.00 Single
817 OFDUN 0497-11 23/08/2011 2011-09-16 00:00 2011-09-16 00:00 LENS POLISH.COMP.CEROX TM-1663   0.00 Single
818 MPF 3100431 23/08/2011 2011-08-23 14:30 2011-08-23 14:30 PIPE LINE 175-45-010-SB;   0.00 Single
819 MPF 3100432 23/08/2011 2011-09-20 14:30 2011-09-20 14:30 FORGING FOR PRESSURE RING;   0.00 Single
820 MPF 3170082 23/08/2011 2011-09-09 14:30 2011-09-09 14:30 BRAKE SHOE,DRG.NO.91.205.0131.3.; HANDLE,DRG.NO.91-205-0055-4.; BREAK SHOE DRG.NO.91-205-0130-3.;   0.00 Single
821 MPF 3170083 23/08/2011 2011-09-09 14:30 2011-09-09 14:30 CASE CARRIER DRGNO:MTSK-207-4214-12; BRACKET MTSK-276-8501-13; BUSH,DRG.NO.91-205-0018-3.;   0.00 Single
822 OCFAV 241/11-12 23/08/2011 2011-09-14 14:30 2011-09-14 14:30 HDPE DOT COATED INT. FAB. 90CM COLR   7500.00 Single
823 OCFAV 242/11-12 23/08/2011 2011-09-19 14:30 2011-09-19 14:30 GODREJ FORU DOOR BOOK CASE, TOP   0.00 Single
824 OFBA 110357 23/08/2011 2011-09-27 14:30 2011-09-27 14:30 ALLUMINIUM STRIP 25MMX3MM   0.00 Single
825 OFBA 110358 23/08/2011 2011-09-27 14:30 2011-09-27 14:30 MICRO AMMETER   0.00 Single
826 OFBA 110359 23/08/2011 2011-09-27 14:30 2011-09-27 14:30 ALUMINIUM IMPELLAR FOR AIR   0.00 Single
827 OFBA 110360 23/08/2011 2011-09-27 14:30 2011-09-27 14:30 BRASS STOP COCK 1/2"   0.00 Single
828 OFBA 110361 23/08/2011 2011-09-27 14:30 2011-09-27 14:30 CUTTRODE SIZE-4 MM   0.00 Single
829 OFBA 110362 23/08/2011 2011-09-27 14:30 2011-09-27 14:30 BROOMES COCONUT   0.00 Single
830 OFBA 110363 23/08/2011 2011-09-27 14:30 2011-09-27 14:30 ELECTRODE S.S. STAINROD 3.2 MM   0.00 Single
831 HVF 0108189 23/08/2011 2011-09-08 12:00 2011-09-08 15:00 TANK BODY WITH COILED PIPE , etc.   0.00 Single
832 HVF 0108190 23/08/2011 2011-09-08 12:00 2011-09-08 15:00 CLAMPING DEVICE , etc.   0.00 Single
833 HVF 0108191 23/08/2011 2011-09-08 12:00 2011-09-08 15:00 PIPE LINE , etc.   0.00 Single
834 HVF 0410361 23/08/2011 2011-09-14 12:00 2011-09-14 15:00 CLIP ASSY , etc.   0.00 Single
835 HVF 0410362 23/08/2011 2011-09-14 12:00 2011-09-14 15:00 CLIP , etc.   0.00 Single
836 HVF 0410363 23/08/2011 2011-09-14 12:00 2011-09-14 15:00 SEAT COVER , etc.   0.00 Single
837 HVF 0410364 23/08/2011 2011-09-14 12:00 2011-09-14 15:00 BEAM , etc.   0.00 Single
838 HVF 0410365 23/08/2011 2011-09-28 12:00 2011-09-28 15:00 MOUNTING OF OVER PRESSURE DEVICE ASSY , etc.   0.00 Single
839 HVF 0510473 23/08/2011 2011-09-16 12:00 2011-09-16 15:00 AIR CIRCULATOR FAN , etc.   0.00 Single
840 OFAJ RS2110141 23/08/2011 2011-09-20 14:00 2011-09-20 15:00 PORCELAIN INSULATOR EM-411   0.00 Single
841 OFT A556D89898 23/08/2011 2011-09-15 14:30 2011-09-15 15:00 PIN, LOCK C2029 (OFT MATERIAL)   0.00 Single
842 OFT A560L48146 23/08/2011 2011-08-30 14:30 2011-08-30 15:00 AXIAL RADIAL ROLLER BEARING   0.00 Single
843 OFCH 201100406 23/08/2011 2011-09-12 14:00 2011-09-12 14:30 PREFILL & EXHAUST VALVE IZ-116 PRESSURE SWITCH EQUI.TO ACW2 D.C.VALVE-DC4V-32-AUD OR 4WE60 CARTRIDGE COVER - CVC25810 BRAKE VALVE - Z462 AXIAL PLUNGER PUMP - MODEL A6 AXIAL PLUNGER PUMP - MODEL AIV D   0.00 Single
844 OFCH 201100407 23/08/2011 2011-09-12 14:00 2011-09-12 14:30 SUCTION STRAINER - 0116010300 OIL FILTER - 0117010100 PRESSURE RELIEF VALVE -DPRH 10 PRESSURE GAUGE - 0118010200 CARTRIDGE VALVE - CV16PD010 CARTRIDGE VALVE - CV16KA010 CARTRIDGE VALVE - CV25KD010 SE   0.00 Single
845 OFCH 201100408 23/08/2011 2011-09-19 14:00 2011-09-19 14:30 A.C.CORRUGATED SHEET 1.75X1.05 A C SHEET CORRUGATED 2.5X1.05M A.C.CORRUGATED SHEET 3X1.05M X AC CORRUGATED SHEET 2X1.05MX6M   0.00 Single
846 OFCH 201100409 23/08/2011 2011-09-19 14:00 2011-09-19 14:30 FLP.WP/WALL GLASS FIXTURE 200/   0.00 Single
847 OFCH 201100410 23/08/2011 2011-09-19 14:00 2011-09-19 14:30 LOAD CEL 1 GM TO 1 KG FOR WEIG   0.00 Single
848 OFCH 201100411 23/08/2011 2011-09-19 14:00 2011-09-19 14:30 LOAD CELL CAPACITY 300KG MOTHER BOARD FOR ELECTRONIC WE   0.00 Single
849 OFCH 201100412 23/08/2011 2011-09-19 14:00 2011-09-19 14:30 TUBE 12/11.2X28TRACTOR TUBE 10.00X20 T.TRUCK/ESCORT C TUBE 7.00X16-DR FOR MT VEH TUBE 8.25X20 FOR MT VEH TUBE 9.00X20 FOR MT TRUCK TUBE - 165/80-R-15 (RADIAL TYR   0.00 Single
850 OFCH 201100413 23/08/2011 2011-09-19 14:00 2011-09-19 14:30 KIT FRONT LINING SET FOR TATA CLUTCH MASTER CYL.ASSY.TATA 16 WATER PUMP - TATA 1613 BELT TENSIONER - TATA 1613 REAR VIEW MIRROR ASSY. TATA 16   0.00 Single
851 OFCH 201100414 23/08/2011 2011-09-19 14:00 2011-09-19 14:30 MILD STEEL ANGLE RACK 14 GAUGE   0.00 Single
852 OFCH 201100415 23/08/2011 2011-09-19 14:00 2011-09-19 14:30 FIXTURE FOR TESTING WITH JOLTI   0.00 Single
853 OFCH 201100416 23/08/2011 2011-09-19 14:00 2011-09-19 14:30 FIXTURE FOR THROWING ASSEMBLY   0.00 Single
854 OFCH 201100417 23/08/2011 2011-09-26 14:00 2011-09-26 14:30 CENTRAL BAR 130MM CARGO AMMN.   0.00 Single
855 VFJ 114G7047 23/08/2011 2011-09-22 14:00 2011-09-22 14:00 DAILY REMOVAL OF DEBERIS IRON,   0.00 Single
856 VFJ 11AVA3219 23/08/2011 2011-09-13 14:30 2011-09-13 14:30 3/8" HOSE CON.ON SWC TO DAT,HOSE CAC INLET,   0.00 Single
857 FGK 310427 23/08/2011 2011-08-25 00:00 2011-08-25 00:00 TRANSPORTATION FGK TO CPE ITAR,   0.00 Single
858 OFPM C1241 23/08/2011 2011-09-06 14:00 2011-09-06 15:00 GREASE LITHOL 24 XG-279   0.00 Single
859 OFPM C1251 23/08/2011 2011-09-06 14:00 2011-09-06 15:00 GREASE CIATIM 201 IN A BARREL OF 182 KG   0.00 Single
860 OFPM C1261 23/08/2011 2011-09-20 14:00 2011-09-20 15:00 MECATEC EXPRESS PUTTY OF L & T MAKE   0.00 Single
861 OFPM H1021 23/08/2011 2011-08-25 14:00 2011-08-25 15:00 675-73-383 COVER   0.00 Single
862 OFPM H1031 23/08/2011 2011-11-17 14:00 2011-11-17 15:00 WIRE ASSY. 675-97-CD647   0.00 Single
863 OFPM R661 23/08/2011 2011-09-16 14:00 2011-09-16 15:00 M.S.ANGLE TO 3X25X25MM IN STD LGTH. ST.ANGLE.3X40X40MM, IS:808 ST.ANGLE 5X50X50X6000MM TO GR-ISA   0.00 Single
864 OFPM R671 23/08/2011 2011-09-16 14:00 2011-09-16 15:00 ST.RD.BL.BAR 102+6MMX1000TO2000MM IS9550 ST.SQ BAR TO 19X19MM Gr:45C8 IS:9550-80   0.00 Single
865 OFPM T1491 23/08/2011 2011-09-20 14:00 2011-09-20 15:00 EMERY CLOTH GRADE 160 POLISHING PAPER GRADE '00' 2/0 EMERY CLOTH GRADE:150 SZ:230 X 280 MM EMERY CLOTH 230X280MM GRADE : 100 EMERY CLOTH GRADE: 60 SZ:230 X 280 MM ETC.   0.00 Single
866 OFPM T1501 23/08/2011 2011-09-20 14:00 2011-09-20 15:00 SANDVIK COROMAND T-MAX PCLNR 4040-819 TURNING TOOL HOLDER PRGCR 3232-P12   0.00 Single
867 OFPM V1231 23/08/2011 2011-11-09 14:00 2011-11-09 15:00 RING 272-26-317 GASKET 700-31-698 GASKET TO DRG NO.700-40-233 GASKET 765-78-662 GASKET 765-78-851 ETC.   0.00 Single
868 OFPM V1241 23/08/2011 2011-11-02 14:00 2011-11-02 15:00 TUBING & PIPING 675-04-CD114-03 TUBING & PIPING 675-04-CD114-02 PIPE TO DRG.NO. 765-06-391 765-08-CD400 PIPE ASSY BRANCH PIPE 675-71-CD211 ETC.   0.00 Single
869 OFPM V1251 23/08/2011 2011-12-31 14:00 2011-12-31 15:00 CASING 765-10-2458 BOLT/STUD WELDING 765-12-829-01 HANDLE 765-10-428 RING TO DRG.NO.765-78-1236 BAND 10-M-2-A-0.5X9 GOST 503-81.   0.00 Single
870 HAPP 11/0225 23/08/2011 2011-09-27 14:00 2011-09-27 14:30 PUMP SS CLOSED,COUPLED FOR CHEMICALS   0.00 Single
871 HAPP 11/0226 23/08/2011 2011-09-27 14:00 2011-09-27 14:30 ALMIRAH STEEL 78"(H)X36"(W)X19"D   0.00 Single
872 HAPP 11/0227 23/08/2011 2011-09-27 14:00 2011-09-27 14:30 IGBT TYPE NO:A50L-0001-0261FOR CNC LATHE   0.00 Single
873 HAPP 11/0228 23/08/2011 2011-09-30 14:00 2011-09-30 14:30 STEEL TUBE,SPCN:EN19 SIZE:OD-160XID-132   0.00 Single
874 HAPP 11/0229 23/08/2011 2011-09-16 14:00 2011-09-16 14:30 HYDRO PRESSURE TESTING INSTRUMENT AS PER   0.00 Single
875 EFA 111347 23/08/2011 2011-09-20 00:00 2011-09-20 00:00 GASKET   0.00 Single
876 EFA 111348 23/08/2011 2011-09-20 00:00 2011-09-20 00:00 STUD M 6X35   0.00 Single
877 EFA 111349 23/08/2011 2011-09-20 00:00 2011-09-20 00:00 NUT M6   0.00 Single
878 EFA 115138 23/08/2011 2011-09-16 00:00 2011-09-16 00:00 TAPER SHANK TWIST DRILL,   0.00 Single
879 EFA 115139 23/08/2011 2011-09-16 00:00 2011-09-16 00:00 HOLE MILL,T.S,C.T   0.00 Single
880 EFA 115140 23/08/2011 2011-09-16 00:00 2011-09-16 00:00 FINISH HOB   0.00 Single
881 EFA 115141 23/08/2011 2011-09-30 00:00 2011-09-30 00:00 CENTRE DRILL   0.00 Single
882 EFA 115142 23/08/2011 2011-09-30 00:00 2011-09-30 00:00 ENGINEER'S FLAT FILE,ROUGH; ENGINEER'S FLAT FILE,SMOOTH; ENGINEER'S FLAT FILE,SMOOTH; ENGINEERS FLAT FILE; ENGINEER'S HALF ROUND FILE,SMOOTH;   0.00 Single
883 EFA 115143 23/08/2011 2011-09-30 00:00 2011-09-30 00:00 INSERT FOR DRILLING   0.00 Single
884 EFA 116089 23/08/2011 2011-09-06 00:00 2011-09-06 00:00 PAINT APPLE GREEN; PAINT SYNTHETIC ENAMEL OLIVE; SY.ENAMEL PAINT GOLDEN YELLOW; PAINT SY. ENAMEL WHITE.;   0.00 Single
885 EFA 117532 23/08/2011 2011-09-16 00:00 2011-09-16 00:00 TRANSPORTATION OF SPARES &KIT ITEMS   0.00 Single
886 GIF 0241111230 23/08/2011 2011-09-22 15:00 2011-09-22 15:00 SILICA RAMMING MASS FOR IND.FURNACE   0.00 Single
887 MSF 11TE210290 22/08/2011 2011-09-14 14:30 2011-09-14 14:30 SAMP-O-LINE, TYPE-PT 10%TYPE OF DEO etc.   Single
888 RFI ATB0300228 22/08/2011 2011-09-12 14:00 2011-09-12 14:30 Purchase of BLANK FOR BACK STRIP,   0.00 Single
889 RFI DTB6380377 22/08/2011 2011-09-12 14:00 2011-09-12 14:30 Purchase of CLAMP SCREW TS-25, HOLDER - BAP300R254 S25, HOLDER - BAP300R182 S16, HOLDER - BAP300R162 S16, HOLDER - BAP 300 R20 3 S 20, HOLDER - BAP 300R 141 S 16, APMT-1135-PDER AP 15 TF INSERT, INSER   0.00 Single
890 CFA 11PVTE0341 22/08/2011 2011-09-14 13:00 2011-09-14 14:00 104 KEYS KEYBOARDLOGITECK PS2 OPTICAL MOUSEOPTICAL MOUSE   0.00 Single
891 CFA 11PVTE0342 22/08/2011 2011-09-14 13:00 2011-09-14 14:00 UTP PATCH CORD CAT-6 3 METERSCOMPACT DISC RECORDABLE(CD-R)   0.00 Single
892 GSF 1100000608 22/08/2011 2011-10-20 00:00 2011-10-20 00:00 BRASS SEAMLESS TUBE TO EXTRUSION DRG.M-9547(PR.19B,   0.00 Single
893 GSF 1100000609 22/08/2011 2011-09-05 00:00 2011-09-05 00:00 INTERNAL FITTING TO DRG NO CO-325 (ITEM NO-8 & 9),   0.00 Single
894 GSF 1100000610 22/08/2011 2011-09-12 00:00 2011-09-12 00:00 DETONATOR TO DRG NO-6160197 IN F/C.,   25060.00 Single
895 MPF 3100429 22/08/2011 2011-09-13 14:30 2011-09-13 14:30 LIMIT SWITCH INSERTS BSE 30.0RK;   0.00 Single
896 MPF 3100430 22/08/2011 2011-09-13 14:30 2011-09-13 14:30 EPOXY MATT POWDER FOR POWDERCOATING;   0.00 Single
897 OCFAV 240/11-12 22/08/2011 2011-09-12 14:30 2011-09-12 14:30 AMPLIIFER (200W + 200W) MAK;AHUJA HORN SPEAKER MAKE; AHUJA MODEL NO. MICROPHONE-40W MAKE: AHUJA MODEL NO CD PLAYER MAKE: ONIAD/PANASONIC OF SPEAKER CABLE   0.00 Single
898 HVF 0210588 22/08/2011 2011-09-08 12:00 2011-09-08 15:00 NUT , etc.   0.00 Single
899 HVF 0410356 22/08/2011 2011-09-07 12:00 2011-09-07 15:00 SEAL & SPRING ASSY. , etc.   0.00 Single
900 HVF 0410357 22/08/2011 2011-09-14 12:00 2011-09-14 15:00 BRACKET ASSY , etc.   0.00 Single
901 HVF 0410358 22/08/2011 2011-09-14 12:00 2011-09-14 15:00 BOLT , etc.   0.00 Single
902 HVF 0812026 22/08/2011 2011-10-14 12:00 2011-10-14 15:00 AC DRIVE (0.37KW FOR TOOL CHANGE) , etc.   0.00 Single
903 OFT A110L48138 22/08/2011 2011-10-04 14:30 2011-10-04 15:00 6 VOLT, 8 AMP HR, LEAD ACID BA   0.00 Single
904 OFT A110L48139 22/08/2011 2011-09-20 14:30 2011-09-20 15:00 mondchlord difluord hydro carb   0.00 Single
905 OFT A110L48144 22/08/2011 2011-09-22 14:30 2011-09-22 15:00 COPPER TUBULAR TERMINAL LUG ,COPPER TUBULAR TERMINAL LUG ,COPPER TUBULAR TERMINAL LUG ,COPPER TUBULAR TERMINAL LUG ,COPPER TBULAR TERMINAL LUG ,COPPER TUBULAR TERMINAL LUG   0.00 Single
906 OFT A110L48145 22/08/2011 2011-09-22 14:30 2011-09-22 15:00 PEDESTAL FAN CAST ALUMINIUM AL   0.00 Single
907 OFT A210L48142 22/08/2011 2011-09-20 14:30 2011-09-20 15:00 DOB.STROKE GAUGE ARGON GAS   0.00 Single
908 OFT A210L48143 22/08/2011 2011-09-20 14:30 2011-09-20 15:00 PAPER BAND FILTER IN ROLL   0.00 Single
909 OFT A540L48140 22/08/2011 2011-09-15 14:30 2011-09-15 15:00 6.0 SQ MM 1100 V MULTI STRAND   0.00 Single
910 OFT A556A89897 22/08/2011 2011-09-20 14:30 2011-09-20 15:00 Steel 140mm Dia 35XH2MQA   0.00 Single
911 OFT A55LD89896 22/08/2011 2011-09-13 14:30 2011-09-13 15:00 HOUSING LAUNCHER ASSY   0.00 Single
912 OFT A560L48136 22/08/2011 2011-09-27 14:30 2011-09-27 15:00 ANGULAR POSITION ENCODER PART   0.00 Single
913 OFT A560L48137 22/08/2011 2011-09-22 14:30 2011-09-22 15:00 GEAR SPEED REDUCER MOTOR ,GEAR SPEED REDUCER MOTOR   0.00 Single
914 OFPM H1011 22/08/2011 2011-08-25 14:00 2011-08-25 15:00 PLATE 765-96-151 PLATE 765-96-152   0.00 Single
915 OFPM R651 22/08/2011 2011-09-16 14:00 2011-09-16 15:00 ST.RD.DIA 10X2000/4000MM TO EN19 BS:970 ST.RD.BAR DIA 12X4000MM IS:9550   0.00 Single
916 OFPM T1481 22/08/2011 2011-09-13 14:00 2011-09-13 15:00 MILLING CUTTER DIA:32MM. MILLING CUTTER DIA:25MM.   0.00 Single
917 OFPM U231 22/08/2011 2011-09-23 14:00 2011-09-23 15:00 QUARTZ SILICA SAND   0.00 Single
918 OFPM U241 22/08/2011 2011-09-23 14:00 2011-09-23 15:00 MILD STEEL WIRE GALVANISED 3MM DIA   0.00 Single
919 OFPM U251 22/08/2011 2011-09-23 14:00 2011-09-23 15:00 FUSED SILICA SAND -12 +40 MESH AS PER   0.00 Single
920 OFPM V1191 22/08/2011 2011-12-21 14:00 2011-12-21 15:00 AXLE 765-68-258 GAUZE765-78-1244 BUSHING 765-78-1508 COUPLING SHAFT RGID 765-78-877 FILTER TO DRG.NO.765-78-1235 ETC.   0.00 Single
921 OFPM V1201 22/08/2011 2011-09-28 14:00 2011-09-28 15:00 KEY 700-34-32 GASKET 765-38-208 GASKET TO DRG.765-38-242 GASKET TO DRG.NO.765-38-244 GASKET TO DRG.NO.765-38-93 ETC.   0.00 Single
922 OFPM V1211 22/08/2011 2011-09-28 14:00 2011-09-28 15:00 AUDIO VISUAL WARNING DEVICE SPARES   0.00 Single
923 OFPM V1221 22/08/2011 2011-10-12 14:00 2011-10-12 15:00 SPRING GARTER EXTENSION MVP 1-04-05 SPRING 700-38-923 SPRING 700-38-359 DRG.NO.669352-2-K, SPRING   0.00 Single
924 HAPP 11/0221 22/08/2011 2011-09-23 14:00 2011-09-23 14:30 DRILL TWIST HSS SIZE:7 MM DIA TAPER SHAN   0.00 Single
925 HAPP 11/0222 22/08/2011 2011-09-23 14:00 2011-09-23 14:30 INSERT DNMG 150616-5 TN 2000   0.00 Single
926 HAPP 11/0223 22/08/2011 2011-09-23 14:00 2011-09-23 14:30 CABLE ELECTRIC FLEXIBLE 1CORE, 2.5SQMM   0.00 Single
927 HAPP 11/0224 22/08/2011 2011-09-23 14:00 2011-09-23 14:30 V-BELT B-102 MAKE : FENNER OR EQUIVALENT   0.00 Single
928 EFA 113023 22/08/2011 2011-09-06 00:00 2011-09-06 00:00 OIL PUMP GEAR   0.00 Single
929 EFA 113024 22/08/2011 2011-09-06 00:00 2011-09-06 00:00 GEAR (FORGING)   0.00 Single
930 OFDR 2011000170 22/08/2011 2011-09-13 14:30 2011-09-13 15:00 1. CART.BOARD FOR AMMN 787X559X0.5MM   3.00 Single
931 OFDR 2011000171 22/08/2011 2011-09-30 14:30 2011-09-30 15:00 1. COMMINUTING MILL   2.00
932 OFDR 2011000172 22/08/2011 2011-09-13 14:30 2011-09-13 15:00 1. DB TROUSER WHITE OCFA SIZE-3 2. DB COAT WHITE OCFA SIZE-5 3. DB COAT COTTON DRILL WHITE SIZE-7   2.00 Single
933 OFDR 2011000173 22/08/2011 2011-09-13 14:30 2011-09-13 15:00 1. DOSING FIXTURE FOR BOOSTER COMP 16M   2.00 Single
934 OFDR 2011000174 22/08/2011 2011-09-13 14:30 2011-09-13 15:00 1. CASTOR WHEEL SIZE-100MM 2. CASTOR WHEEL 3. CASTOR WHEEL SIZE-150MM 4. CASTOR WHEEL SIZE-150MM   2.00 Single
935 AFK 20110528 21/08/2011 2011-09-23 14:00 2011-09-23 14:30 JOINTING KIT FOR LT PVC/XLPE CABLE, LT PVC 300 SQ.MM CABLE STRAIGHT, JOINTING KIT SUITABLE FOR PILC CABL, HEAT SHRINKABLE CABLE JOINTING KIT, JOINTING KITS FOR LT PVC/XLPE ETC.   0.00 Single
936 AFK 20110529 21/08/2011 2011-09-23 14:00 2011-09-23 14:30 3 CORE COPPER CONDUCTOR PVC, MULTI STRANDED COPPER CONDCTR. WIRE ETC.   0.00 Single
937 AFK 20110530 21/08/2011 2011-09-23 14:00 2011-09-23 14:30 BLOWER SUITABLE FOR INDOOR UNIT, SWING FLAP FOR INDOOR UNIT, SWING MOTOR FOR INDOOR UNIT, PCB FOR INDOOR UNIT FOR CARRIERMAKE, BLOWER FAN MOTOR FOR INDOOR UNIT ETC.   0.00 Single
938 AFK 20110531 21/08/2011 2011-08-26 14:00 2011-08-26 14:30 CASE FEEDING BLOCK CSP-16-108, COVER PLATE CSP-20-108, REAMERING SPINDLE CSP-22-108, CASE FEEDING BLOCK CSP-19-108, EXTRACTOR CAM LEVER CSP-14-108 ETC.   0.00 Single
939 AFK 20110532 21/08/2011 2011-08-26 14:00 2011-08-26 14:30 SETTING BLOCK FOR EXTRAC.CSP-11-108, REAMERING BLOCK LEVER CSP-21-108, SETTING BLOCK LEVER CSP-13-108, EXTRACTOR PUNCH LEVER CSP-12-108, LEVER FOR GROOVING CAM CSP-18-108 ETC.   0.00 Single
940 AFK 20110534 21/08/2011 2011-09-23 14:00 2011-09-23 14:30 STORAGE BATTERY LEAD ACID FOR INVT., LEAD ACID TRACTION BATTERY ETC.   0.00 Single
941 AFK 20110535 21/08/2011 2011-09-23 14:00 2011-09-23 14:30 APC NO.2 (CEMENT RD 1192K)   0.00 Single
942 AFK 20110535OP 21/08/2011 2011-09-23 14:00 2011-09-23 14:30 APC NO.2 (CEMENT RD 1192K)   0.00 Single
943 AFK 20110536 21/08/2011 2011-09-27 14:00 2011-09-27 14:30 ROSET BOXES, CRONE CONNECTOR SUITABLE FOR THE ETC.   0.00 Single
944 AFK 20110537 21/08/2011 2011-09-16 14:00 2011-09-16 14:30 ENGAGEMENT OF PVT.CONTRACT LABOURER   0.00 Single
945 AFK 20110538 21/08/2011 2011-09-16 14:00 2011-09-16 14:30 APPLANATION TONOMETRE(AATM5001)   0.00 Single
946 AFK 20110539 21/08/2011 2011-09-16 14:00 2011-09-16 14:30 BOOT POLISH BLACK CHERYBLOSSOM   0.00 Single
947 AFK 20110540 21/08/2011 2011-09-16 14:00 2011-09-16 14:30 WHITE BOARD MARKER PEN R/B/B, STICK ON COLOURED TAGS 3" X 2", CALCULATOR(CITIZEN/CASIO) D/P 12D, BROWN FILE COVER (SIMPLE), SCIENTIFIC CALCULATOR 12D ETC.   0.00 Single
948 AFK 20110541 21/08/2011 2011-09-16 14:00 2011-09-16 14:30 REGISTER RULED300PGS SUNDARAM/PRIME, DISPLAY BOARD PINS : KANGAROO/LION, PIN CONTAINER MAGNETIC, REGISTER RULED 600 PGS, OPEN FILE WITH FLAP & TAG ETC.   0.00 Single
949 AFK 20110542 21/08/2011 2011-09-16 14:00 2011-09-16 14:30 REGISTER RULED400PGS SUNDARAM/PRIME, PENCIL HB NATRAJ/APSARA, ERASER NATRAJ/APSARA, STAPLER (SMALL) KANGAROO, STAPLER (BIG) KANGAROO ETC.   0.00 Single
950 AFK 20110544 21/08/2011 2011-09-20 14:00 2011-09-20 14:30 STAPLER PIN (SMALL) KANGAROO, STAPLER PIN (BIG) KANGAROO, PAPER PIN : KANGAROO / LION, U PINS : KANGAROO / LION / LEE, CARBON PAPERS BLUE / KORES ETC.   0.00 Single
951 AFK 20110545 21/08/2011 2011-09-20 14:00 2011-09-20 14:30 CORRECTING FLUID / WHITENER PEN, HIGHLIGHTER PEN, PERMANENT MARKER PEN BLACK, PERMANENT MARKER PEN RED, PLASTIC SCALE 30 CM CAMEL/NATRAJ ETC.   0.00 Single
952 AFK 20110546 21/08/2011 2011-09-20 14:00 2011-09-20 14:30 SCISSORS (OFFICE USE), CHALK STICK BOX MULTI COLOUR, BALL PEN (BLUE) : LINC / REYNOLDS, BALL PEN (RED) : LINC / REYNOLDS, CALCULATOR D/P 10D : CITIZEN/CASIO ETC.   0.00 Single
953 AFK 20110547 21/08/2011 2011-09-20 14:00 2011-09-20 14:30 SKETCH PEN MULTI COLOUR BOX, TAG SMALL, TAG BIG, PAPER CUTTER, PEN STAND ETC.   0.00 Single
954 OEFC 20110421 21/08/2011 2011-09-07 13:30 2011-09-07 14:00 REFILLING OF LPG GAS CYLINDER (EACH CYLINDER CONTAIN KGS.14.2)   8500.00 Single
955 GCF 110204L756 21/08/2011 2011-10-11 10:30 2011-10-11 11:00 COIL SOLANOID,1500 TU.50714935 CAPACITOR FIXED PAPER DI-ELECTRIC BODY,VALVE,GUIDE DRG.NO.4012850.   0.00 Single
956 GCF 110205L756 21/08/2011 2011-10-11 10:30 2011-10-11 11:00 NUT LOCK ELASTIC TOP N3-13-10, SCREW CS'K HD FS 8X19(N2-29) WASHER FOR MICRO SWITCH,N5-23. SCREW HEX S/G B6LS-12X30D80(N2-71) SCREW,HEX,POLISHED,6X16,D 80,N2-71. SCREW HEX,PO,.SMALL GRIP TO N2-71 NUT   0.00 Single
957 GCF 110206L756 21/08/2011 2011-10-11 10:30 2011-10-11 11:00 SPRING TO DRG.NO.M2/BOF 6109672 WASHER SPRING BELLEVILLE TYPE N11-3 WASHER SPRING BELLIVILLE TYPE N11-2 PIN COTTER SPLIT SP 3X30. SCREW CYL HD ECS 4X50(N2-87) WASHER,PLAIN,BRIGHT BRB-8.5X18. WASHER P   0.00 Single
958 GCF 110207L756 21/08/2011 2011-10-11 10:30 2011-10-11 11:00 T- COUPLING.DRG.NO. N15-28-10. T-COUPLING DESINATION N15-28-13. T-COUPLING DESIGNATION N15-28-6.   0.00 Single
959 GCF 110208L756 21/08/2011 2011-10-11 10:30 2011-10-11 11:00 RING 6101512. BOLT SECURING DRG.NO.6118824. PIN,TAPER SCREWED N4-16,KPG-6X24. WASHER SPACING DRG.NO.6122256. PIN CLY N.4.13.6X8   0.00 Single
960 GCF 110209L756 21/08/2011 2011-10-13 10:30 2011-10-13 11:00 SHAFT,CENTRALISING,IAN-323 SA.   0.00 Single
961 GCF 111202NB56 21/08/2011 2011-08-21 10:30 2011-08-21 11:00 STATIONARY COMPUTER 80 COL- 4 PART   0.00 Single
962 CFA 11PVTE0338 21/08/2011 2011-09-14 13:00 2011-09-14 14:00 STAINLESS STEEL PIPE 6"(150 MM   0.00 Single
963 CFA 11PVTE0339 21/08/2011 2011-09-20 13:00 2011-09-20 14:00 FOIL TIN LEAD   0.00 Single
964 CFA 11PVTE0340 21/08/2011 2011-09-14 13:00 2011-09-14 14:00 COLOUR PLOTTER - A4 TO A0 SIZE   0.00 Single
965 OPF 110110408 21/08/2011 2011-09-08 14:00 2011-09-08 14:30 (1) POLYURETHENE FOAM 25MM THICK 91.4CM   0.00 Single
966 OPF 110110409 21/08/2011 2011-09-08 14:00 2011-09-08 14:30 (1) TAPE TEX NYLON TUB 36MM UD BS29000N   0.00 Single
967 OPF 110110410 21/08/2011 2011-09-08 14:00 2011-09-08 14:30 (1) TAPE NY.1.6 CM U/DYD BS-200KG   0.00 Single
968 OPF 110110411 21/08/2011 2011-09-08 14:00 2011-09-08 14:30 (1) PLATE CURVED WITH HOLE   0.00 Single
969 OPF 110110412 21/08/2011 2011-09-08 14:00 2011-09-08 14:30 (1) BUCKLE "D"SHAPED FOR PTR-M   0.00 Single
970 OPF 110110413 21/08/2011 2011-09-08 14:00 2011-09-08 14:30 (1) CLIPPER EMERGENCY   0.00 Single
971 OPF 110110414 21/08/2011 2011-09-08 14:00 2011-09-08 14:30 (1) PACK OPNING SPRING ELASTIC 89 MM (2) PACK OPNING SPRING ELASTIC 203 MM   0.00 Single
972 OPF 110110415 21/08/2011 2011-09-08 14:00 2011-09-08 14:30 (1) FASTNER LOOP TYPE SYNTIC 25MM BLACK (2) FASTNER HOOK TAPE SYNTHTIC 25MM BLC   0.00 Single
973 OPF 110110416 21/08/2011 2011-09-08 14:00 2011-09-08 14:30 (1) EJECTOR BOARD (READY MADE)   0.00 Single
974 OPF 110110417 21/08/2011 2011-09-08 14:00 2011-09-08 14:30 (1) PACK OPENING SPRING ELASTIC LONG   0.00 Single
975 OFKAT 2011000204 21/08/2011 2011-09-13 14:30 2011-09-13 14:30 SET OF B.P.&C.P.FOR BR.CUP7.62   0.00 Single
976 OFKAT 2011000205 21/08/2011 2011-09-13 14:30 2011-09-13 14:30 CARBIDE INSERT.B&C DIE FOR7.62   0.00 Single
977 OFKAT 2011000206 21/08/2011 2011-09-27 14:30 2011-09-27 14:30 INDUSTRIAL XRAYFILM30.5X38.1CM   0.00 Single
978 OFKAT 2011000207 21/08/2011 2011-09-13 14:30 2011-09-13 14:30 FUEL LPG REFILL CYLINDER 19 KG   0.00 Single
979 OFDUN 0494-11 21/08/2011 2011-09-09 00:00 2011-09-09 00:00 TALCOM POWDER   0.00 Single
980 OFDUN 0495-11 21/08/2011 2011-09-13 00:00 2011-09-13 00:00 B/BEARING SKF-6205 25X52X15MM   0.00 Single
981 OFDUN 0496-11 21/08/2011 2011-09-09 00:00 2011-09-09 00:00 FLUX-80 PUTTY, MAKE LOCTITE   0.00 Single
982 OFAJ FS2110071 21/08/2011 2011-09-27 14:00 2011-09-27 15:00 INSERT SHELL FRONT   0.00 Single
983 OFAJ FS2110072 21/08/2011 2011-09-27 14:00 2011-09-27 15:00 INSERT OGIVE REAR   0.00 Single
984 OFAJ FS2110073 21/08/2011 2011-09-27 14:00 2011-09-27 15:00 INSERT OGIVE FRONT   0.00 Single
985 OFAJ IS2110134 21/08/2011 2011-09-16 14:00 2011-09-16 15:00 COPPER SULPHATE ELECTROPLATING GRAD, STANNOUS SULPHATE FOR ELECTROPLATIN   0.00 Single
986 OFAJ IS2110135 21/08/2011 2011-09-16 14:00 2011-09-16 15:00 ALOXITE CLOTH BELT 200X1500GRIT-60   0.00 Single
987 OFAJ IS2110136 21/08/2011 2011-09-16 14:00 2011-09-16 15:00 SPECIAL WINDOW ENVELOP FOR T.E.DOCU, TENDER ENQUIRY FORM.DGOF/MM-1,60GSM   0.00 Single
988 VFJ 112TA0214 21/08/2011 2011-09-08 14:30 2011-09-08 14:30 HEX SCREW M8X1.25X25,   0.00 Single
989 OLF 1106012411 21/08/2011 2011-09-26 15:00 2011-09-26 15:00 POWER CAPACITOR-SUPER HEAVY DU,POWER CAPACITOR-SUPER HEAVY DU,POWER CAPACITOR SIPER HEAVY DU   0.00 Single
990 OLF 1106042412 21/08/2011 2011-11-28 15:00 2011-11-28 15:00 PROTECTIVE GLASS,PRISM BL5935783,PRISM BS-O DEGREE BL7201123,PROTECTIVE GLASS BL6436224,MIRROR BL5950375,EYE PIECE BL3883083,LENS ASSY.BL5934390,LENS ASSY BL5931093,LENS ASSY BL5931094,LENS ASSY BL593   0.00 Single
991 GIF 0236111256 21/08/2011 2011-11-22 15:00 2011-11-22 15:00 CARTRIDGE FOR LASERJET PRINTER-   0.00 Single
992 GIF 0237111256 21/08/2011 2011-11-22 15:00 2011-11-22 15:00 PRINTER CARTRIDGE FOR HP-2608 PHOTO   0.00 Single
993 GIF 0238111256 21/08/2011 2011-10-20 15:00 2011-10-20 15:00 CARTRIDGE BLACK Q-2612-A   0.00 Single
994 GIF 0239111256 21/08/2011 2011-10-20 15:00 2011-10-20 15:00 CARTRIDGE FOR HP LASERJET PRINTER   0.00 Single
995 GIF 0240111230 21/08/2011 2011-10-04 15:00 2011-10-04 15:00 PIG IRON (GENERAL)   0.00 Single
996 AFK 20110522 20/08/2011 2011-09-16 14:00 2011-09-16 14:30 DIE (TC) FOR HEADING OF 191 BODY., TOP DIE (TC),8MM CASE,AFK/CT-1561, TOP DIE (TC) FOR IIND DRAW., TOP DIE (TC) FOR III RD DRAW., BOTTOM DIE (TC) TO III RD DRAW. ETC.   0.00 Single
997 AFK 20110523 20/08/2011 2011-09-09 14:00 2011-09-09 14:30 HEAVY DUTY INDUSTRIAL CUPBOARDS   0.00 Single
998 AFK 20110524 20/08/2011 2011-09-23 14:00 2011-09-23 14:30 TRANSFER PLATE 7,8 STATION LSP1904   0.00 Single
999 AFK 20110525 20/08/2011 2011-09-23 14:00 2011-09-23 14:30 ROLLER-2 FOR DRUM COLLAR (CSP-4761)   0.00 Single
1000 AFK 20110526 20/08/2011 2011-09-23 14:00 2011-09-23 14:30 COMPLETE CLUTCH - BRAKE UNIT   0.00 Single
1001 AFK 20110527 20/08/2011 2011-09-16 14:00 2011-09-16 14:30 DIE MT 425 DRG KF/SK/1166, CARBIDE DIE DEG.NO. KF/SK-1451 . ETC.   0.00 Single
1002 AFK 20110527OP 20/08/2011 2011-09-16 14:00 2011-09-16 14:30 DIE MT 425 DRG KF/SK/1166   0.00 Single
1003 OEFC 20110417 20/08/2011 2011-09-14 13:30 2011-09-14 14:00 BASYNTAN D-1/VERNATAN OS/BALSYN PFK/SELLASOL RS/ TANIGAN OP/INDOTAN SD/FOURYL-RN-390   14700.00 Single
1004 OEFC 20110418 20/08/2011 2011-09-12 13:30 2011-09-12 14:00 LT.WT.WEB COTTON WHITE THICK 25 MM-AF   0.00 Single
1005 OEFC 20110419 20/08/2011 2011-09-14 13:30 2011-09-14 14:00 BASYNTAN FB-6/VERNATAN R-7/BALSYN MF-7/SELLASOL BC/ RATINGAN ORM/INDOTAN IM/FOURYL -RN-6   23400.00 Single
1006 OEFC 20110420 20/08/2011 2011-09-26 13:30 2011-09-26 14:00 SWEING THREAD SPUN POLYSTER 145/DTEX/3 KHAKI   0.00 Single
1007 OEFC 20110437 20/08/2011 2011-08-26 13:30 2011-08-26 14:00 GAS OXYGEN   0.00 Single
1008 OEFC 20110639 20/08/2011 2011-11-04 13:30 2011-11-04 14:00 WHEEL BARROW WITH RUBBER TYRE WHEEL NO. OF WHEELS 2 AS PER DRG. NO. SK-606-A   0.00 Single
1009 MSF 11TE210284 20/08/2011 2011-09-21 14:30 2011-09-21 14:30 REPAIRING,ESR CU.MOULD DIA.750MM,Dr etc.   Single
1010 MSF 11TE210285 20/08/2011 2011-09-21 14:30 2011-09-21 14:30 REPAIRING,ESR CU.MOULD DIA 650MM,DR etc.   Single
1011 MSF 11TE210288 20/08/2011 2011-09-21 14:30 2011-09-21 14:30 HACK SAW BLADE 18"X1-1/4"X16GX etc.   Single
1012 MSF 11TE220286 20/08/2011 2011-09-28 14:30 2011-09-28 14:30 SMPS POWER PLANT FOR TELEPHONE EXCH etc.   Single
1013 MSF 11TE220287 20/08/2011 2011-09-14 14:30 2011-09-14 14:30 COPPER RING FOR ELECTRODE HOLDER15T etc.   Single
1014 MSF 11TE220289 20/08/2011 2011-09-14 14:30 2011-09-14 14:30 DRY U/C L/A BATTERY 12 V 120 AH DRY U/C L/A BATTERY 12 V 180 AH 9 PLATE 12 VOLTS BATTERY MF 507/MHD etc.   Single
1015 GCF 111198NC56 20/08/2011 2011-09-27 10:30 2011-09-27 11:00 05 PAIR PVC TELEPHONE CABLE 10 PAIR PVC TELEPHONE CABLE 20 PAIR PVC TELEPHONE CABLE   0.00 Single
1016 GCF 111199NC56 20/08/2011 2011-09-27 10:30 2011-09-27 11:00 ONE SET OF GI PIPE FITTINGS   0.00 Single
1017 GCF 111200NC56 20/08/2011 2011-09-29 10:30 2011-09-29 11:00 BELT V ENDLESS A-46 IS:2494/1974. ENDLESS - V BELS BENCH VICE (FITTERS) 150 MM (6")   0.00 Single
1018 GCF 111201NC56 20/08/2011 2011-09-29 10:30 2011-09-29 11:00 LOCK NAVTAL GODREJ WITH 2 KEY 50MM LOCK NAVTAL/GODREJ WITH 2 KEY 65MM LOCK GODREJ NAVTAL 85 MM.WITH 2 KEY   0.00 Single
1019 RFI DTB3290373 20/08/2011 2011-09-16 14:00 2011-09-16 14:30 Purchase of FIXTURE FOR SHOT/ABRASIVE BLAS,   0.00 Single
1020 RFI DTB3480372 20/08/2011 2011-09-23 14:00 2011-09-23 14:30 Purchase of H.S.S. TAP, TAPPING ADAPTOR, TAPPING CHUCK WFLK,   0.00 Single
1021 RFI DTB4070374 20/08/2011 2011-09-16 14:00 2011-09-16 14:30 Purchase of TENON SIZE:25MM X 10MM X 90MM, TENON SIZE:20MM X 20MM X 90MM, ALLEN HEAD SCREW, ALLEN HEAD SCREW,   0.00 Single
1022 RFI DTB6380368 20/08/2011 2011-09-23 14:00 2011-09-23 14:30 Purchase of D/TAIL CUTTER 20DX60 DEG. B-8A,   0.00 Single
1023 RFI DTB6380369 20/08/2011 2011-09-23 14:00 2011-09-23 14:30 Purchase of LOCKING SCREW, TORX KEY, INSERT ADKT 1505 PDTR RM IC328, HOLDER F90A D50-22M OR EQUIVAL,   0.00 Single
1024 RFI DTB6380370 20/08/2011 2011-09-23 14:00 2011-09-23 14:30 Purchase of D-04, 3.5D X 4.5D CENTER DRILL,   0.00 Single
1025 RFI DTB6380371 20/08/2011 2011-09-23 14:00 2011-09-23 14:30 Purchase of INSERT SCREW 5513-020-01, END MILL CUTTER 80 DIA, INSERT - R 245-12T 3M-PM 4030,   0.00 Single
1026 CFA 11PVTE0336 20/08/2011 2011-09-14 13:00 2011-09-14 14:00 DUST NOSE MAS OF MATTY CLOTH.   0.00 Single
1027 CFA 11PVTE0337 20/08/2011 2011-09-16 13:00 2011-09-16 14:00 S S WIRE MESH 25 DISC.GAUGE WIRE STAINLESS STEELS S WIRE MESH 40 DISC.   0.00 Single
1028 OCFS 2011000128 20/08/2011 2011-09-06 14:30 2011-09-06 15:00 BUTTON PLASTIC DARK DRAB 16MM   0.00 Single
1029 HEF TE11120117 20/08/2011 2011-09-08 00:00 2011-09-08 00:00 COMPREHENSIVE ANNUAL 9999991383   0.00 Single
1030 SAF 3113000591 20/08/2011 2011-08-30 14:30 2011-08-30 15:00 PIN STRAIGHT HEADED CATCH MAGA,   0.00 Single
1031 SAF 3113000592 20/08/2011 2011-08-26 14:30 2011-08-26 15:00 GUIDE ASSEMBLY-2 TO DRG NO.AKC,   0.00 Single
1032 SAF 3113000593 20/08/2011 2011-09-06 14:30 2011-09-06 15:00 CUP I.C. TO DRG NO. AKC-02/1 I,   0.00 Single
1033 SAF 3113000594 20/08/2011 2011-09-06 14:30 2011-09-06 15:00 SIGHT REAR IC TO DRG NO AKC-08,   0.00 Single
1034 SAF 3113000595 20/08/2011 2011-09-02 14:30 2011-09-02 15:00 PICATINY RAIL TO DRG NO. AKC-0,   0.00 Single
1035 SAF 3113000596 20/08/2011 2011-09-02 14:30 2011-09-02 15:00 HAND GUARD TO DRG NO.AKC-12/1P,   0.00 Single
1036 SAF 3113000597 20/08/2011 2011-09-02 14:30 2011-09-02 15:00 PIN BUTTON TO DRG NO.AKC-13/5*,   0.00 Single
1037 SAF 3113000598 20/08/2011 2011-09-02 14:30 2011-09-02 15:00 UPPER HAND GUARD ASSEMBLY TO D,   0.00 Single
1038 SAF 3113000599 20/08/2011 2011-09-13 14:30 2011-09-13 15:00 PRINTER RIBBON EPSON LQ-1150.,   0.00 Single
1039 MPF 3100418 20/08/2011 2011-09-13 14:30 2011-09-13 14:30 PHOSPHORUS SOLUTION (ASFO COAT);   0.00 Single
1040 MPF 3100419 20/08/2011 2011-09-13 14:30 2011-09-13 14:30 FORG.FOR GEAR 175-45-008;   0.00 Single
1041 MPF 3100421 20/08/2011 2011-09-13 14:30 2011-09-13 14:30 BUBBLED PLASTIC SHEET 40" WIDTH;   0.00 Single
1042 MPF 3100422 20/08/2011 2011-09-13 14:30 2011-09-13 14:30 RUBBER TIMER BELT.; PU TIMER BELT 450 L,WIDTH-15 MM.; RUBBER TIMER BELT.; PU TIMER BELT.; RUBBER POLY 'V' BELT.; RUBBER POLY 'V' BELT.; RUBBER POLY 'V' BELT.; RUBBER POLY 'V' BELT.; RUBBER POLY 'V' B   0.00 Single
1043 MPF 3100423 20/08/2011 2011-09-13 14:30 2011-09-13 14:30 RADIAL TYRE 165/80R/15 WITH TUBE; TYRE(RADIAL)TATA SUMO.215X75XR15.;   0.00 Single
1044 MPF 3100424 20/08/2011 2011-09-13 14:30 2011-09-13 14:30 HYDRAULIC HOSE PIPE.; HYDRAULIC HOSE PIPE.; HYDRAULIC HOSE PIPE.; HYD.HOSE PIPE M 12 X 1.5 SAE 100R 1; HYD.HOSE PIPE M 22 X 1.5 SAE 100 R1; HYD.HOSE PIPE M 12 X 1.5,SAE 100 R1;   0.00 Single
1045 MPF 3100425 20/08/2011 2011-09-09 14:30 2011-09-09 14:30 SHIM TRAV.LAYING REDUCTI.GEAR ASSY;   0.00 Single
1046 MPF 3100426 20/08/2011 2011-09-20 14:30 2011-09-20 14:30 FORGING FOR COUPLING;   0.00 Single
1047 OFBA 110353 20/08/2011 2011-09-22 14:30 2011-09-22 14:30 PIPE M.S STEAM QUALITY HEAVY D   0.00 Single
1048 OFBA 110354 20/08/2011 2011-09-22 14:30 2011-09-22 14:30 PRESSURE GAUGE 3" DIAL RANGE   0.00 Single
1049 OFBA 110355 20/08/2011 2011-09-22 14:30 2011-09-22 14:30 LIQUID PARAFFIN   0.00 Single
1050 OFBA 110356 20/08/2011 2011-09-22 14:30 2011-09-22 14:30 VALVE CARBON STEEL GATE TYPE   0.00 Single
1051 HVF 0108183 20/08/2011 2011-08-25 12:00 2011-08-25 15:00 SUPPORT , etc.   0.00 Single
1052 HVF 0410355 20/08/2011 2011-09-14 12:00 2011-09-14 15:00 WEIGHT , etc.   0.00 Single
1053 HVF 0612691 20/08/2011 2011-09-13 12:00 2011-09-13 15:00 TOOL HOLDER FOR GROOVING AND PARTING , etc.   0.00 Single
1054 HVF 0612692 20/08/2011 2011-09-20 12:00 2011-09-20 15:00 DRILL TWIST P/S CARBIDE TIPPED , etc.   0.00 Single
1055 HVF 0701747 20/08/2011 2011-09-15 12:00 2011-09-15 15:00 STAND,FRONT , etc.   0.00 Single
1056 HVF 0701748 20/08/2011 2011-09-15 12:00 2011-09-15 15:00 INSERT , etc.   0.00 Single
1057 HVF 0900812 20/08/2011 2011-10-27 12:00 2011-10-27 15:00 RELAY BOX PCB , etc.   0.00 Single
1058 OFAJ FS2110065 20/08/2011 2011-09-23 14:00 2011-09-23 15:00 INSERT SHELL REAR   0.00 Single
1059 OFAJ FS2110066 20/08/2011 2011-09-23 14:00 2011-09-23 15:00 BALANCING RING   0.00 Single
1060 OFAJ FS2110067 20/08/2011 2011-09-23 14:00 2011-09-23 15:00 ADAPTER   0.00 Single
1061 OFAJ FS2110068 20/08/2011 2011-09-13 14:00 2011-09-13 15:00 'O' RING 3.4 X 1.9 DRG..NO.FS-2774A, 'O'RING 66.7 X 1.2 DRG. NO.FS-2773A   0.00 Single
1062 OFAJ FS2110069 20/08/2011 2011-09-13 14:00 2011-09-13 15:00 RING TO DRG 3-027321/25.   0.00 Single
1063 OFAJ RS2110136 20/08/2011 2011-11-22 14:00 2011-11-22 15:00 AMC FOR FULLY AUTOMATED ANLALYZER   0.00 Single
1064 OFAJ RS2110137 20/08/2011 2011-09-20 14:00 2011-09-20 15:00 CENLUB LUBRICATION UNIT ALU-03   0.00 Single
1065 OFAJ RS2110138 20/08/2011 2011-09-27 14:00 2011-09-27 15:00 THERMOCOUPLE CHROMEL-ALUMEL., THERMOCOUPLE ELEMENT K TYPE, THERMOCOUPLE WIRE TYPE CR/AL 0.6DIA, THERMOCOUPLE WITH PLUG & JACK   0.00 Single
1066 OFAJ RS2110139 20/08/2011 2011-10-14 14:00 2011-10-14 15:00 INTENSIFIER CYLINDER.   0.00 Single
1067 OFAJ TS2110063 20/08/2011 2011-09-21 14:00 2011-09-21 15:00 CONC. GAUGE TO DRG. NO. FS/G-071., CONC. GAUGE TO DRG. NO. FS/G-597., PLUG GAUGE TO DRG. NO. FS/G-622B., RING GAUGE TO DRG. NO. FS/G-182., RING GAUGE TO DRG. NO. FS/G-3580., RING GAUGE TO DRG. NO. FS/   0.00 Single
1068 OFT A222D48135 20/08/2011 2011-09-06 14:30 2011-09-06 15:00 CONVERSION OF BODY FORGINGS   0.00 Single
1069 OFT A222E48132 20/08/2011 2011-09-06 14:30 2011-09-06 15:00 TRIGGER (ICR-1238)   0.00 Single
1070 OFT A222E48133 20/08/2011 2011-09-06 14:30 2011-09-06 15:00 LEVER CHANGE (ICR-1312)   0.00 Single
1071 OFT A55LE89890 20/08/2011 2011-09-13 14:30 2011-09-13 15:00 SPACER RING TO DRAWING 33P1213   0.00 Single
1072 OFT A55LE89891 20/08/2011 2011-09-13 14:30 2011-09-13 15:00 HOUSING SPRING TO DRAWING 33P4   0.00 Single
1073 OFT A55LE89892 20/08/2011 2011-09-13 14:30 2011-09-13 15:00 RIVET TOGGLE TO DRAWING 33P121   0.00 Single
1074 OFT A55LE89893 20/08/2011 2011-09-13 14:30 2011-09-13 15:00 BLOCK LOCATING TO DRAWING 33P1   0.00 Single
1075 OFT A55LE89894 20/08/2011 2011-09-13 14:30 2011-09-13 15:00 GUIDE SPRING TOGGLE TO DRAWING   0.00 Single
1076 OFT A55LE89895 20/08/2011 2011-09-13 14:30 2011-09-13 15:00 GUIDE HAMMER SPRING TO DRAWING   0.00 Single
1077 OFT A692F48134 20/08/2011 2011-09-06 14:30 2011-09-06 15:00 BUTT NORMAL ASSY WITH PLATE   0.00 Single
1078 OEFHZ 20110111 20/08/2011 2011-09-20 00:00 2011-09-20 00:00 DIFFERENTIAL FEED DOG PT.NO.33820   3.00 Single
1079 VFJ 112TP0058 20/08/2011 2011-09-20 14:30 2011-09-20 14:30 CAST.FOR LEVER CONTROL HANDLE,   0.00 Single
1080 VFJ 112TP0059 20/08/2011 2011-09-20 14:30 2011-09-20 14:30 BELT ASSY.,   0.00 Single
1081 VFJ 112TP0060 20/08/2011 2011-09-20 14:30 2011-09-20 14:30 BOSS M10X15LX18OD,   0.00 Single
1082 VFJ 112TP0061 20/08/2011 2011-09-22 14:30 2011-09-22 14:30 EYE 765-58-193/A,   0.00 Single
1083 VFJ 112TP0062 20/08/2011 2011-09-22 14:30 2011-09-22 14:30 PIVOT FOR RACE RING ASSY,   0.00 Single
1084 VFJ 112TP0063 20/08/2011 2011-09-22 14:30 2011-09-22 14:30 HANDLE GOST STD.,   0.00 Single
1085 VFJ 112TP0064 20/08/2011 2011-09-22 14:30 2011-09-22 14:30 AXLE GOST STD./BAR,   0.00 Single
1086 VFJ 112TP0065 20/08/2011 2011-09-22 14:30 2011-09-22 14:30 CAST.FOR CATCH/HOOK FOR TURRET,   0.00 Single
1087 VFJ 112TP0066 20/08/2011 2011-10-04 14:30 2011-10-04 14:30 FORG. FOR HANDLE/LEVER,   0.00 Single
1088 VFJ 112TP0067 20/08/2011 2011-10-04 14:30 2011-10-04 14:30 CASTING FOR BRACKET TURRET ASY,   0.00 Single
1089 VFJ 114G7044 20/08/2011 2011-10-13 14:00 2011-10-13 14:00 AQUAOUS FILM FORMING FOAM,FOAM COMPOUND PARTAIN BASS,   0.00 Single
1090 VFJ 114G7045 20/08/2011 2011-09-15 14:00 2011-09-15 14:00 ANNUAL MAINTENANCE & CONTRACT,   0.00 Single
1091 VFJ 114G7046 20/08/2011 2011-09-20 14:00 2011-09-20 14:00 CLOTH FOR SHIRT COTTON KHAKI,CLOTH FOR PANT COTTON KHAKI,   0.00 Single
1092 VFJ 114P1204 20/08/2011 2011-09-13 14:00 2011-09-13 14:00 MICROPIPETTE FOR EXCLUSIVE USE,   0.00 Single
1093 FGK 310421 20/08/2011 2012-01-03 00:00 2012-01-03 00:00 T/S M35 HSS TWIST DRILL SIZE,T/S CARBIDE TIP REAMER SIZE-39,REAMER CARBIDE BRAZED P/S SIZE,   0.00 Single
1094 FGK 310423 20/08/2011 2011-11-15 00:00 2011-11-15 00:00 REGISTER RULLED THREE QUIRS OR,REGISTER RULLED TWO QUIRES OR,   0.00 Single
1095 FGK 310424 20/08/2011 2011-12-15 00:00 2011-12-15 00:00 HIGH PRECISION KEY LESS DRILL,HIGH PRECISION KEY LESS DRILL,   0.00 Single
1096 FGK 310425 20/08/2011 2012-02-16 00:00 2012-02-16 00:00 P/S END MILL CUTTER M42 ROUGH,CUTTER END MILL P/S SHORT SERI,END MILL P/S 8%CO M42HSS 4/6 F,END MILL CUTTER 25MM DIA DRG.N,   0.00 Single
1097 FGK 310426 20/08/2011 2012-01-03 00:00 2012-01-03 00:00 END MILL CUTTER P/S SIZE-25 MM,CUTTER END MILL P/S SIZE 30X60,CUTTER END MILL P/S 30 DIA.DRG,   0.00 Single
1098 OFPM T1441 20/08/2011 2011-09-13 14:00 2011-09-13 15:00 HSS SIDE & FACE CUTTER ST.TEETH 100X8X32 HSS SIDE FACE MILLING 125X32X22MM HSS SIDE & FACE MILLING CUTTER 125X32X18   0.00 Single
1099 OFPM T1451 20/08/2011 2011-09-20 14:00 2011-09-20 15:00 SOLID CARBIDE DRILL DIA:8.5MM. BORING TOOL HOLDER S 50 PCLNR 19   0.00 Single
1100 OFPM T1461 20/08/2011 2011-09-20 14:00 2011-09-20 15:00 M35 P/S END MILL(LONG) DIA:16.0MM HSS TWIST DRILL T/S 17.50MM M35 HAND TAPS M10 X 1.0, IS:6175-77 GROUND THREAD L/S MACHINE TAPS M3X0.5.MM   0.00 Single
1101 OFPM T1471 20/08/2011 2011-09-20 14:00 2011-09-20 15:00 HSS P/S END MILLS 12XOAL76MM(12X26X76MM) HSS P/S END MILLS DIA 22.0MMX20X38X101MM   0.00 Single
1102 OFPM V1181 20/08/2011 2011-09-14 14:00 2011-09-14 15:00 TURRET ELEC. WIRES TO DRG NO 675-97-Cb5   0.00 Single
1103 HAPP 11/0215 20/08/2011 2011-09-16 14:00 2011-09-16 14:30 VERNIER CLAIPER DIGITAL 0-150MM,0.01MM   0.00 Single
1104 HAPP 11/0216 20/08/2011 2011-09-16 14:00 2011-09-16 14:30 POLYURETHANE SHEET,SIZE:5MMX900MMX900MM   0.00 Single
1105 HAPP 11/0217 20/08/2011 2011-09-30 14:00 2011-09-30 14:30 BALL VALVES SIZE : 20MM   0.00 Single
1106 HAPP 11/0218 20/08/2011 2011-09-23 14:00 2011-09-23 14:30 STEEL ROD,SPCN:BS-970(PT-1)-83 070 M20   0.00 Single
1107 GIF 0235111220 20/08/2011 2011-09-29 15:00 2011-09-29 15:00 HYDRAULIC RETURN LINE FILTER FOR 10   0.00 Single
1108 OFDR 2011000166 20/08/2011 2011-09-13 14:30 2011-09-13 15:00 1. HEXANE ( COMMERCIAL GRADE)TO   3.00 Single
1109 OFDR 2011000167 20/08/2011 2011-10-18 14:30 2011-10-18 15:00 1. BOMB CLAORIMETER   2.00
1110 OFDR 2011000168 20/08/2011 2011-10-21 14:30 2011-10-21 15:00 1. TABLETTING MACHINE   2.00 Single
1111 OFDR 2011000169 20/08/2011 2011-09-13 14:30 2011-09-13 15:00 1. STRONTIUM NITRATE SIEVE SIZE 125   3.00 Single
1112 AFK 20110519 19/08/2011 2011-09-20 14:00 2011-09-20 14:30 SPARE PART FOR ELGI SCREW E-30, SPARE PART ELGI SCREW 010451050, SPARE PART FOR ELGI SCREW 24 VDC, SPARE PART FOR SCREW B 224301, SPARE PART SCREW PT.NO. 220210529 ETC.   0.00 Single
1113 AFK 20110520 19/08/2011 2011-08-30 14:00 2011-08-30 14:30 BRASS STRIP 0.40MM X 38MM WIDE   0.00 Single
1114 AFK 20110520OP 19/08/2011 2011-09-06 14:00 2011-09-06 14:30 BRASS STRIP 0.40MM X 38MM WIDE   0.00 Single
1115 AFK 20110521 19/08/2011 2011-09-13 14:00 2011-09-13 14:30 STENCILING OF BOX H2A, CARRIER 6A   0.00 Single
1116 OEFC 20110398 19/08/2011 2011-08-19 13:30 2011-08-19 14:00 COTTON SEWING THREAD 270 D TEX/9 BLACK   0.00 Single
1117 OEFC 20110399 19/08/2011 2011-08-19 13:30 2011-08-19 14:00 COTTON SEWING THREAD 270 D TEX/9 BLACK   0.00 Single
1118 OEFC 20110402 19/08/2011 2024-12-30 13:30 2024-12-30 14:00 BRASS TUBE OD 6.5 MM X1.6 MM WALL THICK X216 MM +/2-/0 LONG   20600.00 Single
1119 OEFC 20110403 19/08/2011 2011-08-19 13:30 2011-08-19 14:00 TRADE ASSISTANCE FOR COMPLETE FINISHING OPERATION TO BE CARRIED OUT FOR BOOT VARIOUS   0.00 Single
1120 OEFC 20110405 19/08/2011 2011-08-19 13:30 2011-08-19 14:00 FULL SOCKS LEATHER WITH EVA CUSHION SIZE-7M   0.00 Single
1121 OEFC 20110409 19/08/2011 2011-08-19 13:30 2011-08-19 14:00 SCREEN IMPRESSION OF OEF LOGO WITH MONTH & YEAR IDENTIFICATION AT MADE UP BOOT   0.00 Single
1122 OEFC 20110412 19/08/2011 2011-08-19 13:30 2011-08-19 14:00 S.M.SHEET 1X1250X3600 MM   0.00 Single
1123 MSF 11TE230283 19/08/2011 2011-09-02 14:30 2011-09-02 14:30 CONDUCTION OF TRAINING ON EMS ISO etc.   Single
1124 GCF 110203SA56 19/08/2011 2011-09-15 10:30 2011-09-15 11:00 RECEIVER TO DRG.NO.SG-005.   0.00 Single
1125 GCF 11W008L756 19/08/2011 2011-09-29 10:30 2011-09-29 11:00 TIMBER TEAK 125X135X50MM. T/SAL LOGS SIZE:-1500&UPX910&UP MM   0.00 Single
1126 RFI DTB3180364 19/08/2011 2011-09-23 14:00 2011-09-23 14:30 Purchase of BORING TOOLHOLDER S 16 Q, BORING INSERT DCMT 0702, INSERT SCREW SUITABLE,   0.00 Single
1127 RFI DTB3180365 19/08/2011 2011-09-23 14:00 2011-09-23 14:30 Purchase of T-MAX THROW-AWAY COATED INSERT,   0.00 Single
1128 RFI DTB3180366 19/08/2011 2011-09-23 14:00 2011-09-23 14:30 Purchase of INSERT SCREW, INSERTED ENDMILL, INSERT ENDMILL,   0.00 Single
1129 RFI DTB3180367 19/08/2011 2011-09-23 14:00 2011-09-23 14:30 Purchase of PARTING TOOL HOLDER A3SML525, INSERT A360405 M0417, TOOL HOLDER,   0.00 Single
1130 RFI DZB0590053 19/08/2011 2011-09-07 14:00 2011-09-07 14:30 Purchase of HIRING OF NON AC INDICA,   0.00 Single
1131 CFA 11PVTE0335 19/08/2011 2011-09-14 13:00 2011-09-14 14:00 DIETHYL DITHIO CARBAMATE,LRSODIUM DI-OCTYL SULPHO SUCCINA   0.00 Single
1132 GSF 1100000594 19/08/2011 2011-09-12 00:00 2011-09-12 00:00 SUPERFINE MINICATE RICE,   0.00 Single
1133 GSF 1100000595 19/08/2011 2011-09-15 00:00 2011-09-15 00:00 OIL COCOANUT SPECN.IND/SL/2626(A),   0.00 Single
1134 GSF 1100000596 19/08/2011 2011-09-19 00:00 2011-09-19 00:00 CURTILARY ITEMS AS PER LIST OF 12 ITEMS.,   0.00 Single
1135 GSF 1100000597 19/08/2011 2011-09-19 00:00 2011-09-19 00:00 BEDDING ITEMS AS PER LIST OF 5 NOS ITEMS,   0.00 Single
1136 GSF 1100000598 19/08/2011 2011-09-15 00:00 2011-09-15 00:00 ANGULAR CONTACT BALL BRG.TYPE:7209 A5 TR DUL P3,   0.00 Single
1137 GSF 1100000599 19/08/2011 2011-09-15 00:00 2011-09-15 00:00 FIRE BRICKS:7"X4-1/2"X3/4" TO 1400 CENTRIGRADE.,   0.00 Single
1138 GSF 1100000600 19/08/2011 2011-10-13 00:00 2011-10-13 00:00 NOT AVAILABLE   0.00 Single
1139 GSF 1100000602 19/08/2011 2011-10-17 00:00 2011-10-17 00:00 NOT AVAILABLE   0.00 Single
1140 OCFS 2011000127 19/08/2011 2011-09-13 14:30 2011-09-13 15:00 1110006100370 YAMATO CZ6003-04DF/K2,1110006200022 YAMATO CZ6003-04DF/K2,1110006200097 YAMATO CZ6003-04DF/K2,1110006209301 YAMATO CZ6003-04DF/K2,1110006209300 YAMATO CZ6003-04DF/K2   0.00 Single
1141 OCFS 2011000130 19/08/2011 2011-08-20 14:30 2011-08-20 15:00 BOX FIBR BOARD RIGID CORRU TRIP7PLY   0.00 Single
1142 OFKAT 2011000203 19/08/2011 2011-09-15 14:30 2011-09-15 14:30 STRIPPER FOR BR.CUP 7.62MM(NAT   0.00 Single
1143 OFK 11CST-0587 19/08/2011 2011-09-02 14:30 2011-09-02 13:00 PLYWOOD BOX FOR PACKIN 84MM HE&ILLU   0.00 Single
1144 OFDUN 0482-11 19/08/2011 2011-09-06 00:00 2011-09-06 00:00 STONE DUST,GREY COLOUR   0.00 Single
1145 OFDUN 0483-11 19/08/2011 2011-09-06 00:00 2011-09-06 00:00 POLY URATHINE PIPE PUN 6X1MM,P.V.C BRAIDED PIPE I/D 10MM,NYLON BRAIDED PIPE 1/2" DIA,P.V.C.FLEXIBLE,   0.00 Single
1146 OFDUN 0484-11 19/08/2011 2011-09-09 00:00 2011-09-09 00:00 LENS BOND (U/V) J-91   0.00 Single
1147 OFDUN 0485-11 19/08/2011 2011-09-09 00:00 2011-09-09 00:00 SUPPLY OF GI DUCT HOOD   0.00 Single
1148 OFDUN 0486-11 19/08/2011 2011-09-09 00:00 2011-09-09 00:00 PUMP HYDRAULIC AR16,FRO1B,7MPA   0.00 Single
1149 OFDUN 0487-11 19/08/2011 2011-09-09 00:00 2011-09-09 00:00 PHENOL FORMALDEHYDE POWDER   0.00 Single
1150 OFDUN 0488-11 19/08/2011 2011-09-06 00:00 2011-09-06 00:00 3 POLE POWER CONTACTOR 16 AMP   0.00 Single
1151 OFDUN 0489-11 19/08/2011 2011-09-13 00:00 2011-09-13 00:00 SCREW SOCKET CAP HEAD M-4X10,SCREW HEX.SOCKET HD CAP M3X6.5,SCREW SOCKET M4X30,GRUB SCREW SOCKET M8X   0.00 Single
1152 OFDUN 0490-11 19/08/2011 2011-09-06 00:00 2011-09-06 00:00 TELEPHONE ARM0URED CABLE 50 PR   0.00 Single
1153 OFDUN 0491-11 19/08/2011 2011-09-06 00:00 2011-09-06 00:00 MAINTENANCE FREE BATTERY   0.00 Single
1154 OFDUN 0492-11 19/08/2011 2011-09-09 00:00 2011-09-09 00:00 3 POLE MCCB, RATED CURRENT   0.00 Single
1155 OFDUN 0493-11 19/08/2011 2011-09-13 00:00 2011-09-13 00:00 ARM RANGE TO DRG.MCT-2612,REFLECTOR ASSEM.DRG.NO.CII 660,POCKET CELL TO DRG NO MCT-1343   0.00 Single
1156 SAF 3113000572 19/08/2011 2011-09-23 14:30 2011-09-23 15:00 GOGGLES FOR GRINDER 3M QUALIT,   0.00 Single
1157 SAF 3113000573 19/08/2011 2011-09-23 14:30 2011-09-23 15:00 STARTER FOR 40W TUBE LIGHT MAK,TAPE BLACK ADHESIVE PVC 20MM W,   0.00 Single
1158 SAF 3113000574 19/08/2011 2011-09-16 14:30 2011-09-16 15:00 VOLTAGE STABLIZER EQUIPPED WIT,AUTOMATIC VOLTAGE STABILIZER 5,   0.00 Single
1159 SAF 3113000575 19/08/2011 2011-09-13 14:30 2011-09-13 15:00 APPRON COTTON BLUE DRILL OF SU,   0.00 Single
1160 SAF 3113000576 19/08/2011 2011-09-13 14:30 2011-09-13 15:00 COPPER TUBULAR TERMINALS END L,COPPER TUBULAR TERMINALS END,COPPER TUBULAR TERMINAL END LU,   0.00 Single
1161 SAF 3113000577 19/08/2011 2011-09-13 14:30 2011-09-13 15:00 TONAR CARTRIDGE NO.2612A,   0.00 Single
1162 SAF 3113000578 19/08/2011 2011-09-13 14:30 2011-09-13 15:00 EAR PLUG 3M CORDED REUSABLE EA,   0.00 Single
1163 SAF 3113000579 19/08/2011 2011-09-13 14:30 2011-09-13 15:00 HEAVY DUTY WALL MOUNTING AIR C,   0.00 Single
1164 SAF 3113000580 19/08/2011 2011-09-13 14:30 2011-09-13 15:00 THREE PHASE 415 VOLT DIRECT ON,   0.00 Single
1165 SAF 3113000585 19/08/2011 2011-09-13 14:30 2011-09-13 15:00 SCROLL COMPRESSOR, MAKE: - COP,   0.00 Single
1166 SAF 3113000586 19/08/2011 2011-09-13 14:30 2011-09-13 15:00 MARKING STYLUS PIN FOR PIN STA,   0.00 Single
1167 SAF 3113000587 19/08/2011 2011-09-13 14:30 2011-09-13 15:00 RIBBON BLACK WIPRO PRINTRONIX,CARTRIDGE (COLOUR) 57a FOR,CARTRIDGE (BLACK) HP-56a FOR,   0.00 Single
1168 SAF 3113000588 19/08/2011 2011-09-13 14:30 2011-09-13 15:00 LADIES SAFETY SHOES WITH SOFT,LADIES SAFETY SHOES WITH SOFT,LADIES SAFETY SHOES WITH SOFT,LADIES SAFETY SHOES WITH SOFT,LADIES SAFETY SHOES WITH SOFT,LADIES SAFETY SHOES WITH SOFT,LADIES SAFETY SHOES   0.00 Single
1169 SAF 3113000590 19/08/2011 2011-09-20 14:30 2011-09-20 15:00 PLAN SET MODEL PROTON 103 MAKE,   0.00 Single
1170 MPF 3100411 19/08/2011 2011-09-09 14:30 2011-09-09 14:30 FACE GROOVING TOOL SET(BLADE,HOLDER;   0.00 Single
1171 MPF 3100412 19/08/2011 2011-09-09 14:30 2011-09-09 14:30 ID GROOVING TOOL SET.;   0.00 Single
1172 MPF 3100413 19/08/2011 2011-09-13 14:30 2011-09-13 14:30 WHEEL GR 200X40X31.75MM 38A46K5VBE; CBN GRINDING WHEEL SIZE 50.8X5X20; CBN GRINDING WHEEL 100 MM DIA X 4MM; WHEEL GR 200X25X31.75MM GC60K5V4; GRINDING WHEEL TYPE-1.200X16X50.8.M; GRINDING WHEEL PLAIN   0.00 Single
1173 MPF 3100414 19/08/2011 2011-09-13 14:30 2011-09-13 14:30 NI DEVELOPER SUITE 2011,DS1 EDITION; NI DEVELOPER SUITE-AUTOMATED.;   0.00 Single
1174 MPF 3100415 19/08/2011 2011-09-13 14:30 2011-09-13 14:30 AC FEED DR,MOTOR,UDC LINK 600V.; SY.SER.MOTOR 1FK7,COM 11NM,100K.; SIMODRIVE 611 INFEED/REGENERATIVE.;   0.00 Single
1175 MPF 3100416 19/08/2011 2011-09-09 14:30 2011-09-09 14:30 INSERT R216 16 03 MM 4040; TOOL HOLDER PCLNL 2525 12; INSERT VBMT 160408 3005; INSERT SCREW 551302601 ( M4 ); INSERT N 151 2 400 05 5E GC 4025; BORING HEAD R-571.35C-504035-15.; T MAX TOOL HOLDER   0.00 Single
1176 MPF 3100417 19/08/2011 2011-09-13 14:30 2011-09-13 14:30 STEEL RD 70MM DIA,SPCN.40C8,IS:5517;   0.00 Single
1177 MPF 3100420 19/08/2011 2011-08-19 14:30 2011-08-19 14:30 TIN SOLDER STICK(TIN 80%+LEAD 20%);   0.00 Single
1178 OFBA 110349 19/08/2011 2011-09-27 14:30 2011-09-27 14:30 ROAD TRPORT OF EXPL.TO O.F.CH.   176300.00 Single
1179 OFBA 110350 19/08/2011 2011-09-15 14:30 2011-09-15 14:30 HIRING OF TATA INDIGO/ESTEEM/S   0.00 Single
1180 OFBA 110351 19/08/2011 2011-09-15 14:30 2011-09-15 14:30 HIRING OF NON A/C INDICA/SWIFT   0.00 Single
1181 HVF 0108181 19/08/2011 2011-09-02 12:00 2011-09-02 15:00 CONICAL PART OF POURING POT , etc.   0.00 Single
1182 HVF 0108182 19/08/2011 2011-08-25 12:00 2011-08-25 15:00 ROD, GEAR BOX ASSY. , etc.   0.00 Single
1183 HVF 0410350 19/08/2011 2011-09-14 12:00 2011-09-14 15:00 MOUNTING OF PUMP , etc.   0.00 Single
1184 HVF 0410351 19/08/2011 2011-09-14 12:00 2011-09-14 15:00 USCE VALVE ASSY. , etc.   0.00 Single
1185 HVF 0410352 19/08/2011 2011-09-14 12:00 2011-09-14 15:00 WATER OVERFLOW HOLE CONTROL ASSY. , etc.   0.00 Single
1186 HVF 0510469 19/08/2011 2011-09-16 12:00 2011-09-16 15:00 HIRING OF 1 NO. NON A/C TATA SUMO VAN , etc.   0.00 Single
1187 HVF 0701746 19/08/2011 2011-09-15 12:00 2011-09-15 15:00 38XC,GOST:4543-71,HOT ROLLED , etc.   0.00 Single
1188 OFAJ NS2110037 19/08/2011 2011-09-14 14:00 2011-09-14 15:00 ARGON GAS 99.998% PURITY   0.00 Single
1189 OFAJ TS2110061 19/08/2011 2011-09-21 14:00 2011-09-21 15:00 COCENTRI.GAUGE TO DRG.NO.FS/G-1291B, POSITION GAUGE TO DRG. FS/WG-3662A., POSITION GAUGE TO DRG. FS/WG-3678C., POSITION GAUGE TO DRG. NO.FS/G-3621, POSITION GAUGE TO DRG.NO.FS/G-2451., POSITION GAUGE,   0.00 Single
1190 OFAJ TS2110062 19/08/2011 2011-09-21 14:00 2011-09-21 15:00 CONC. GAUGE TO DRG. NO. FS/G-2391., PLUNGER GAUGE TO DRG.NO. FS/G-1631., POSITION GAUGE TO DRG NO.FS/G-2387B, POSITION GAUGE TO DRG. NO. DC/G-84A, POSITION GAUGE TO DRG.NO.FS/G-2498A, POSITION GAUGE T   0.00 Single
1191 OFT A010R89889 19/08/2011 2011-09-08 14:30 2011-09-08 15:00 GLASS TUMBLER MEDIUM(200 ML ,PEN SET (BALL POINT &FOUNTAIN ,FLASK SMALL 500 ML ,TOWEL BATH(TURKEY TYPE SIZE   0.00 Single
1192 OFT A22UD48131 19/08/2011 2011-09-06 14:30 2011-09-06 15:00 INPUT BLANK BODY (TEND2108*4)   0.00 Single
1193 OFT A556D89883 19/08/2011 2011-09-08 14:30 2011-09-08 15:00 PREMACHINING OF GUIDE C1007   0.00 Single
1194 OFT A556D89884 19/08/2011 2011-09-13 14:30 2011-09-13 15:00 PRE-MACHINING OF C1048   0.00 Single
1195 OFT A556E89885 19/08/2011 2011-09-13 14:30 2011-09-13 15:00 C5052 WIRE PIN   0.00 Single
1196 OFT A556E89886 19/08/2011 2011-09-13 14:30 2011-09-13 15:00 C1068 LOWER PIN   0.00 Single
1197 OFT A556E89887 19/08/2011 2011-09-13 14:30 2011-09-13 15:00 C1038 LOCK PIN   0.00 Single
1198 FGK 310431 19/08/2011 2011-08-19 00:00 2011-08-19 00:00 tRANSPORTATION FROM FGK TO AVA,   0.00 Single
1199 OFPM C1231 19/08/2011 2011-08-25 14:00 2011-08-25 15:00 BAKELITE VARNISH LBS-1,REDDISH BROWN COL   0.00 Single
1200 OFPM H1001 19/08/2011 2011-10-12 14:00 2011-10-12 15:00 BALL (PLASTIC)WII-2 TY-6-05-211-1169-78   0.00 Single
1201 OFPM R631 19/08/2011 2011-09-09 14:00 2011-09-09 15:00 ALUMINIUM CHEQUERED PLATE 6MM   0.00 Single
1202 OFPM R641 19/08/2011 2011-09-23 14:00 2011-09-23 15:00 ST.PIPE 15X1.5 X STD.LENGTH. STEEL TUBE DIA 38 X 1 MM.   0.00 Single
1203 OFPM S1211 19/08/2011 2011-09-13 14:00 2011-09-13 15:00 CONTACT TIP DIA 1.6MM PART NO.1591 Q TUBE ASSEMBLY 3-45 DEG FOR BERNARD MIG Q TUBE ASSEMBLY 5-60 DEG FOR BERNARD MIG   0.00 Single
1204 OFPM V1171 19/08/2011 2011-09-14 14:00 2011-09-14 15:00 CABLE TO DRG.6755-86-cd1943(CX5607) CABLE TO DRG.NO:6755-86-CD1943-1(CX5607)   0.00 Single
1205 HAPP 11/0213 19/08/2011 2011-09-18 14:00 2011-09-18 14:30 SET OF BOMB BODY FORGINGS-F/P,R/P-M/C   0.00 Single
1206 HAPP 11/0214 19/08/2011 2011-09-16 14:00 2011-09-16 14:30 ONLOAD VOLTAGE REGULATOR,75A,99KVA   0.00 Single
1207 EFA 111311 19/08/2011 2011-09-13 00:00 2011-09-13 00:00 PACKING RING   0.00 Single
1208 EFA 111312 19/08/2011 2011-09-13 00:00 2011-09-13 00:00 ROUND PIN 8 C3 X 22   0.00 Single
1209 EFA 111313 19/08/2011 2011-09-13 00:00 2011-09-13 00:00 PIN 5 X 12   0.00 Single
1210 EFA 111314 19/08/2011 2011-09-13 00:00 2011-09-13 00:00 COTTER PIN 4X36   0.00 Single
1211 EFA 111315 19/08/2011 2011-09-13 00:00 2011-09-13 00:00 RING 30X36   0.00 Single
1212 EFA 111316 19/08/2011 2011-09-13 00:00 2011-09-13 00:00 RING   0.00 Single
1213 EFA 111317 19/08/2011 2011-09-13 00:00 2011-09-13 00:00 LOCK WASHER 10   0.00 Single
1214 EFA 111318 19/08/2011 2011-09-16 00:00 2011-09-16 00:00 CLAMP   0.00 Single
1215 EFA 111319 19/08/2011 2011-09-16 00:00 2011-09-16 00:00 WASHER BRIGHT 6   0.00 Single
1216 EFA 111320 19/08/2011 2011-09-16 00:00 2011-09-16 00:00 WASHER 18H 65G 06   0.00 Single
1217 EFA 111321 19/08/2011 2011-09-16 00:00 2011-09-16 00:00 PROTECTIVE BUSHING   0.00 Single
1218 EFA 111322 19/08/2011 2011-09-16 00:00 2011-09-16 00:00 PIN 8 X 27   0.00 Single
1219 EFA 111323 19/08/2011 2011-09-13 00:00 2011-09-13 00:00 ROUND PIN 6 C 3 X 20   0.00 Single
1220 EFA 111324 19/08/2011 2011-09-16 00:00 2011-09-16 00:00 UNION   0.00 Single
1221 EFA 111325 19/08/2011 2011-09-16 00:00 2011-09-16 00:00 UNION   0.00 Single
1222 EFA 111326 19/08/2011 2011-09-16 00:00 2011-09-16 00:00 CONNECTOR   0.00 Single
1223 EFA 111327 19/08/2011 2011-09-16 00:00 2011-09-16 00:00 NUT M10X1   0.00 Single
1224 EFA 111328 19/08/2011 2011-09-16 00:00 2011-09-16 00:00 WOOD ROUGH KEY   0.00 Single
1225 EFA 111329 19/08/2011 2011-09-16 00:00 2011-09-16 00:00 GASKET   0.00 Single
1226 EFA 111330 19/08/2011 2011-09-16 00:00 2011-09-16 00:00 PIPE   0.00 Single
1227 EFA 111331 19/08/2011 2011-09-16 00:00 2011-09-16 00:00 COTTER PIN 2X12   0.00 Single
1228 EFA 111332 19/08/2011 2011-09-16 00:00 2011-09-16 00:00 GASKET   0.00 Single
1229 EFA 111333 19/08/2011 2011-09-20 00:00 2011-09-20 00:00 BUSH (OG)R1   0.00 Single
1230 EFA 111334 19/08/2011 2011-09-20 00:00 2011-09-20 00:00 WASHER   0.00 Single
1231 EFA 111335 19/08/2011 2011-09-20 00:00 2011-09-20 00:00 LOCK WASHER   0.00 Single
1232 EFA 111336 19/08/2011 2011-09-20 00:00 2011-09-20 00:00 YOKE; YOKE; YOKE;   0.00 Single
1233 EFA 111337 19/08/2011 2011-09-20 00:00 2011-09-20 00:00 COTTER PIN 2 X 20   0.00 Single
1234 EFA 111338 19/08/2011 2011-09-20 00:00 2011-09-20 00:00 COTTER PIN 3.2 X 25   0.00 Single
1235 EFA 111339 19/08/2011 2011-09-20 00:00 2011-09-20 00:00 GASKET   0.00 Single
1236 EFA 111340 19/08/2011 2011-09-20 00:00 2011-09-20 00:00 ROUND PIN 4 C 3 X 18   0.00 Single
1237 EFA 111341 19/08/2011 2011-09-20 00:00 2011-09-20 00:00 ROUND PIN 6C3 X 14   0.00 Single
1238 EFA 111342 19/08/2011 2011-09-20 00:00 2011-09-20 00:00 BRIGHT WASHER 9   0.00 Single
1239 EFA 111343 19/08/2011 2011-09-20 00:00 2011-09-20 00:00 WASHER 14   0.00 Single
1240 EFA 111344 19/08/2011 2011-09-20 00:00 2011-09-20 00:00 BRIGHT WASHER 10   0.00 Single
1241 EFA 111345 19/08/2011 2011-09-20 00:00 2011-09-20 00:00 BRIGHT WASHER 10   0.00 Single
1242 EFA 111346 19/08/2011 2011-09-20 00:00 2011-09-20 00:00 NUT M9   0.00 Single
1243 OLF 1106012408 19/08/2011 2011-09-19 15:00 2011-09-19 15:00 EMERY POWDER GRADE-180,EMERY POWDER GRADE-302.5,EMERY POWDER GRADE-303.5   0.00 Single
1244 OLF 1106012409 19/08/2011 2011-09-19 15:00 2011-09-19 15:00 SUPER WIZ IN 2 GMS.TUBE PACK   0.00 Single
1245 OLF 1106012410 19/08/2011 2011-09-19 15:00 2011-09-19 15:00 LIQUOR AMMONIA 30% PURE   0.00 Single
1246 GIF 0234111258 19/08/2011 2011-08-25 15:00 2011-08-25 15:00 SUPPLY & COMMISSIONING OF VAP MK-8   0.00 Single
1247 OFDR 2011000165 19/08/2011 2011-09-13 14:30 2011-09-13 15:00 1. CUBICAL HOUSING SEGMENT FOR PINAKA   2.00 Single
1248 AFK 20110506 18/08/2011 2011-09-16 14:00 2011-09-16 14:30 GI PIPE"WATER HEAY QLTY 100MMX5.4MM   0.00 Single
1249 AFK 20110507 18/08/2011 2011-09-16 14:00 2011-09-16 14:30 STORAGE BATTERY 12V 180 ATT CAPACIT   0.00 Single
1250 AFK 20110508 18/08/2011 2011-09-16 14:00 2011-09-16 14:30 TUBULAR FLOURESCENT LAMPS   0.00 Single
1251 AFK 20110509 18/08/2011 2011-09-16 14:00 2011-09-16 14:30 TRANSP. BOMB 81MM FROM OFCHANDA-AFK   0.00 Single
1252 AFK 20110510 18/08/2011 2011-09-16 14:00 2011-09-16 14:30 TILTING ROTARY TABLE   0.00 Single
1253 AFK 20110511 18/08/2011 2011-09-02 14:00 2011-09-02 14:30 ARRANGEMT. OF ELECTRONIC VOTING M/C   0.00 Single
1254 AFK 20110512 18/08/2011 2011-09-16 14:00 2011-09-16 14:30 AIR CIR.INDU.,WALL MOUNTING ARRANGE   0.00 Single
1255 AFK 20110513 18/08/2011 2011-09-16 14:00 2011-09-16 14:30 TABLE FOR WORKSTATION : GODREJ MAKE, CHAIRS : MAKE :- GODREJ INTERIO ETC.   0.00 Single
1256 AFK 20110514 18/08/2011 2011-09-16 14:00 2011-09-16 14:30 SET CONSISTING ONE SHAFT, FINGER HOLDER, BSP - 18-115, DOG FOR TRANSFER BAR AFK/CSP-4533 ETC.   0.00 Single
1257 AFK 20110515 18/08/2011 2011-09-16 14:00 2011-09-16 14:30 MS T. PHONE DISTRIBUTION BOX 10PAIR, MS T.PHONE DISTRIBUTION BOX 20 PAIR, MS T.PHONE DISTRIBUTION BOX 50 PAIR, MS T.PHONE DISTRIBUTION BOX 100PAIR, MS T.PHONE DISTRIBUTION BOX 200PAIR ETC.   0.00 Single
1258 AFK 20110516 18/08/2011 2011-09-16 14:00 2011-09-16 14:30 MATRIX MAKE PROTON 205 INTERCOM SYS, PVC SINGLE PAIR TELEPHONE CABLE, JELLY PACKET (300GMS) ETC.   0.00 Single
1259 AFK 20110517 18/08/2011 2011-09-09 14:00 2011-09-09 14:30 CONTAINER 47B DES REF CIA/AMN/2483   0.00 Single
1260 AFK 20110518 18/08/2011 2011-09-09 14:00 2011-09-09 14:30 AMC FOR KM-2035 DIGITAL COPIER   0.00 Single
1261 OEFC 20110726 18/08/2011 2011-11-18 13:30 2011-11-18 14:00 TRANSPORTATION OF MADE UP STORES FROM OEF KANPUR TO O.F. CHANDA THROUGH CHT OF 15 MT CAP. (22' LONG) MAXIMUM DELIVERY TIME 07 DAYS   0.00 Single
1262 MSF 11TE210280 18/08/2011 2011-08-26 14:30 2011-08-26 14:30 SOLID DRILLING HEAD 67 MM DIA etc.   Single
1263 MSF 11TE220281 18/08/2011 2011-09-09 14:30 2011-09-09 14:30 MCB,16 AMPS,3 POLE,415 VOLTS. etc.   Single
1264 MSF 11TE220282 18/08/2011 2011-09-09 14:30 2011-09-09 14:30 TAPE ADESIVE 19MM(3/4")X0.25 MM TH. "DING-DONG" BELL 250 VOLTS. etc.   Single
1265 GCF 111197NB56 18/08/2011 2011-09-13 10:30 2011-09-13 11:00 LEATHER HAND GLOVES IS:2573-86   0.00 Single
1266 RFI ATB0100227 18/08/2011 2011-09-02 14:00 2011-09-02 14:30 Purchase of CHEST,RIFLE 5.56MM.(WOODEN),   0.00 Single
1267 RFI ATB0310225 18/08/2011 2011-09-12 14:00 2011-09-12 14:30 Purchase of STOCK BUTT (S/F),   0.00 Single
1268 RFI ATB0710226 18/08/2011 2011-09-09 14:00 2011-09-09 14:30 Purchase of STEM BOLT BREECH BLANK,   0.00 Single
1269 RFI DTB4270359 18/08/2011 2011-09-19 14:00 2011-09-19 14:30 Purchase of COMPOUND REAMER(HAND),   0.00 Single
1270 RFI DTB4270360 18/08/2011 2011-09-19 14:00 2011-09-19 14:30 Purchase of CUTTER H.S.S. SIDE 4-3/8"X1/2",   0.00 Single
1271 RFI DTB4270361 18/08/2011 2011-09-19 14:00 2011-09-19 14:30 Purchase of T-17643*3-S SLITTING SAW,   0.00 Single
1272 RFI DTB4270362 18/08/2011 2011-09-19 14:00 2011-09-19 14:30 Purchase of CUTTER SIDE & FACE 5" X 3/4" X,   0.00 Single
1273 RFI DTB6380358 18/08/2011 2011-09-19 14:00 2011-09-19 14:30 Purchase of T-04, DELTA DRILL DIA. 14.85MM,   0.00 Single
1274 RFI DTB8690357 18/08/2011 2011-09-23 14:00 2011-09-23 14:30 Purchase of TELESCOPIC COVER FOR TAL, TELESCOPIC COVER FOR TAL,   0.00 Single
1275 CFA 11PVTE0331 18/08/2011 2011-09-13 13:00 2011-09-13 14:00 SPARE PARTS FOR NAC PLANT:-   0.00 Single
1276 CFA 11PVTE0332 18/08/2011 2011-09-13 13:00 2011-09-13 14:00 BALL BEARING SKG 3207 ABALL BEARING SPHERICAL ROLLER   0.00 Single
1277 CFA 11PVTE0333 18/08/2011 2011-09-13 13:00 2011-09-13 14:00 CILICA GEL   0.00 Single
1278 CFA 11PVTE0334 18/08/2011 2011-09-13 13:00 2011-09-13 14:00 SEALING SET (S1012-M)PISTON GUIDE FOIL 23 X 2 X 116SCRAPPER RING WIPER AO1-B   0.00 Single
1279 GSF 1100000586 18/08/2011 2011-09-08 00:00 2011-09-08 00:00 THINNER FOR NC PAINT IS1873-1960,   0.00 Single
1280 GSF 1100000587 18/08/2011 2011-09-08 00:00 2011-09-08 00:00 G.M GATE VALVE 1/2"(15MM),   0.00 Single
1281 GSF 1100000588 18/08/2011 2011-09-08 00:00 2011-09-08 00:00 A.M.C. OF UPS 10 KVA,   0.00 Single
1282 GSF 1100000590 18/08/2011 2011-09-08 00:00 2011-09-08 00:00 RESPIRATORS FITTED WITH CARTRIDGE SUITABLE AGAINST, RESPIRATORS FITTED WITH CARTRIDGE SUITABLE AGAINST,   0.00 Single
1283 GSF 1100000591 18/08/2011 2011-10-13 00:00 2011-10-13 00:00 LAB.CHARGES FOR STATUARY EXAM.& CERTIFICATION FOR,   0.00 Single
1284 GSF 1100000592 18/08/2011 2011-09-12 00:00 2011-09-12 00:00 ACRYLIC SHEET 1.5MM X 1M WIDTH X 3MM THICK.,   0.00 Single
1285 GSF 1100000593 18/08/2011 2011-09-12 00:00 2011-09-12 00:00 PAINT GOLDEN YELLOW IS-2932-1975, PAINT SYNTHETIC ENAMEL WHITE, SYNTHETIC ENAMEL PAINT P.O. RED IS-5/1978,   0.00 Single
1286 OPF 110110400 18/08/2011 2011-09-06 14:00 2011-09-06 14:30 (1) FEED DOG 19.2 MM FOR SIEKO F/N   0.00 Single
1287 OPF 110110401 18/08/2011 2011-09-06 14:00 2011-09-06 14:30 (1) DIAL LINKING OF SOCKS (TRADE).   0.00 Single
1288 OPF 110110402 18/08/2011 2011-09-06 14:00 2011-09-06 14:30 (1) CYLINDER NEEDLES L/B 4 GG (2) DIAL NEEDLES L/B 6 GG   0.00 Single
1289 OPF 110110403 18/08/2011 2011-09-06 14:00 2011-09-06 14:30 (1) PRINTING OF VYOM DHARA PATRIKA   0.00 Single
1290 OPF 110110404 18/08/2011 2011-09-06 14:00 2011-09-06 14:30 (1) PRESSING FOR TROUSERS WH.ARMY LOGO (2) PRESSING FOR JACKET WITH ARMY LOGO (3) IRON PRSG.OF SHIRT D/D VISCOSE OG   0.00 Single
1291 OPF 110110405 18/08/2011 2011-09-06 14:00 2011-09-06 14:30 (1) HIRING OF LIGHT VEHICLE (JEEP/SUMO)   0.00 Single
1292 OFKAT 2011000202 18/08/2011 2011-09-13 14:30 2011-09-13 14:30 CABLE FLEXIBLE,ANNEALED TINNED, CABLE FLEXIBLE,ANNEALED TINNED, CABLE FLEXIBLE,ANNEALEDTINNED   0.00 Single
1293 OFK 11CST-0581 18/08/2011 2011-09-02 14:30 2011-09-02 13:00 PLUNGER BLANK FOR 84 HEAT-551.   0.00 Single
1294 OFK 11CST-0582 18/08/2011 2011-09-13 14:30 2011-09-13 13:00 ZINC BASED PHOSPHATING SOLUTION   0.00 Single
1295 OFK 11CST-0583 18/08/2011 2011-08-30 14:30 2011-08-30 13:00 ASSY & PAINTING OFCRATE 12A AS ENCL   0.00 Single
1296 OFK 11CST-0584 18/08/2011 2011-09-13 14:30 2011-09-13 13:00 CADMIUM PLATING SALT OR CANDSOL Z   0.00 Single
1297 OFK 11CST-0585 18/08/2011 2011-09-09 14:30 2011-09-09 13:00 FIRE POINT MS SQR PIPE 1",BEST QUALITY M.S. FIRE HOSE CABINET etc.   0.00 Single
1298 OFK 11CST-0586 18/08/2011 2011-09-09 14:30 2011-09-09 13:00 FIRE FIGHTING FIRE DRG NO.3216 SHET   0.00 Single
1299 OFDUN 0479-11 18/08/2011 2011-09-09 00:00 2011-09-09 00:00 OVERALL COMBINATION [ DANGRI ],APRON COTTON KHAKI   0.00 Single
1300 OFDUN 0480-11 18/08/2011 2011-09-09 00:00 2011-09-09 00:00 DMDDRILL25X80/100X100%2501/12   0.00 Single
1301 OFDUN 0481-11 18/08/2011 2011-09-09 00:00 2011-09-09 00:00 ENDMILL SOLID C 5X5X25CELX75MM,ENDMILL SOLID C 4X4X25CELX75MM   0.00 Single
1302 OFDUN C00411 18/08/2011 2011-10-04 00:00 2011-10-04 00:00 LIGHT SOURCE FOR MK-III   0.00 Single
1303 MPF 3100401 18/08/2011 2011-08-19 14:30 2011-08-19 14:30 BUSHING,SLEEVE DRG.NO.675-62-38.;   0.00 Single
1304 MPF 3100402 18/08/2011 2011-08-19 14:30 2011-08-19 14:30 HORIZONTAL CENTRIFUGAL PUMP.;   0.00 Single
1305 MPF 3100403 18/08/2011 2011-09-06 14:30 2011-09-06 14:30 FLUID DRIVEN WITH SHAFT172-47-015SB;   0.00 Single
1306 MPF 3100404 18/08/2011 2011-09-06 14:30 2011-09-06 14:30 LEVER WITH SWITCH ASSY.172.70.033SB;   0.00 Single
1307 MPF 3100405 18/08/2011 2011-09-09 14:30 2011-09-09 14:30 ENTERNAL TOOL HOLDERS FOR NEW CNC M;   0.00 Single
1308 MPF 3100406 18/08/2011 2011-09-09 14:30 2011-09-09 14:30 INTERNAL ISO HOLDERS FOR NEW CNC MC;   0.00 Single
1309 MPF 3100407 18/08/2011 2011-09-09 14:30 2011-09-09 14:30 PROFILE MASTER SET FOR NEW CNC.;   0.00 Single
1310 MPF 3100408 18/08/2011 2011-09-09 14:30 2011-09-09 14:30 XT-HOLEMATIC INTERNAL MICROMETER(XT;   0.00 Single
1311 MPF 3100409 18/08/2011 2011-09-13 14:30 2011-09-13 14:30 HARDNESS TEST BLOCK - 200/250 BHN; HARDNESS TEST BLOCK-400/450 BHN; HARDNESS TEST BLOCK -200/250 BHN; HARDNESS TEST BLOCK -400/450 BHN; HARDNESS TEST BLOCK - 20/25 RC; HARDNESS TEST BLOCK -40/45 RC;   0.00 Single
1312 MPF 3100410 18/08/2011 2011-08-19 14:30 2011-08-19 14:30 RING DRG.NO.700-42-24 (T-38-08).;   0.00 Single
1313 HVF 0108180 18/08/2011 2011-08-19 12:00 2011-08-19 15:00 LABOUR CONTRACT FOR CARRYING OUT THE JOB , etc.   0.00 Single
1314 HVF 0410340 18/08/2011 2011-09-07 12:00 2011-09-07 15:00 DIAPHRAGM , etc.   0.00 Single
1315 HVF 0410342 18/08/2011 2011-09-14 12:00 2011-09-14 15:00 PIN , etc.   0.00 Single
1316 HVF 0410343 18/08/2011 2011-09-07 12:00 2011-09-07 15:00 SUB ASSY FLOAT , etc.   0.00 Single
1317 HVF 0410344 18/08/2011 2011-09-07 12:00 2011-09-07 15:00 SEAL OIL , etc.   0.00 Single
1318 HVF 0410345 18/08/2011 2011-09-07 12:00 2011-09-07 15:00 HALF RING , etc.   0.00 Single
1319 HVF 0410346 18/08/2011 2011-09-07 12:00 2011-09-07 15:00 SCREW , etc.   0.00 Single
1320 HVF 0410347 18/08/2011 2011-09-07 12:00 2011-09-07 15:00 PIPE ASSY , etc.   0.00 Single
1321 HVF 0410348 18/08/2011 2011-09-07 12:00 2011-09-07 15:00 FASTENER , etc.   0.00 Single
1322 HVF 0510463 18/08/2011 2011-09-16 12:00 2011-09-16 15:00 INDUSTRIAL FLOURESCENT TUBE LIGHT , etc.   0.00 Single
1323 HVF 0510464 18/08/2011 2011-09-16 12:00 2011-09-16 15:00 HIRING OF 3 MT TRUCK FROM HVF AVADI TO , etc.   0.00 Single
1324 HVF 0510465 18/08/2011 2011-09-16 12:00 2011-09-16 15:00 HIRING OF 3 MT TRUCK FROM HVF TO , etc.   0.00 Single
1325 HVF 0510466 18/08/2011 2011-09-16 12:00 2011-09-16 15:00 HIRING OF 3 MT TRUCK FROM HVF AVADI , etc.   0.00 Single
1326 HVF 0510467 18/08/2011 2011-09-16 12:00 2011-09-16 15:00 HIRING OF 3 MT TRUCK FROM HVF AVADI TO , etc.   0.00 Single
1327 HVF 0510468 18/08/2011 2011-09-16 12:00 2011-09-16 15:00 HIRING OF 16 TON TAURUS FROM HVF AVADI , etc.   0.00 Single
1328 OFV 20110305 18/08/2011 1899-12-31 14:30 1899-12-31 15:00 SOAP CURD IN BARS.,   0.00 Single
1329 OFV 20110306 18/08/2011 1899-12-31 14:30 1899-12-31 15:00 BRASS STRIP 15MM FOR 5.56 PRIMERCUP,   0.00 Single
1330 OFAJ TS2110059 18/08/2011 2011-09-14 14:00 2011-09-14 15:00 NON-CONTACT TYPE AIR GAUGE SYSTEM., SCR.RING GAUGE TO DRG.NO.FS/G-4613A, SCREW RING GAUGE, DRG.NO.FS/G-4612A   0.00 Single
1331 OFAJ TS2110060 18/08/2011 2011-09-14 14:00 2011-09-14 15:00 OPTICAL BRINELL HARDNESS TESTING EQ   0.00 Single
1332 OFT A193D48128 18/08/2011 2011-09-13 14:30 2011-09-13 15:00 MFG & SUPPLY OF TRUNNION SLEEV   0.00 Single
1333 OFT A221D48129 18/08/2011 2011-09-15 14:30 2011-09-15 15:00 MFG.& SUPPLY OF HOUSING REAR   0.00 Single
1334 OFT A221E48127 18/08/2011 2011-09-13 14:30 2011-09-13 15:00 BLOCK REAR (R-6524) D.S CAT NO   0.00 Single
1335 OFT A440R48126 18/08/2011 2011-10-13 14:30 2011-10-13 15:00 SEALED MAINTENANCE FREE BATTER   0.00 Single
1336 VFJ 114V0060 18/08/2011 2011-09-13 13:00 2011-09-13 13:00 DISMANTALING OF MACHINES.,   0.00 Single
1337 VFJ 11AVA3218 18/08/2011 2011-08-25 14:30 2011-08-25 14:30 AIR PIPING MODULAR NYLON HOSE,   0.00 Single
1338 OFPM T1421 18/08/2011 2011-09-13 14:00 2011-09-13 15:00 SOLID CARBIDE T-SLOT CUTTER. SOLID CARBIDE SLAB CUTTER. SOLID CARBIDE END MILL. SOLID CARBIDE REAMER. INTERNAL GROOVING TOOL HOLDER. ETC.   0.00 Single
1339 OFPM T1431 18/08/2011 2011-09-20 14:00 2011-09-20 15:00 THROW AWAY INSERTED DESIGN PARTING TOOL THROW AWAY INSERTED DESIGN PARTING TOOL PARTING TOOL HOLDER SHANK 25 X 25X 5.   0.00 Single
1340 OFPM V1161 18/08/2011 2011-09-19 14:00 2011-09-19 15:00 GLASS CLOTH LSKL-155   0.00 Single
1341 EFA 111291 18/08/2011 2011-09-13 00:00 2011-09-13 00:00 RING 12 X 16   0.00 Single
1342 EFA 111292 18/08/2011 2011-09-13 00:00 2011-09-13 00:00 SPRING   0.00 Single
1343 EFA 111293 18/08/2011 2011-09-13 00:00 2011-09-13 00:00 SEALING RING   0.00 Single
1344 EFA 111294 18/08/2011 2011-09-13 00:00 2011-09-13 00:00 FEDDING TIE ROD   0.00 Single
1345 EFA 111295 18/08/2011 2011-09-13 00:00 2011-09-13 00:00 T-PIECE   0.00 Single
1346 EFA 111296 18/08/2011 2011-09-13 00:00 2011-09-13 00:00 BRUSH   0.00 Single
1347 EFA 111297 18/08/2011 2011-09-13 00:00 2011-09-13 00:00 WASHER 8T   0.00 Single
1348 EFA 111298 18/08/2011 2011-09-13 00:00 2011-09-13 00:00 WASHER   0.00 Single
1349 EFA 111299 18/08/2011 2011-09-13 00:00 2011-09-13 00:00 SUSPENSION CLIP   0.00 Single
1350 EFA 111300 18/08/2011 2011-09-13 00:00 2011-09-13 00:00 CLAMP   0.00 Single
1351 EFA 111301 18/08/2011 2011-09-30 00:00 2011-09-30 00:00 CAP NUT   0.00 Single
1352 EFA 111302 18/08/2011 2011-09-13 00:00 2011-09-13 00:00 CYLINDRICAL DOWEL   0.00 Single
1353 EFA 111303 18/08/2011 2011-09-13 00:00 2011-09-13 00:00 RING   0.00 Single
1354 EFA 111304 18/08/2011 2011-09-13 00:00 2011-09-13 00:00 GASKET   0.00 Single
1355 EFA 111305 18/08/2011 2011-09-23 00:00 2011-09-23 00:00 LOCKING RING   0.00 Single
1356 EFA 111306 18/08/2011 2011-09-13 00:00 2011-09-13 00:00 GASKET   0.00 Single
1357 EFA 111307 18/08/2011 2011-09-13 00:00 2011-09-13 00:00 LOCKING WOOD SCREW   0.00 Single
1358 EFA 111308 18/08/2011 2011-09-23 00:00 2011-09-23 00:00 LEVER SUPPORT   0.00 Single
1359 EFA 111309 18/08/2011 2011-09-13 00:00 2011-09-13 00:00 LEVER PIN   0.00 Single
1360 EFA 111310 18/08/2011 2011-09-23 00:00 2011-09-23 00:00 SPRING   0.00 Single
1361 EFA 115133 18/08/2011 2011-09-13 00:00 2011-09-13 00:00 SPANNER,OPEN JAW,DOUBLE ENDED   0.00 Single
1362 EFA 115134 18/08/2011 2011-09-13 00:00 2011-09-13 00:00 TWIST DRILL,LONG SERIES,HSS M35   0.00 Single
1363 EFA 115135 18/08/2011 2011-09-13 00:00 2011-09-13 00:00 TRIANGULAR ENGR.FILE W/W HANDLE; FILE,THREE SQUARE,SMOOTH; FILE,FLAT,BASTARD; FILE,FLAT,SMOOTH;   0.00 Single
1364 EFA 115136 18/08/2011 2011-09-23 00:00 2011-09-23 00:00 HALF ROUND ENGR.FILE W/O HANDLE; FILE,HALF ROUND,BASTARD; FILE,HALF ROUND,BASTARD,SIZE 8".; FILE,HALF ROUND,BASTARD;   0.00 Single
1365 EFA 115137 18/08/2011 2011-10-07 00:00 2011-10-07 00:00 HALF ROUND ENGR.FILE W/W HANDLE; HALF ROUND ENGR.FILE W/W HANDLE; ENGINEER'S FLAT FILE,ROUGH;   0.00 Single
1366 OFBOL 11120135 18/08/2011 2011-09-30 14:30 2011-09-30 14:30 CUPRO NICKEL STRIP [SIZE:26-0.2 (W)   0.00 Single
1367 OFDR 2011000157 18/08/2011 2011-08-26 14:30 2011-08-26 15:00 1. ACETONE TO SPECN JSS:170/1986   3.00 Single
1368 OFDR 2011000158 18/08/2011 2011-09-06 14:30 2011-09-06 15:00 1. FLOURESCENT LAMP 24 W, T-5   2.00 Single
1369 OFDR 2011000159 18/08/2011 2011-09-06 14:30 2011-09-06 15:00 1. PLASTIC/HDP CRATES   2.00 Single
1370 OFDR 2011000160 18/08/2011 2011-09-06 14:30 2011-09-06 15:00 1. WATER ELECTRO-CHLORINATOR   2.00 Single
1371 OFDR 2011000161 18/08/2011 2011-09-06 14:30 2011-09-06 15:00 1. STEEL ROUND 40 MM DIA COLD DRAWN   2.00 Single
1372 OFDR 2011000162 18/08/2011 2011-09-06 14:30 2011-09-06 15:00 1. LABEL FOR FOG SIGNAL ODR-500   2.00 Single
1373 OFDR 2011000163 18/08/2011 2011-09-06 14:30 2011-09-06 15:00 1. LABEL H 1555A   2.00 Single
1374 OFDR 2011000164 18/08/2011 2011-09-06 14:30 2011-09-06 15:00 1. GOVERNMENT EXPLOSIVE LABEL 1A-1000   2.00 Single
1375 AFK 20110483 17/08/2011 2011-08-30 14:00 2011-08-30 14:30 ONE NO.OF TATA SUMO   0.00 Single
1376 AFK 20110484 17/08/2011 2011-09-09 14:00 2011-09-09 14:30 SOLID ANGLE STEEL RACKS FOR X-RAY   0.00 Single
1377 AFK 20110485 17/08/2011 2011-09-09 14:00 2011-09-09 14:30 BRIEF CASES (ARISTOCRAT CONSUL)   0.00 Single
1378 AFK 20110486 17/08/2011 2011-09-09 14:00 2011-09-09 14:30 LAUNDRY SERVICES AT OFH, LAUNDRY SERVICES AT OFH, LAUNDRY SERVICES AT OFH ETC.   0.00 Single
1379 AFK 20110487 17/08/2011 2011-09-13 14:00 2011-09-13 14:30 OIL LUBUX 68/YANTROL 68   0.00 Single
1380 AFK 20110488 17/08/2011 2011-09-13 14:00 2011-09-13 14:30 TRANSFER DISC BULLET ASSY LSP 2170   0.00 Single
1381 AFK 20110489 17/08/2011 2011-09-13 14:00 2011-09-13 14:30 HDPE BAG LINED   0.00 Single
1382 AFK 20110490 17/08/2011 2011-09-13 14:00 2011-09-13 14:30 NICHROME WIRE 20 SWG, CHEMICAL.   0.00 Single
1383 AFK 20110491 17/08/2011 2011-09-13 14:00 2011-09-13 14:30 EXHAUST FAN SINGLE PHASE 18" SWEEP   0.00 Single
1384 AFK 20110492 17/08/2011 2011-09-13 14:00 2011-09-13 14:30 MCB DISTRIBUTION BOX POWDER COATED   0.00 Single
1385 AFK 20110493 17/08/2011 2011-09-13 14:00 2011-09-13 14:30 FERROUS SULPHATE L.R GRADE   0.00 Single
1386 AFK 20110494 17/08/2011 2011-09-13 14:00 2011-09-13 14:30 MODEM UNIT FOR BSNL BROAD BAND   0.00 Single
1387 AFK 20110495 17/08/2011 2011-09-13 14:00 2011-09-13 14:30 MULTI COIL ELECTRO MAGNETIC CHUCK   0.00 Single
1388 AFK 20110496 17/08/2011 2011-09-13 14:00 2011-09-13 14:30 TOOTH BELT 2MR-112-3 SIZE 3 X 112, TRANSPORT BELT 313X0.5X30, TRANSPORT BELT 412X0.5X30, DRIVE ROLLER 3 STRAPS ETC.   0.00 Single
1389 AFK 20110497 17/08/2011 2011-09-16 14:00 2011-09-16 14:30 BOLT TOWER IRON S-BARREL TYPE 150MM   0.00 Single
1390 AFK 20110498 17/08/2011 2011-09-20 14:00 2011-09-20 14:30 COTTON WASTE WHITE   0.00 Single
1391 AFK 20110499 17/08/2011 2011-09-20 14:00 2011-09-20 14:30 FIXED CONTACT FOR STARTER OSR TYPE   0.00 Single
1392 AFK 20110500 17/08/2011 2011-09-20 14:00 2011-09-20 14:30 CFL 23W,SCREW TYPE(THREADED), CFL 18W, PL 4 PIN CONNECTOR, P L TUBE 36/11 WATT BLL ( CFL B6W ), CFL 11W, 2PIN, NON-RETROFIT TYPE ETC.   0.00 Single
1393 AFK 20110501 17/08/2011 2011-09-20 14:00 2011-09-20 14:30 PUSH BUTTON OPERATED STARTER 2 H.P   0.00 Single
1394 AFK 20110502 17/08/2011 2011-09-20 14:00 2011-09-20 14:30 30AMP 250VOLTS D P SWITCH FUZE IVOR   0.00 Single
1395 AFK 20110503 17/08/2011 2011-09-20 14:00 2011-09-20 14:30 3 POLE POWER CONTRACTOR HAVING COIL   0.00 Single
1396 AFK 20110504 17/08/2011 2011-09-20 14:00 2011-09-20 14:30 SLIP RING UNIT ASSY TO 3PHAC MOTOR   0.00 Single
1397 AFK 20110505 17/08/2011 2011-09-20 14:00 2011-09-20 14:30 HT XLPE CABLE 95 SQMM 3 CORE(11 KV)   0.00 Single
1398 OEFC 20110357 17/08/2011 2011-09-12 13:30 2011-09-12 14:00 LT. WT. WEB COTTON O.G. THICK 63MM   0.00 Single
1399 OEFC 20110386 17/08/2011 2011-08-17 13:30 2011-08-17 14:00 WEB COTTON O.G. THIN /THICK OFF SIZES ( FOR CASES PISTOL WE PATT. 37 ) ONE SET CONSISTING OF:-   0.00 Single
1400 OEFC 20110387 17/08/2011 2011-09-07 13:30 2011-09-07 14:00 COTTON SEWING THREAD 165 DTEX/6 WHITE   9200.00 Single
1401 OEFC 20110395 17/08/2011 2011-08-17 13:30 2011-08-17 14:00 S.M. ANGLE 25X25X3 MM   0.00 Single
1402 MSF 11TE210279 17/08/2011 2011-09-14 14:30 2011-09-14 14:30 NOZZLE FILLING MIXTURE FOR SLIDE etc.   Single
1403 MSF 11TE230276 17/08/2011 2011-09-09 14:30 2011-09-09 14:30 EXT SCREW DIA GO & SQR FSG/1403 INT SCREW EFF DIA GO FSG/1407 etc.   Single
1404 GCF 110202GL56 17/08/2011 2011-08-17 10:30 2011-08-17 11:00 BEARING T ROLLER 57.15X97.63X24.608   0.00 Single
1405 RFI ATB0700223 17/08/2011 2011-09-09 14:00 2011-09-09 14:30 Purchase of STEEL RD SIZE 22 MM DIA,   0.00 Single
1406 RFI DTB3480354 17/08/2011 2011-09-19 14:00 2011-09-19 14:30 Purchase of T-10/INS,INS.TCMT 090204 UP525, T-10/INS-SCR, INSERT SCREW 551, T-10/B,T-MAX U-B/BAR R429.90-1,   0.00 Single
1407 RFI DTB3480356 17/08/2011 2011-09-19 14:00 2011-09-19 14:30 Purchase of COLLET CHUCK, COLLET CHUCK, SLA-16 X 63, SLA-20 X 63, SLA-25 X 100, SIDE LOCK ADAPTER BORE DIA 32, ISO 40 COLLET CHUCK., ER COLLET CHUCK WITH CYLINDRI.,   0.00 Single
1408 RFI DTB4470353 17/08/2011 2011-09-21 14:00 2011-09-21 14:30 Purchase of SEMICONDUCTOR FUSE 100 AMPS.,   0.00 Single
1409 RFI DTB7970351 17/08/2011 2011-09-16 14:00 2011-09-16 14:30 Purchase of COTTON WASTE WHITE,   0.00 Single
1410 RFI DTB8690352 17/08/2011 2011-09-21 14:00 2011-09-21 14:30 Purchase of NEEDLE ROLLER BEARING 12X15X10,   0.00 Single
1411 RFI DZB0590052 17/08/2011 2011-09-05 14:00 2011-09-05 14:30 Purchase of HIRING OF AC INDICA CAR,   0.00 Single
1412 CFA 11PVTE0328 17/08/2011 2011-09-13 13:00 2011-09-13 14:00 IRON SHEET GALVD PLAIN 24 SWG   0.00 Single
1413 CFA 11PVTE0329 17/08/2011 2011-09-13 13:00 2011-09-13 14:00 CONE FOR ESTIMATION OF VM   0.00 Single
1414 CFA 11PVTE0330 17/08/2011 2011-09-07 13:00 2011-09-07 14:00 NAILS WIRE IRON ROUND 100 MMNAILS WIRE IRON 75 MM (3") G 8   0.00 Single
1415 OCFS 2011000123 17/08/2011 2011-08-18 14:30 2011-08-18 15:00 CHT FOR TRANSP.TO 23 ED AVADI   0.00 Single
1416 OCFS 2011000124 17/08/2011 2011-08-18 14:30 2011-08-18 15:00 TAPE NEWAR POLYESTER OG 13 MM   0.00 Single
1417 OCFS 2011000125 17/08/2011 2011-08-18 14:30 2011-08-18 15:00 BUTTON PLASTIC 19MMOG AS PER DRG.NO   0.00 Single
1418 OCFS 2011000126 17/08/2011 2011-08-18 14:30 2011-08-18 15:00 POLYPROP STRAP.0.5MMTHICK&12MMWHITE   0.00 Single
1419 HEF TE11120115 17/08/2011 2011-09-08 00:00 2011-09-08 00:00 ELECTRO PNEUMATIC CONVERT2010970176   0.00 Single
1420 HEF TE11120116 17/08/2011 2011-09-08 00:00 2011-09-08 00:00 UNIVERSAL PID CONTROLLER 2010970175   0.00 Single
1421 OPF 110110397 17/08/2011 2011-09-06 14:00 2011-09-06 14:30 (1) CORDAGE NYLON BRAIDED BS-5331N   0.00 Single
1422 OPF 110110398 17/08/2011 2011-09-06 14:00 2011-09-06 14:30 (1) CANOPY RELEASE ASSEMBLY WIRE LOOP   0.00 Single
1423 OPF 110110399 17/08/2011 2011-09-06 14:00 2011-09-06 14:30 (1) CORD.NYL.BRAIDED COLRELESS 2450N UD   0.00 Single
1424 OFKAT 2011000198 17/08/2011 2011-09-13 14:30 2011-09-13 14:30 SET OF BLANKING PUNCH & C.P.   0.00 Single
1425 OFKAT 2011000199 17/08/2011 2011-09-06 14:30 2011-09-06 14:30 OFFICE TABLE(GODREJ)T-104, REVOLVING CHAIR, VISITOR CHAIR   0.00 Single
1426 OFKAT 2011000200 17/08/2011 2011-09-06 14:30 2011-09-06 14:30 REPAIRING OF ESCORTS CRANE   0.00 Single
1427 OFKAT 2011000201 17/08/2011 2011-09-15 14:30 2011-09-15 14:30 BLANK CONT.STY(381x305 MM)PT-2   0.00 Single
1428 OFK 11CST-0574 17/08/2011 2011-09-20 14:30 2011-09-20 13:00 BULLET __32 ASY. 14.5MM API (FLD)   0.00 Single
1429 OFK 11CST-0575 17/08/2011 2011-09-20 14:30 2011-09-20 13:00 BULLET _3T ASY. 14.5MM APIT (FLD)   0.00 Single
1430 OFK 11CST-0576 17/08/2011 2011-09-09 14:30 2011-09-09 13:00 DO-GRIP ADAPTER-DGAD 3 N(ISCAR MAKE   0.00 Single
1431 OFK 11CST-0577 17/08/2011 2011-09-09 14:30 2011-09-09 13:00 MACHINE TAP DRG. NO. KHT-170042   0.00 Single
1432 OFK 11CST-0578 17/08/2011 2011-09-09 14:30 2011-09-09 13:00 INSERT DNMG 150608 MCTT-5110   0.00 Single
1433 OFK 11CST-0579 17/08/2011 2011-09-20 14:30 2011-09-20 13:00 PROPELLANT SMOKLESS PYRO 5/7(14.5MM   0.00 Single
1434 OFK 11CST-0580 17/08/2011 2011-09-09 14:30 2011-09-09 13:00 REAMER (DRG.NO. KHT-22O431/2.   0.00 Single
1435 OFDUN 0476-11 17/08/2011 2011-09-02 00:00 2011-09-02 00:00 REPAIRING OF POWER SUPPLY   0.00 Single
1436 OFDUN 0477-11 17/08/2011 2011-09-09 00:00 2011-09-09 00:00 BLEACHING POWDER   0.00 Single
1437 OFDUN 0478-11 17/08/2011 2011-09-09 00:00 2011-09-09 00:00 OFFICE TABLE FOR CLERK,REVOLVING CHAIRS,EXECUTIVE REVL CHAIR-INV.ITEM.   0.00 Single
1438 SAF 3113000569 17/08/2011 2011-09-09 14:30 2011-09-09 15:00 THREAD ROLLER TO SKM 572A EXPT,   0.00 Single
1439 MPF 3100400 17/08/2011 2011-09-09 14:30 2011-09-09 14:30 COMBUSTION BOAT.; TIN GRANULATED.;   0.00 Single
1440 OCFAV 239/11-12 17/08/2011 2011-09-07 14:30 2011-09-07 14:30 FABRICATION OF OVERALL MAZRI M.P   0.00 Single
1441 OCFAV 239/201112 17/08/2011 2011-09-07 14:30 2011-09-07 14:30 FABRICATION OF OVERALL MAZRI M.P   0.00 Single
1442 OFBA 110344 17/08/2011 2011-09-13 14:30 2011-09-13 14:30 PHOTO COPIER PAPER GSM-75 (A-3   0.00 Single
1443 OFBA 110345 17/08/2011 2011-09-20 14:30 2011-09-20 14:30 BIB COCK BRASS 1/2"   0.00 Single
1444 OFBA 110346 17/08/2011 2011-09-20 14:30 2011-09-20 14:30 STEEL MILD CHEQUERED PLATE 10   0.00 Single
1445 OFBA 110347 17/08/2011 2011-09-20 14:30 2011-09-20 14:30 BEARING ROLLER SKF 22315 SIZE   0.00 Single
1446 OFBA 110348 17/08/2011 2011-09-20 14:30 2011-09-20 14:30 MECHANICAL SHAFT SEAL SIZE- 1   0.00 Single
1447 HVF 0108174 17/08/2011 2011-09-08 12:00 2011-09-08 15:00 PLATE , etc.   0.00 Single
1448 HVF 0108175 17/08/2011 2011-09-02 12:00 2011-09-02 15:00 SLEEVE SGD, LH , etc.   0.00 Single
1449 HVF 0108176 17/08/2011 2011-09-08 12:00 2011-09-08 15:00 SNAIL , etc.   0.00 Single
1450 HVF 0108179 17/08/2011 2011-09-02 12:00 2011-09-02 15:00 BUSH , etc.   0.00 Single
1451 HVF 0410337 17/08/2011 2011-09-07 12:00 2011-09-07 15:00 BRACKET , etc.   0.00 Single
1452 HVF 0410338 17/08/2011 2011-09-07 12:00 2011-09-07 15:00 SAFETY FUSES BP1-1B,2.0A,250V , etc.   0.00 Single
1453 HVF 0410339 17/08/2011 2011-09-07 12:00 2011-09-07 15:00 ROLLER 4X39.8A5 , etc.   0.00 Single
1454 OFV 20110281 17/08/2011 1899-12-31 14:30 1899-12-31 15:00 TRANSFER BAR GUIDE(L.H),LEVER FOR PUNCH HOLDER,REAR BRACKET,LEVER FOR PUNCH HOLDER STUD,TRANSFER BAR GUIDE(R.H.),PUNCH HOLDER,STRIPPER PLATE,ACRYLIC PLATE,   0.00 Single
1455 OFV 20110282 17/08/2011 1899-12-31 14:30 1899-12-31 15:00 NUT,PUNCH GUIDE,PUNCH HOLDER STUD,PUNCH HOLDER STUD,PUNCH HOLDER STUD,ADJUSTABLE SCREW,   0.00 Single
1456 OFV 20110283 17/08/2011 1899-12-31 14:30 1899-12-31 15:00 PUNCH HOLDER,PUNCH HOLDER,STRIPPER PLATE,INTERMEDIATE NUT,PUNCH GUIDE,NUT,RETAINING SPRING,RETAINING SPRING,   0.00 Single
1457 OFV 20110284 17/08/2011 1899-12-31 14:30 1899-12-31 15:00 DIE BASE BOLT, STN. NO.2 TO 13,WEAR PALTE (R.H),WEAR PLATE (INTERMEDIATE),WEAR PLATE (L.H.),CLAMP,STUD FOR BRACKET,SHAFT,   0.00 Single
1458 OFV 20110285 17/08/2011 1899-12-31 14:30 1899-12-31 15:00 GRUB SCREW,COMPRESSION SPRING,COMPRESSION SPRING,EJECTOR BLOCK,COVER,COVER,COVER,S-PLATE, STN. NO.2 TO 13,DIE BASE BOLT, STN. NO.1 & 14,   0.00 Single
1459 OFV 20110286 17/08/2011 1899-12-31 14:30 1899-12-31 15:00 VARIABLE FREQUENCY DRIVE WITH BOP,VARIABLE SPEED DRIVE HAVING INPUT,SIEMENS MICROMASTER 420 AC DRIVE,   0.00 Single
1460 OFV 20110287 17/08/2011 1899-12-31 14:30 1899-12-31 15:00 ELECTRONIC BALLAST 40 WATT,   0.00 Single
1461 OFV 20110288 17/08/2011 1899-12-31 14:30 1899-12-31 15:00 3 PHASE INDUCTION MOTOR,   0.00 Single
1462 OFV 20110289 17/08/2011 1899-12-31 14:30 1899-12-31 15:00 SPEED VARIATOR FITTED WITH 3 PHASE,   0.00 Single
1463 OFV 20110290 17/08/2011 1899-12-31 14:30 1899-12-31 15:00 CABLE TROPODURE 4 CORE X 10SQ.MM,XLPE CABLE,SIZE:4 CORE X 16 SQ.MM,XLPE CABLE, SIZE: 4 CORE X 35 SQ.MM,CABLE TROPODURE 4 CORE X 4 SQ.MM .,CABLE TROPODURE 4 CORE X 6 SQ.MM,   0.00 Single
1464 OFV 20110291 17/08/2011 1899-12-31 14:30 1899-12-31 15:00 FUSE FITTING UNIT 63AMP,500VOLTS,AC,PVC INSULATED ADHESIVE TAPE,PVC INSULATED ADHESIVE TAPE,PVC INSULATED ADHESIVE TAPE,PVC INSULATED ADHESIVE TAPE,   0.00 Single
1465 OFV 20110292 17/08/2011 1899-12-31 14:30 1899-12-31 15:00 REFRIGERATION COMPRESSOR,   0.00 Single
1466 OFV 20110293 17/08/2011 1899-12-31 14:30 1899-12-31 15:00 PISTON ROD ASSEMBLY,   0.00 Single
1467 OFV 20110294 17/08/2011 1899-12-31 14:30 1899-12-31 15:00 EJECTOR LEVER,SHAFT FOR PINION,   0.00 Single
1468 OFV 20110295 17/08/2011 1899-12-31 14:30 1899-12-31 15:00 ROLLER-2 FOR SUPPORT OF PICKLING,ROLLER - 1 FOR PICKLING & SOAPING,   0.00 Single
1469 OFV 20110296 17/08/2011 1899-12-31 14:30 1899-12-31 15:00 INDUCED DRAFT SQURE COUNTER FLOW,   0.00 Single
1470 OFV 20110297 17/08/2011 1899-12-31 14:30 1899-12-31 15:00 HYDRAULIC GEAR PUMP OP 3008,   0.00 Single
1471 OFV 20110298 17/08/2011 1899-12-31 14:30 1899-12-31 15:00 VALVE SOLENOID 400 SERIES,SERVICE KIT, MOD, H440 A/A,HOSE 2300, AUT, 240V, .312, 06F,   0.00 Single
1472 OFV 20110299 17/08/2011 1899-12-31 14:30 1899-12-31 15:00 LOCK NUT,DRG.NO.V/C/SP/P13/0018,STEM HOLDER FOR HEADING & POCKETING,DIE TIGHTENING BOLT,HEX NUT FOR BUNTER-HOLDER,SHAFT FOR ROLLER,   0.00 Single
1473 OFV 20110300 17/08/2011 1899-12-31 14:30 1899-12-31 15:00 CASE RELEASER FOR TAPER AND PLUG,CASE-GUIDE(LEFT)DRG:V/C/SP/P7/0048,CASE-GUIDE(RT),DRG:V/C/SP/P7/0049,   0.00 Single
1474 OFV 20110301 17/08/2011 1899-12-31 14:30 1899-12-31 15:00 FOAM LEATHER,FOAM RUBBER SHEET SIZE-6'X3'X2"THK.,   0.00 Single
1475 OFV 20110302 17/08/2011 1899-12-31 14:30 1899-12-31 15:00 NORDSON APPLICATION SYSTEM FOR,   0.00 Single
1476 OFV 20110303 17/08/2011 1899-12-31 14:30 1899-12-31 15:00 WHEEL SHAFT FOR REDUCER GEAR BOX,COOLING FAN FOR REDUCER GEAR BOX,OIL SEAL FOR WHEEL SHAFT,OIL SEAL FOR WORM SHAFT,   0.00 Single
1477 OFV 20110304 17/08/2011 1899-12-31 14:30 1899-12-31 15:00 NYLON ROLLER FOR TRANSFER SLIDE,SPIRAL BEVEL GEAR AND PINION,   0.00 Single
1478 OFAJ FS2110062 17/08/2011 2011-09-16 14:00 2011-09-16 15:00 INSERT MODULE REAR   0.00 Single
1479 OFAJ FS2110063 17/08/2011 2011-09-16 14:00 2011-09-16 15:00 ADAPTER REAR   0.00 Single
1480 OFAJ FS2110064 17/08/2011 2011-09-16 14:00 2011-09-16 15:00 INSERT MODULE FRONT   0.00 Single
1481 OFAJ IS2110126 17/08/2011 2011-08-23 14:00 2011-08-23 15:00 SET OF H.T.HEX.BOLT WITH 3 NUTS(M48   0.00 Single
1482 OFAJ IS2110127 17/08/2011 2011-08-17 14:00 2011-08-17 15:00 BAR STOOL., BRIEF CASE.VIP MODEL:-EBT O/N., CENTRE TABLE(WOODEN)SZ-3.5'X1.75'., DEVELOPMENT OF INTERACTIVE SOFTWARE, LCD TELEVISION'SAMSUNG' 32"LA32D450, OFFICER'S NOTE PAD AS PER SAMPLE., PHOSPHATING   0.00 Single
1483 OFAJ IS2110128 17/08/2011 2011-09-16 14:00 2011-09-16 15:00 PROVIDING OF INDICA NON A/C CARS.   0.00 Single
1484 OFAJ IS2110130 17/08/2011 2011-09-16 14:00 2011-09-16 15:00 APC-219 RED VARNISH ADHESIVE., VARNISH AIR DRYING SPEN.IND/ME/719.   0.00 Single
1485 OFAJ IS2110131 17/08/2011 2011-09-16 14:00 2011-09-16 15:00 STEEL PALLET TRAY TO DRG. SM/173 F., STEEL TABLE TO DRG NO SM 996 B, STEEL TRAY TO OFAJ DRG.NO.SM-292 A.   0.00 Single
1486 OFAJ IS2110132 17/08/2011 2011-11-15 14:00 2011-11-15 15:00 PROTECTIVE CLOTH MASK.   0.00 Single
1487 OFAJ IS2110133 17/08/2011 2011-09-16 14:00 2011-09-16 15:00 EARL CHAIR PCH-7201(GODREJ/WIPRO)AS, EARL CHAIR PCH-7202R(GODREJ/WIPRO), EARL VISITOR'S CHAIR PCH-7212R(GODR   0.00 Single
1488 OFT A221B48125 17/08/2011 2011-09-15 14:30 2011-09-15 15:00 IC BRACKET (R-6563)   0.00 Single
1489 OFT A221E48124 17/08/2011 2011-09-15 14:30 2011-09-15 15:00 HAMMER BLANKS FOR 5.56 MM   0.00 Single
1490 OEFHZ 20110110 17/08/2011 2011-09-13 00:00 2011-09-13 00:00 FABRICATION OF FLY OUTER FOR TEFS   3.00 Single
1491 VFJ 112TP0056 17/08/2011 2011-09-08 14:30 2011-09-08 14:30 STEEL BALL DIA 1" IS: 2898-76,   0.00 Two
1492 VFJ 112TP0057 17/08/2011 2011-10-18 14:30 2011-10-18 14:30 STEEL BLOCK SIZE 18X487X115 MM,   0.00 Single
1493 VFJ 114V0057 17/08/2011 2011-09-06 13:00 2011-09-06 13:00 ABSORBANT FOR OIL/ GREASE,   0.00 Single
1494 VFJ 114V0058 17/08/2011 2011-09-06 13:00 2011-09-06 13:00 INDUSTRIAL FOAMING COMPOUND,   0.00 Single
1495 VFJ 114V0059 17/08/2011 2011-09-06 13:00 2011-09-06 13:00 ELECTRODE HOLDER FOR ARC WELD,   0.00 Single
1496 VFJ 11AVA3215 17/08/2011 2011-11-29 14:30 2011-11-29 14:30 DISTANCE PIECE,   0.00 Single
1497 VFJ 11AVA3216 17/08/2011 2011-09-06 14:30 2011-09-06 14:30 SET OF PNEUMATIC CYLINDER,   0.00 Single
1498 VFJ 11AVA3217 17/08/2011 2011-08-23 14:30 2011-08-23 14:30 RADIATOR & CAC ASSY.WITH SHROD,   0.00 Single
1499 OFPM E621 17/08/2011 2011-09-06 14:00 2011-09-06 15:00 TRANSPORTATION OF CRN-91 GUNS   0.00 Single
1500 OFPM E631 17/08/2011 2011-08-25 14:00 2011-08-25 15:00 TRANSPORTATION OF MPV FORM ORDNANCE   0.00 Single
1501 OFPM E641 17/08/2011 2011-08-25 14:00 2011-08-25 15:00 RADIOGRAPHY TESTING FOR CASTING RADIOGRAPHY TESTING FOR CASTING RADIOGRAPHY TESTING FOR CASTING RADIOGRAPHY TESTING FOR CASTING   0.00 Single
1502 OFPM E651 17/08/2011 2011-09-06 14:00 2011-09-06 15:00 FOR COLLECTION OF URGENT MATERIALS FROM   0.00 Single
1503 OFPM H951 17/08/2011 2011-09-29 14:00 2011-09-29 15:00 BAND TO DRG NO:676-38-CD167 PIPE TO DRG NO:675-53-CD156 WIRE ROPE TO DRG. NO. 675-56-CD150   0.00 Single
1504 OFPM H961 17/08/2011 2011-11-17 14:00 2011-11-17 15:00 SET OF ITEMS FOR 675-53-CD4(SPARES)   0.00 Single
1505 OFPM H971 17/08/2011 2011-09-29 14:00 2011-09-29 15:00 WASHER 765-17-239 GASKET 765-17-240 STRAP 765-30-2 WASHER FLAT 765-33-14 GASKET 765-58-194 ETC.   0.00 Single
1506 OFPM H981 17/08/2011 2011-09-29 14:00 2011-09-29 15:00 MULTIPURPOSE CLAMP 672-54-CD2 MULTIPURPOSE CLAMP 672-54-CD2-04 MULTIPURPOSE CLAMP 672-54-CD2-06 MULTI PURPOSE CLAMP 672-54-CD2-16 MULTIPURPOSE CLAMP 672-54CD2-09 ETC.   0.00 Single
1507 OFPM H991 17/08/2011 2011-09-08 14:00 2011-09-08 15:00 CLAMP TO DRG.NO 672-54-9-11 CLAMP 672-54-7-01 CLAMP 672-54-7-02 CLAMP 672-54-9-15 CLAMP 672-54-9-02 ETC.   0.00 Single
1508 OFPM M171 17/08/2011 2011-09-13 14:00 2011-09-13 15:00 THRUST BALL BEARING NO:51113 KOYO(JAPAN)   0.00 Single
1509 OFPM V1141 17/08/2011 2011-09-07 14:00 2011-09-07 15:00 DISC VALVE 4820.04384(CD1-6) CONNECTION 4730-077645(CD1-2) DRG. NO. 1-1, VALVE SPRING VALVE 765-84-SB181 AIR FILTER 218K   0.00 Single
1510 OFPM V1151 17/08/2011 2011-10-19 14:00 2011-10-19 15:00 CLAMP TO DRG.NO.765-12-662 675-41-124 BRACKET GEAR 675-62-CD103 GEAR SET CQA(C)SET/003 765-12-CD168   0.00 Single
1511 EFA 111290 17/08/2011 2011-09-13 00:00 2011-09-13 00:00 SUB ASSY VALVE REDUCING   0.00 Single
1512 EFA 112011 17/08/2011 2011-09-16 00:00 2011-09-16 00:00 TA IN MACHINING OF MCR ASSEMBLY   0.00 Single
1513 EFA 118037 17/08/2011 2011-09-27 00:00 2011-09-27 00:00 SUITING CLOTH(KHAKI)DURWAN UNIFORM   0.00 Single
1514 EFA 118038 17/08/2011 2011-09-06 00:00 2011-09-06 00:00 GUM BOOTS AS PER IS 5557:2004; CO2 GAS CATRIDGE, 60 GM CAPACITY;   0.00 Single
1515 OLF 1106012405 17/08/2011 2011-09-09 15:00 2011-09-09 15:00 ELECTRI.OPERATED WIRE ROPE HOI   0.00 Single
1516 OLF 1106012406 17/08/2011 2011-09-30 15:00 2011-09-30 15:00 CONTACT SPRING,COVER,COVER,BRACKET,TUBE,SPRING,AXLE,SPRING   0.00 Single
1517 OLF 1106012407 17/08/2011 2011-09-30 15:00 2011-09-30 15:00 STAND,TIE ROD,WASHER,BUSH,RING,FLANGE,RING (*),SCREW M4,FLANGE,LINK,AXLE,CARRAGE   0.00 Single
1518 GIF 0230111218 17/08/2011 2011-09-27 15:00 2011-09-27 15:00 SRDG BALL BEARING, SKF - 6306.   0.00 Single
1519 GIF 0231111258 17/08/2011 2011-09-27 15:00 2011-09-27 15:00 CHANGE OVER SWITCH FOR 175 KW PILLA WATER COOLED CABLE FOR 250 KG WATER COOLED CABLE FOR 200 KG   0.00 Single
1520 GIF 0232111258 17/08/2011 2011-09-27 15:00 2011-09-27 15:00 INDUCTION COIL 175KW 250KG INDUCTION COIL 175 KW 200 KG AUTOMATIC LUBRICATION UNIT ELU-2700   0.00 Single
1521 GIF 0233111236 17/08/2011 2011-09-30 15:00 2011-09-30 15:00 MAINTENANCE OF GARDENS/LAWNS/HOTICU   0.00 Single
1522 AFK 20110482 16/08/2011 2011-08-19 14:00 2011-08-19 14:30 MAKING OF FIBRE GLASS MODELS   0.00 Single
1523 OEFC 20110380 16/08/2011 2011-09-05 13:30 2011-09-05 14:00 NYLON FABRIC O.G. POLYURETHANE COATED (250 GM/SQR M)91 CM   27550.00 Single
1524 OEFC 20110382 16/08/2011 2011-09-07 13:30 2011-09-07 14:00 CORD COTTON U/D 4 MM DIA   8700.00 Single
1525 RFI DTB2090345 16/08/2011 2011-09-02 14:00 2011-09-02 14:30 Purchase of T2250 PRINT HEAD (P/N-455400),   0.00 Single
1526 RFI DTB3480349 16/08/2011 2011-09-19 14:00 2011-09-19 14:30 Purchase of T-10/INS-SCR, INSERT SCREW 551, T-10/B,T-MAX U-B/BAR R429.90-1, T-10/INS,INS.TCMT 090204 UP525,   0.00 Single
1527 RFI DTB6380346 16/08/2011 2011-09-12 14:00 2011-09-12 14:30 Purchase of FIXTURE FOR BRACKET, CLAMP LEFT, CLAMP RIGHT, BRACKET PLATE,   0.00 Single
1528 RFI DTB6380348 16/08/2011 2011-09-12 14:00 2011-09-12 14:30 Purchase of END MILL, END MILL(STANDARD),   0.00 Single
1529 RFI DTB7970347 16/08/2011 2011-09-16 14:00 2011-09-16 14:30 Purchase of HSS T/S TWIST DRILLS, 15.50 MM, HSS P/S TWIST DRILLS(L.S),3.0,   0.00 Single
1530 CFA 11PVTE0323 16/08/2011 2011-09-07 13:00 2011-09-07 14:00 PISTON ROD GUIDE RINGSCRAPPER RING WIPER A01-B   0.00 Single
1531 CFA 11PVTE0324 16/08/2011 2011-09-07 13:00 2011-09-07 14:00 NAILS WIRE IRON ROUND SHANK 6"NAILS WIRE ROUND 50 MM. G.12NAILS WIRE IRON ROUND 125 MM   0.00 Single
1532 CFA 11PVTE0327 16/08/2011 2011-09-07 13:00 2011-09-07 14:00 DOOR FRAME METAL DETECTOR   0.00 Single
1533 OPF 110110386 16/08/2011 2011-09-06 14:00 2011-09-06 14:30 (1) TAPE NYN.66,26MM.TUBULAR BS.1850KG.   0.00 Single
1534 OPF 110110387 16/08/2011 2011-09-06 14:00 2011-09-06 14:30 (1) TAPE COTTON FOR SD PARA 25MM SCOURE   0.00 Single
1535 OPF 110110388 16/08/2011 2011-09-06 14:00 2011-09-06 14:30 (1) FELTWOOL SOLFT 6MM MOTH PROOF 132CM   0.00 Single
1536 OPF 110110389 16/08/2011 2011-09-06 14:00 2011-09-06 14:30 (1) TAPE TUBULAR NYLON 2.54 CMS OG   0.00 Single
1537 OPF 110110390 16/08/2011 2011-09-06 14:00 2011-09-06 14:30 (1) TAPE NYLON 30 MM OG BS 580 KG   0.00 Single
1538 OPF 110110391 16/08/2011 2011-09-06 14:00 2011-09-06 14:30 (1) QUICK RELEASE CONNECTING LUG (MALE)   0.00 Single
1539 OPF 110110392 16/08/2011 2011-09-06 14:00 2011-09-06 14:30 (1) PLATE CURVED WITH HOLE   0.00 Single
1540 OPF 110110393 16/08/2011 2011-09-06 14:00 2011-09-06 14:30 (1) Q.R.CONNECTING LUG (MALE)   0.00 Single
1541 OPF 110110394 16/08/2011 2011-09-06 14:00 2011-09-06 14:30 (1) THREAD SEWG.COTT.165 TEX/27(27/36S)   0.00 Single
1542 OPF 110110395 16/08/2011 2011-08-30 14:00 2011-08-30 14:30 (1) TAP NYN.66,26MM.BS.850KG U/D RES.TR   0.00 Single
1543 OPF 110110396 16/08/2011 2011-09-06 14:00 2011-09-06 14:30 (1) SNAP HOOK PTRM STATIC LINE   0.00 Single
1544 OFKAT 2011000196 16/08/2011 2011-09-13 14:30 2011-09-13 14:30 D/R S.A.SPHERICAL ROLLER BEARI, S/R TAPER ROLLER BEARING, D/R SELF ALIGNING S.R.BEARING   0.00 Single
1545 OFKAT 2011000197 16/08/2011 2011-09-13 14:30 2011-09-13 14:30 SET OF BLANKING PUNCH & C.P., LIFT UP TROLLY   0.00 Single
1546 OFK 11CST-0570 16/08/2011 2011-08-16 14:30 2011-08-16 13:00 REPAIRING FANUC(TYPEA06B-6079-H203.   0.00 Single
1547 OFK 11CST-0571 16/08/2011 2011-09-06 14:30 2011-09-06 13:00 KIRL.MAKE REFR.COMPR.3PHASE(AH2442A   0.00 Single
1548 OFK 11CST-0572 16/08/2011 2011-09-06 14:30 2011-09-06 13:00 POLY LAY FL.TUBE 120.65WIDEX0.178MM   0.00 Single
1549 OFK 11CST-0573 16/08/2011 2011-09-02 14:30 2011-09-02 13:00 RUBBER CUSHION IND/ME/677(20) HD   0.00 Single
1550 OFDUN 0472-11 16/08/2011 2011-09-06 00:00 2011-09-06 00:00 CASE FOR RED FILTER NO.CII-670,CASE CARRYING DRG NO.CII-200   0.00 Single
1551 OFDUN 0473-11 16/08/2011 2011-09-06 00:00 2011-09-06 00:00 WOOD SCREW BRASS CSK 5X15MM,SCREW WOOD BRASS1/2"x4G CSK HD,HELICOIL INSERT M3X.5X4.5MM   0.00 Single
1552 OFDUN 0474-11 16/08/2011 2011-09-06 00:00 2011-09-06 00:00 LENS BOND OPTICAL CEMENT M-62,LENS BOND OPTICAL CEMENT F-65   0.00 Single
1553 OFDUN 0475-11 16/08/2011 2011-09-06 00:00 2011-09-06 00:00 LINK BELT SIZE 1/2"   0.00 Single
1554 SAF 3113000554 16/08/2011 2011-09-09 14:30 2011-09-09 15:00 HRC CYLINDRICAL FUSE LINK TYPE,   0.00 Single
1555 SAF 3113000555 16/08/2011 2011-09-09 14:30 2011-09-09 15:00 BOBIN HEATER-2KW,230 VOLTS IN,   0.00 Single
1556 SAF 3113000557 16/08/2011 2011-09-09 14:30 2011-09-09 15:00 SIGHT SMALL ARMS,   0.00 Single
1557 SAF 3113000558 16/08/2011 2011-09-09 14:30 2011-09-09 15:00 LOOP, SLING FRONT,   0.00 Single
1558 SAF 3113000559 16/08/2011 2011-09-09 14:30 2011-09-09 15:00 VOLT METER DC RANGE-0-20 VOLTS,AMMETER MOVING COIL TYPE COMPL,   0.00 Single
1559 SAF 3113000560 16/08/2011 2011-09-09 14:30 2011-09-09 15:00 INVESTMENT CASTING OF SLIDE CO,   0.00 Single
1560 SAF 3113000561 16/08/2011 2011-09-06 14:30 2011-09-06 15:00 COMPOUND M/C REAMER LUG CARBID,   0.00 Single
1561 SAF 3113000562 16/08/2011 2011-09-06 14:30 2011-09-06 15:00 SPL 2.032 MM GROOVING INSERT A,GROOVING HOLDER ASPER TEAGUTEC,   0.00 Single
1562 SAF 3113000563 16/08/2011 2011-09-06 14:30 2011-09-06 15:00 INSERT 16MM R08.MDO-16011 OR E,END MILL DIA 16MM SECO MAKE MI,   0.00 Single
1563 SAF 3113000564 16/08/2011 2011-09-09 14:30 2011-09-09 15:00 DRAW BORING REAMER TIN COATED,DRAW BORING REAMER TIN COATED,   0.00 Single
1564 SAF 3113000565 16/08/2011 2011-09-09 14:30 2011-09-09 15:00 DRAW BORE REAMER TIN COATED,DRAW BORING REAMER TIN COATED,DRAW BORING REAMER TIN COATED,   0.00 Single
1565 SAF 3113000566 16/08/2011 2011-09-06 14:30 2011-09-06 15:00 HANGER FOR BARREL HOLDING FIXT,   0.00 Single
1566 SAF 3113000568 16/08/2011 2011-09-09 14:30 2011-09-09 15:00 FILE SQR.BASTARD 250MM (10"),FILE HALF ROUND SECOND CUT 300,FILE HALF ROUND SECOND CUT 250,   0.00 Single
1567 MPF 3100397 16/08/2011 2011-09-02 14:30 2011-09-02 14:30 TONER CART,ORIG,HP LASER JET-P1007;   0.00 Single
1568 MPF 3100398 16/08/2011 2011-09-02 14:30 2011-09-02 14:30 MOP (POCHA) WITH HANDLE 150CM,GALA;   0.00 Single
1569 MPF 3100399 16/08/2011 2011-10-11 14:30 2011-10-11 14:30 SENDING UNIT D-20 D20.000.CB;   0.00 Single
1570 OFBA 110340 16/08/2011 2011-09-20 14:30 2011-09-20 14:30 ROPE LOGGING ASBEST0S   0.00 Single
1571 OFBA 110341 16/08/2011 2011-09-20 14:30 2011-09-20 14:30 JOINTING SHEET COMPRESSED RED   0.00 Single
1572 OFBA 110342 16/08/2011 2011-09-20 14:30 2011-09-20 14:30 BOROSILICATE GLASS PIPE SECTIO   0.00 Single
1573 OFBA 110343 16/08/2011 2011-09-20 14:30 2011-09-20 14:30 CEMENT PORTLAND   0.00 Single
1574 HVF 0210586 16/08/2011 2011-09-08 12:00 2011-09-08 15:00 RUBBER COVER , etc.   75000.00 Single
1575 HVF 0210587 16/08/2011 2011-09-15 12:00 2011-09-15 15:00 GASKET , etc.   100000.00 Single
1576 HVF 0410335 16/08/2011 2011-09-07 12:00 2011-09-07 15:00 GASKET , etc.   0.00 Single
1577 HVF 0510459 16/08/2011 2011-09-16 12:00 2011-09-16 15:00 DISCHARGE HORN FOR CO2 WITH BEND PIPE , etc.   0.00 Single
1578 HVF 0510460 16/08/2011 2011-09-16 12:00 2011-09-16 15:00 RAIN COAT WITH SIDE ZIP & POCKETS , etc.   0.00 Single
1579 HVF 0510461 16/08/2011 2011-09-16 12:00 2011-09-16 15:00 FIRE BUCKETS,10 LITERS CAPACITY , etc.   0.00 Single
1580 HVF 0510462 16/08/2011 2011-09-16 12:00 2011-09-16 15:00 INK JET PLAIN PLOTTER PAPER ROLL , etc.   0.00 Single
1581 OFV 20110280 16/08/2011 1899-12-31 14:30 1899-12-31 15:00 HYPODERMIC STAINLESS STEEL NEEDLE,   0.00 Single
1582 OFAJ RS2110131 16/08/2011 2011-09-13 14:00 2011-09-13 15:00 6 UNIT PUSH BUTTON PENDENT RATING 6, PENDENT PUSH BUTTON STN.FOR HOIST   0.00 Single
1583 OFAJ SS2110073 16/08/2011 2011-09-07 14:00 2011-09-07 15:00 C.INSERT CVD COAT DN-MG:15-06-08   0.00 Single
1584 OFAJ SS2110074 16/08/2011 2011-09-07 14:00 2011-09-07 15:00 CAR.INSERT DNMG 150608GR.MRGC4015I., CARBIDE INSERT DNMG 150604 GR.GC415, CARBIDE INSERT TPAN-1603PPN GR.P40   0.00 Single
1585 OFT A440R89881 16/08/2011 2011-09-06 14:30 2011-09-06 15:00 COMPUTER OPERATING CHAIR WITH   0.00 Single
1586 OFT A55LD89882 16/08/2011 2011-09-08 14:30 2011-09-08 15:00 MACHINING AND SUPPLY OF BARREL   0.00 Single
1587 OFCH 201100396 16/08/2011 2011-09-15 14:00 2011-09-15 14:30 CENTRIFUGAL MONO-BLOCK PUMP3.7 CENTRIFUGAL MONO-BLOCK PUMP 2. CENTRIFUGAL MONO-BLOCK PUMP 1.   0.00 Single
1588 OFCH 201100397 16/08/2011 2011-09-15 14:00 2011-09-15 14:30 ULTRA. DIGITAL WATER FLOW METE   0.00 Single
1589 OFCH 201100398 16/08/2011 2011-09-15 14:00 2011-09-15 14:30 SPARE UPPER CONNECTION STRIP   0.00 Single
1590 OFCH 201100399 16/08/2011 2011-09-15 14:00 2011-09-15 14:30 SEALED COMP.MODEL NE 1900BB AI   0.00 Single
1591 OFCH 201100400 16/08/2011 2011-09-15 14:00 2011-09-15 14:30 DRIP PROOF MOTOR PUMP 1/50 HP   0.00 Single
1592 OFCH 201100401 16/08/2011 2011-09-15 14:00 2011-09-15 14:30 FLUORESCENT TUBULAR LAMP 18/20 BALLAST CHOKE COIL FOR 40 W TU   0.00 Single
1593 OFCH 201100402 16/08/2011 2011-09-15 14:00 2011-09-15 14:30 SPINDLE CAM GUIDE UNIT FOR TUB   0.00 Single
1594 OFCH 201100403 16/08/2011 2011-09-15 14:00 2011-09-15 14:30 ASSY.SLAVE CYLINDER - TATA 161   0.00 Single
1595 OFCH 201100404 16/08/2011 2011-09-15 14:00 2011-09-15 14:30 COMPRESSOR SEALED UNIT SR-1622   0.00 Single
1596 OFCH 201100405 16/08/2011 2011-09-15 14:00 2011-09-15 14:30 COIL ELEME MT 2 KW PRINCOS PT1   0.00 Single
1597 VFJ 112TP0049 16/08/2011 2011-09-15 14:30 2011-09-15 14:30 HINGE GOST STD.,   0.00 Single
1598 VFJ 112TP0050 16/08/2011 2011-09-15 14:30 2011-09-15 14:30 AXLE,   0.00 Single
1599 VFJ 112TP0051 16/08/2011 2011-09-15 14:30 2011-09-15 14:30 SPRING GOST STD.,   0.00 Single
1600 VFJ 112TP0052 16/08/2011 2011-09-15 14:30 2011-09-15 14:30 TORSION BAR GOST STD./WIRE,   0.00 Single
1601 VFJ 112TP0053 16/08/2011 2011-09-15 14:30 2011-09-15 14:30 BRACKET FOR CAST.OF TURRET ASY,   0.00 Single
1602 VFJ 112TP0054 16/08/2011 2011-09-20 14:30 2011-09-20 14:30 RETAINER,   0.00 Single
1603 VFJ 112TP0055 16/08/2011 2011-09-20 14:30 2011-09-20 14:30 SHAFT,   0.00 Single
1604 VFJ 114G7043 16/08/2011 2011-09-13 14:00 2011-09-13 14:00 SANITATION OF MAITENANCE SEC.,   50400.00 Two
1605 OFPM B1021 16/08/2011 2011-12-27 14:00 2011-12-27 15:00 SINGLE PHASE 2 WIRE 5-30A   0.00 Single
1606 OFPM B1031 16/08/2011 2011-09-27 14:00 2011-09-27 15:00 MCB FOUR POLE 10 AMPS 415/240V.10KA MCB THREE POLE 10AMPS 415/240V.10KA MCB SINGLE POLE 10AMPS.415/240V.10KA MCB SINGLE POLE 20AMPS 415/240V,10KA 60AMPS.FOUR POLE 240/415V,10KA LOADSTER   0.00 Single
1607 OFPM C1221 16/08/2011 2011-09-20 14:00 2011-09-20 15:00 DTC WITH 2RELAYS M:506-DR,PT100,T/C-J .   0.00 Single
1608 OFPM F531 16/08/2011 2011-09-30 14:00 2011-09-30 15:00 FORGING FOR THE BOLT 700-28-760   0.00 Single
1609 OFPM F541 16/08/2011 2011-11-11 14:00 2011-11-11 15:00 SHACKLE 675-53-182   0.00 Single
1610 OFPM H891 16/08/2011 2011-09-22 14:00 2011-09-22 15:00 SPRING HELICAL COMPRESSION 672-38-4 700-38-1770 SPRING 675-52-87 SPRING675-56-123 SPRING 675-64-308 ETC.   0.00 Single
1611 OFPM H901 16/08/2011 2011-09-22 14:00 2011-09-22 15:00 SPRING RING 730-27-189 SPRING 672-38-122 SPRING 675-55-158 SHEATHING 675-56-121 SPRING 241-59-12 ETC.   0.00 Single
1612 OFPM H911 16/08/2011 2011-09-22 14:00 2011-09-22 15:00 SPRING 700-38-1661 SPRING SPIRAL TORSION 5360-007857(MN1-03 SPRING 675-64-232 SPRING 675-64-402-01 SPRING 675-73-396 ETC.   0.00 Single
1613 OFPM H921 16/08/2011 2011-09-29 14:00 2011-09-29 15:00 RELAY YALO-450-033 TU   0.00 Single
1614 OFPM H931 16/08/2011 2011-09-29 14:00 2011-09-29 15:00 COVER 765-96-CD-143-01   0.00 Single
1615 OFPM H941 16/08/2011 2011-09-22 14:00 2011-09-22 15:00 ELECTRIC MOTOR   0.00 Single
1616 OFPM K371 16/08/2011 2011-09-29 14:00 2011-09-29 15:00 GASKET 765-10-747 COVER PLATE 765-17-375 PLATE 675-52-140 PACKING 675-58-213 PACKING 675-58-213-01 ETC.   0.00 Single
1617 OFPM K381 16/08/2011 2011-09-29 14:00 2011-09-29 15:00 HOSE 16MM DIAX4MM THICKNESS 40Y16-0.7(7) HOSE 42MM DIA X 4.5MM THICKNESS 40U42-0. HOSE 40Y 6-1.3/13 L=60+/-2MM HOSE 40Y-12-1.3(13)L=100MM TY005.6016-80 HOSE 40Y-14-1.3(13) TY 005.6016-80 L=100 ETC.   0.00 Single
1618 OFPM K391 16/08/2011 2011-09-29 14:00 2011-09-29 15:00 SEALING 675-47-175 SEALING 675-47-175-01 SEALING 675-47-175-02 PACKING 765-50-2016   0.00 Single
1619 OFPM K401 16/08/2011 2011-09-29 14:00 2011-09-29 15:00 PACKING RIGHT 765-50-1429 PACKING 765-50-2445 PACKING 675-57-354   0.00 Single
1620 OFPM K411 16/08/2011 2011-09-29 14:00 2011-09-29 15:00 GASKET 765-46-182 GASKET 765-46-209 GASKET 765-50-878 GASKET 765-50-2597 GASKET 765-50-2599 ETC.   0.00 Single
1621 OFPM K421 16/08/2011 2011-09-29 14:00 2011-09-29 15:00 GASKET GASKET GASKET 6745-50-1099   0.00 Single
1622 OFPM K431 16/08/2011 2011-09-29 14:00 2011-09-29 15:00 RING 775-17-205 RING 765-32-65 RING SEALING TOROIDAL 765-33-40 RING 765-46-292 GRIP,HANDLE 765-49-23 ETC.   0.00 Single
1623 OFPM K441 16/08/2011 2011-09-22 14:00 2011-09-22 15:00 CUP 765-08-CD173 OIL SEAL 54-83-8CD OIL SEAL ASSY.CQA-ICV/SET NO.037 CQA(ICV)/SET/044   0.00 Single
1624 OFPM K451 16/08/2011 2011-09-22 14:00 2011-09-22 15:00 GASKET 765-06-462 RING TO DRG.NO 765-06-855 SEALING RING TOROIDAL RING SEALING TOROIDAL 765-33-6 GASKET TO DRG.NO.765-38-153 ETC.   0.00 Single
1625 OFPM K461 16/08/2011 2011-09-29 14:00 2011-09-29 15:00 VALVE 765-10-1945 GASKET 765-46-228 GASKET 765-50-2349 RINGTO DRG.NO.675-57-256 PACKING TO DRG.NO.675-73-381   0.00 Single
1626 OFPM K471 16/08/2011 2011-09-22 14:00 2011-09-22 15:00 RING 765-05-601 RUBBER END PIECE TO DRG. NO: CA-18-66 GASKET TO DRG.NO.675-53-207 SHOCK ABSORBER 765-56-52 GASKET 675-71-263 ETC.   0.00 Single
1627 OFPM K481 16/08/2011 2011-09-22 14:00 2011-09-22 15:00 PIPE 3S32.0X3.0 GOST-5496-78 PIPE 3C16.0X2.0   0.00 Single
1628 OFPM M161 16/08/2011 2011-10-18 14:00 2011-10-18 15:00 HARMONIC DRIVE COUPLING,PART NO HOCS32-7   0.00 Single
1629 OFPM R621 16/08/2011 2011-09-09 14:00 2011-09-09 15:00 ST.PIPE 24MM X 3MM GR:CDS-25 IS:3601 STEEL PIPE DIA 28 X 7 MM THIC   0.00 Single
1630 OFPM S1171 16/08/2011 2011-08-30 14:00 2011-08-30 15:00 NACHI PISTON PUMP MODEL:PVS-OB-8N2-15-4   0.00 Single
1631 OFPM S1181 16/08/2011 2011-09-13 14:00 2011-09-13 15:00 HYPERTHERM T 30 NOZZLE (TORCH SET) HYPERTHERM T 45 NOZZLE (TORCH SET)   0.00 Single
1632 OFPM S1191 16/08/2011 2011-09-13 14:00 2011-09-13 15:00 HYDRAULIC DIA GUAGE, AG 70 KG/M BOTTOM   0.00 Single
1633 OFPM S1201 16/08/2011 2011-09-13 14:00 2011-09-13 15:00 HOSE PIPE ACETYLENE, DIA:10MM GAS WELDING HOSE FOR OXYGEN BORE DIA:10M OXYGEN GAS HOSE(BLUE COLOUR) FOR GAS CUT ACETYLENE HOSE(RED COLOUR) FOR GAS CUT.   0.00 Single
1634 OFPM T1391 16/08/2011 2011-09-27 14:00 2011-09-27 15:00 C.T.T-SLOT CUTTER DIA:40X18X25-P30 HSS LONG FLUTED M/C REAMERS 8.0MM M2(HSS)LONG FLUTED T/S,M/C REAMER 6.0   0.00 Single
1635 OFPM T1401 16/08/2011 2011-09-13 14:00 2011-09-13 15:00 VERNIERCALIPER DIGITAL 0-300MM. DIGITAL VERNIER CALIPER 0-150MM   0.00 Single
1636 OFPM T1411 16/08/2011 2011-09-13 14:00 2011-09-13 15:00 T.C.ROTARY MINIATURE BURRS. TUNGSTEN CARBIDE ROTARY BURRS(FERROUS) TONGSTEN CARBIDE ROTARY BURRS (FERROUS)   0.00 Single
1637 OFPM V1131 16/08/2011 2011-08-19 14:00 2011-08-19 15:00 PASTING INSULATION MATERIAL INSIDE THE   0.00 Single
1638 EFA 111289 16/08/2011 2011-09-13 00:00 2011-09-13 00:00 FLEXIBLE HOSE   0.00 Single
1639 EFA 115126 16/08/2011 2011-09-20 00:00 2011-09-20 00:00 MULTI GAUGING FIXTURE   0.00 Single
1640 EFA 115127 16/08/2011 2011-08-30 00:00 2011-08-30 00:00 CONE SET FOR COUPLING UNIT(V46-6)   0.00 Single
1641 EFA 115128 16/08/2011 2011-09-23 00:00 2011-09-23 00:00 INSERT FOR MILLING; INSERT FOR MILLING; INSERT FOR MILLING ISCAR MAKE; INSERT FOR MILLING / DRILLING; INSERT FOR TURNING / DRILLING; INSERT FOR TURNING;   0.00 Single
1642 EFA 115129 16/08/2011 2011-09-09 00:00 2011-09-09 00:00 SPECIAL EJECTOR DRILL HEAD   0.00 Single
1643 EFA 115130 16/08/2011 2011-09-09 00:00 2011-09-09 00:00 FLAT BOTTOM DRILL,T.S   0.00 Single
1644 EFA 115131 16/08/2011 2011-09-30 00:00 2011-09-30 00:00 TWIST DRILL,T.S,HSS M35; TWIST DRILL,T.S,HSS; TWIST DRILL,T.S,HSS M35;   0.00 Single
1645 EFA 115132 16/08/2011 2011-09-09 00:00 2011-09-09 00:00 TURNING TOOL HOLDER   0.00 Single
1646 OLF 1106012404 16/08/2011 2011-09-19 15:00 2011-09-19 15:00 ROD .,BLANK FOR CAM,SPACER BLOCK D IG46,WASHER B2.9,SPRING LOCK WASHER B3,CONTACT (*)   0.00 Single
1647 OLF 1110122403 16/08/2011 2011-09-19 15:00 2011-09-19 15:00 HIGH PRESSURE AIR SUCKER   0.00 Single
1648 OFBOL 11120134 16/08/2011 2011-09-16 14:30 2011-09-16 14:30 DIGITAL EARTH RESISTANCE TESTER ; DIGITAL CLAMP TESTER,DISPLAY-3-3/4   0.00 Single
1649 OFDR 2011000154 16/08/2011 2011-09-06 14:30 2011-09-06 15:00 1. CAP CHAMBER FOR HAND FLARE   2.00 Single
1650 OFDR 2011000155 16/08/2011 2011-09-06 14:30 2011-09-06 15:00 1. ANTHRACENE SIZE 211 MICRON IS SIEVE   3.00 Single
1651 OFDR 2011000156 16/08/2011 2011-09-06 14:30 2011-09-06 15:00 1. DYE OIL ORANGE COLOUR   3.00 Single
1652 AFK 20110477 14/08/2011 2011-09-06 14:00 2011-09-06 14:30 AUTO.STAR-DELTA MOTOR STARTER L & T, DIRECT-ON-LINE STARTER IN SHEET STL, MOULDED CASE CIRCUIT BREAKER, FULLY AUTO.STAR-DELTA MOTOR STARTER ETC.   0.00 Single
1653 AFK 20110478 14/08/2011 2011-09-06 14:00 2011-09-06 14:30 TWO LINE CORDLESS LONG RANGE T.PHN., TELEPHONE INSTRUMENTS PLAN 1+1, DIGITAL KEY TELEPHONE INSTRUMENT, CORDLESS TELEPHONE INSTRUMENT ETC.   0.00 Single
1654 AFK 20110479 14/08/2011 2011-09-09 14:00 2011-09-09 14:30 WORM WHEEL FOR REDUCTION GEAR BOX   0.00 Single
1655 AFK 20110480 14/08/2011 2011-09-02 14:00 2011-09-02 14:30 NAVASOL TYPE 2- 803.   0.00 Single
1656 AFK 20110481 14/08/2011 2011-09-09 14:00 2011-09-09 14:30 PINCH TRIMMING DIE AFK/CT/1872   0.00 Single
1657 MSF 11TE220274 14/08/2011 2011-09-07 14:30 2011-09-07 14:30 G.M.GLOVE VALVE. PROPORTIONAL VALVE,DREME-1052/315YG etc.   Single
1658 MSF 11TE220275 14/08/2011 2011-09-07 14:30 2011-09-07 14:30 M.S. HINGES 4" (100MM). 1/2"X18" POLY. INLET PIPE. GLASS PANES (PLAIN) 1M X 1M X MECHANICAL SEAL,TYPE-MSPS13D/DN-55, etc.   Single
1659 GCF 110196L756 14/08/2011 2011-10-04 10:30 2011-10-04 11:00 COUPLING TO DRG NO (5056653)SHT2. T-COUPLING DESIGNATION N15-28-6. T-COUPLING DESINATION N15-28-13.   0.00 Single
1660 GCF 110197L756 14/08/2011 2011-10-04 10:30 2011-10-04 11:00 "O" RING N9-8 62X67 "O" RING N-9-8-18MM ID X 22MM OD "O" RING TO M2/BOF-6115987-2 "O" RING N-9-8 100X110 "O" RING N-9-8-6MM ID X 10MM OD "O" RING DRG 6117890-3. "O" RING SIZE N9-8-110X120LM-592(D)   0.00 Single
1661 GCF 110198L756 14/08/2011 2011-10-04 10:30 2011-10-04 11:00 SEAL 6206748 JOINTING 6206710 RING SEALING TO D.S.CAT.NO.5330-015 SEAL RUBBER SPECIAL 365X249MO/A 8MM SEALING RING 6165961. BELLOWS RUBBER SYNTHETIC 6127270. SEAL STRAPPING STEEL N16-11-10   0.00 Single
1662 GCF 110199L756 14/08/2011 2011-10-04 10:30 2011-10-04 11:00 PIPE MAIN PRESSURE PT..IAN.-219 SA. PIPE REPLENSHING PRESSURE IAN-229SA PIPE ASSY . TO PT..NO.IAN.-269 SA.   0.00 Single
1663 GCF 110200L756 14/08/2011 2011-10-06 10:30 2011-10-06 11:00 PIPE PRESSURE GAUGE DRG.NO.-250 SA. PIPE PRESSURE GAUGE P.L.NO.-223 SA. PIPE DRG.NO. IAN.-214 SA. PIPE EXHAUST DRG.NO.IAN.-182 SA.   0.00 Single
1664 GCF 110201L756 14/08/2011 2011-10-06 10:30 2011-10-06 11:00 NUT,LOW NUT LARGE GRIP-LB6M,M-THDS STUD,PLAIN:STEEL DS CAT.5307-003475 STRAP RETAINING STEEL 5340-009487 CLIP SECURING DRG.NO.6135072. NUT,HEX,LB-6 M4 TO DRG.NO. N3-9.   0.00 Single
1665 GCF 111195NA56 14/08/2011 2011-09-13 10:30 2011-09-13 11:00 TOOL BITS 25MM X 25MM X 200MM LONG TOOL BIT HSS 10MM SQ X200MM LONG   0.00 Single
1666 GCF 111196NA56 14/08/2011 2011-09-13 10:30 2011-09-13 11:00 FACE MILL CUTTER 262-2-160 MM. CUTTER SQ SHOULDER FACEMILL 100.DIA T.MAX FACE MILL CUTTER 125 MM DIA. T.MAX FACE MILL CUTTER 80 MM DIA. T.MAX FACE MILL CUTTER 100 MM DIA. SIDE AND FACE CUTTER DIA 120   0.00 Single
1667 RFI DTB6380343 14/08/2011 2011-09-28 14:00 2011-09-28 14:30 Purchase of SOLID CARBIDE ROD DIA. 14MM, SOLID CARBIDE ROD, S.C.ROD DIA 16 MM.,   0.00 Single
1668 RFI DTB6380344 14/08/2011 2011-09-28 14:00 2011-09-28 14:30 Purchase of S.C.RD.DIA 8 MM., S.C.ROD DIA 10 MM., S.C.ROD DIA 12 MM., SOLID CARBIDE ROD MICROFINE,   0.00 Single
1669 RFI DZB0490049 14/08/2011 2011-09-02 14:00 2011-09-02 14:30 Purchase of LOADING & TRANSPORTATION OF,   0.00 Single
1670 CFA 11PVTE0321 14/08/2011 2011-09-07 13:00 2011-09-07 14:00 PILOT OPERATED DC VALVE 4WEH   0.00 Single
1671 CFA 11PVTE0322 14/08/2011 2011-09-07 13:00 2011-09-07 14:00 V PULLEY WITH PILOT BORE   0.00 Single
1672 GSF 1100000584 14/08/2011 2011-09-08 00:00 2011-09-08 00:00 COLLET DIA-3.7 MM AS PER DRG.NO.T-21-073., CARBIDE LINED GUIDE BUSH.DIA 3.7MM.TO DRG.NO.T-21-,   0.00 Single
1673 GSF 1100000585 14/08/2011 2011-09-08 00:00 2011-09-08 00:00 COLLET CHUCK BT 40 ER 25 X 100 LENGTH., COLLET CHUCK BT 40 ER 20 X 100 LENGTH., COLLET ISO NO:ER 20 BORE RANGE(1MM.TO 16MM)AT A ST,   0.00 Single
1674 OCFS 2010000489 14/08/2011 2011-09-06 14:30 2011-09-06 15:00 ELECT.SPARES FOR BURNER OFTHERMOPAC   0.00 Single
1675 HEF TE11120111 14/08/2011 2011-09-06 00:00 2011-09-06 00:00 CRANK SHAFT - AIR COMPR.B9910934162   0.00 Single
1676 HEF TE11120112 14/08/2011 2011-09-06 00:00 2011-09-06 00:00 M.S SLIPON FLANGES SIZE 82051700108   0.00 Single
1677 HEF TE11120113 14/08/2011 2011-09-06 00:00 2011-09-06 00:00 ACTION CAN AC-90/WR 1804 1001090006   0.00 Single
1678 HEF TE11120114 14/08/2011 2011-09-06 00:00 2011-09-06 00:00 GEAR BOX V-500, RATIO 15:9910950184   0.00 Single
1679 OFDUN 0471-11 14/08/2011 2011-09-06 00:00 2011-09-06 00:00 DMDRIL21X100X100%ODD/M/2501/08,DMDRIL20X100X100%ODD/M/2501/07   0.00 Single
1680 SAF 3113000550 14/08/2011 2011-08-26 14:30 2011-08-26 15:00 SPRING STEEL WIRE DIA. 1.30MM,   0.00 Single
1681 SAF 3113000551 14/08/2011 2011-08-26 14:30 2011-08-26 15:00 RIVET FLAT HEAD FOR HOUSING BO,   0.00 Single
1682 SAF 3113000552 14/08/2011 2011-09-09 14:30 2011-09-09 15:00 WASHER,FLAT GRENADE SIGHT,   0.00 Single
1683 MPF 3100393 14/08/2011 2011-08-14 14:30 2011-08-14 14:30 READY MIXED PAINT,AIR DRYING SEMI;   0.00 Single
1684 MPF 3100394 14/08/2011 2011-09-06 14:30 2011-09-06 14:30 PROFILE MASTER SET FOR NEW CNC.;   0.00 Single
1685 MPF 3100395 14/08/2011 2011-09-06 14:30 2011-09-06 14:30 INTERNAL ISO HOLDERS FOR NEW CNC MC;   0.00 Single
1686 MPF 3100396 14/08/2011 2011-09-27 14:30 2011-09-27 14:30 GAUGE DRG.NO.765-38-183CD;   0.00 Single
1687 OFBA 110339 14/08/2011 2011-09-08 14:30 2011-09-08 14:30 NOZZLE 500KG/HR FOR BOILER 80A   0.00 Single
1688 HVF 0108172 14/08/2011 2011-08-25 12:00 2011-08-25 15:00 AXLE , etc.   0.00 Single
1689 HVF 0108173 14/08/2011 2011-08-25 12:00 2011-08-25 15:00 BRACKET ASSY , etc.   0.00 Single
1690 HVF 0410334 14/08/2011 2011-08-17 12:00 2011-08-17 15:00 BOLT , etc.   0.00 Single
1691 HVF 0510457 14/08/2011 2011-09-06 12:00 2011-09-06 15:00 43 GRADE ORDINARY PORTLAND CEMENT , etc.   0.00 Single
1692 HVF 0510458 14/08/2011 2011-09-06 12:00 2011-09-06 15:00 CONTACT TIP 2.4 MM DIA , etc.   0.00 Single
1693 HVF 0612687 14/08/2011 2011-09-13 12:00 2011-09-13 15:00 ROPE GRIP THREE BRANCHED , etc.   0.00 Single
1694 HVF 0612688 14/08/2011 2011-09-13 12:00 2011-09-13 15:00 GRIPPER FOR SETTING COMPONENT TO DRG.NO. , etc.   0.00 Single
1695 HVF 0612689 14/08/2011 2011-09-13 12:00 2011-09-13 15:00 GRIP FOR PACKED GUN TO DRG.NO. , etc.   0.00 Single
1696 HVF 0612690 14/08/2011 2011-09-13 12:00 2011-09-13 15:00 DEVICE FOR MEASURING PRESSURE FOR , etc.   0.00 Single
1697 HVF 0812022 14/08/2011 2011-10-11 12:00 2011-10-11 15:00 PRE-PRINTED PAYSLIP FOR IEs WITH HVFLOGO , etc.   0.00 Single
1698 HVF 0812023 14/08/2011 2011-09-27 12:00 2011-09-27 15:00 PRE-PRINTED PAY BILL FOR OFFICERS , etc.   0.00 Single
1699 OFAJ FS2110061 14/08/2011 2011-09-13 14:00 2011-09-13 15:00 SEALING RING DRG.NO. 3-016919/4   0.00 Single
1700 OFAJ IS2110125 14/08/2011 2011-09-02 14:00 2011-09-02 15:00 MICRO GRAPHITE POWDER.   0.00 Single
1701 OFAJ RS2110126 14/08/2011 2011-09-13 14:00 2011-09-13 15:00 ROBUST LIMIT SWITCH SPRING RETN 10A, ROBUST LIMIT SWITCH SR 76.2MM R/O, ROBUST LIMT SWITCH RETURN 38MM   0.00 Single
1702 OFAJ RS2110128 14/08/2011 2011-09-13 14:00 2011-09-13 15:00 CYLINDER SEAL KIT, SET OF CORE CYL. SEAL KIT (11 TYPE)   0.00 Single
1703 OFAJ RS2110129 14/08/2011 2011-09-13 14:00 2011-09-13 15:00 CONTROL VALVE 3D4., DIR.CONTROL VALVE DSG-01-3C2 ., DIR.CONTROL VALVE DSG-01-3C4., DIREC. CONTROL VALVE DSG-01-2B4B ., DIRECTION CONTROL VALVE ., DIRECTIONAL CONTROL VALVE FOR CNC, FLOW CONTROL VALVE.   0.00 Single
1704 OFT A556A89879 14/08/2011 2011-09-06 14:30 2011-09-06 15:00 Steel 36mm BS 970 Gr.708 M40   0.00 Single
1705 FGK 310417 14/08/2011 2011-12-15 00:00 2011-12-15 00:00 SINGLE CORE RUBBER BLENDED HIG,SINGLE CORE RUBBER BLENDED HIG,   0.00 Single
1706 FGK 310418 14/08/2011 2011-11-15 00:00 2011-11-15 00:00 COPPER INSERT OF ARC FURNACE A,   0.00 Single
1707 FGK 310419 14/08/2011 2011-12-13 00:00 2011-12-13 00:00 SINGLE CORE RUBBER BLENDED HIG,SINGLE CORE RUBBER BLENDED HIG,SINGLE CORE RUBBER BLENDED HIG,   0.00 Single
1708 OFPM C1181 14/08/2011 2011-09-13 14:00 2011-09-13 15:00 ANABOND-666 ANABOND 666 RTV SILICON SEALENT   0.00 Single
1709 OFPM C1201 14/08/2011 2011-09-13 14:00 2011-09-13 15:00 LIGHT ORANGE PAINT CODE 557 TO IS:5-1978   0.00 Single
1710 OFPM C1211 14/08/2011 2011-09-13 14:00 2011-09-13 15:00 SILICON RELEASE SPRAY ANTI-SPATTERN   0.00 Single
1711 OFPM T1321 14/08/2011 2011-09-06 14:00 2011-09-06 15:00 HSS PARALLEL SHANK END MILLS 16X32X88MM HSS SIDE&FACE CUTTER STRAGG.80X27X8MM HSS T/S DRILL DIA:24.00,IS:5103 ADDISION HSS LONG FLUTED M/C REAMER 18MM SPOT FACING CUTTER DIA:18 MM-P30.   0.00 Single
1712 OFPM T1331 14/08/2011 2011-09-06 14:00 2011-09-06 15:00 3 JAWS DRILL CHUCK QUICK CHANGE DRILL CHUCK WITH MT2 SHANK   0.00 Single
1713 OFPM T1341 14/08/2011 2011-09-06 14:00 2011-09-06 15:00 SOLID CARBIDE BALL NOSE END MILL. SOLID CARBIDE BALL NOSE END MILL.   0.00 Single
1714 OFPM T1351 14/08/2011 2011-09-06 14:00 2011-09-06 15:00 DRILL TOP CUT PLUS INSERTS XOMT 05 02 04-34   0.00 Single
1715 OFPM T1361 14/08/2011 2011-09-13 14:00 2011-09-13 15:00 GUHRING HSS-E GRADE HAND TAP SET. GUHRING HSS-E GRADE TAP SET. GUHRING HSS-E GRADE TAP SET.   0.00 Single
1716 OFPM T1371 14/08/2011 2011-09-13 14:00 2011-09-13 15:00 DIA:200MM SIDE FACE MILL CUTTER. SPECIAL FORMING CUTTER.   0.00 Single
1717 OFPM T1381 14/08/2011 2011-09-13 14:00 2011-09-13 15:00 SPECIAL BORING BAR DIA:299(R)&300(F).   0.00 Single
1718 EFA 116087 14/08/2011 2011-09-16 00:00 2011-09-16 00:00 SPINDLE FOR ACUMAC CENTRE   0.00 Single
1719 EFA 116088 14/08/2011 2011-09-16 00:00 2011-09-16 00:00 IMMERSED PLATING BARREL WITH TANK   0.00 Single
1720 AFK 20110476 13/08/2011 2011-09-02 14:00 2011-09-02 14:30 OIL SERVO PRESS - 100 OF IOC, HEAVY DUTY ENGINE OIL, INDUS. LUBRI.OIL SERVOMESH SP-100 ETC.   0.00 Single
1721 MSF 11TE210270 13/08/2011 2011-09-07 14:30 2011-09-07 14:30 DOUBLE LEGGED ALLOY STEEL CHAIN ALLOY STEEL DOUBLE LEG CHAIN etc.   Single
1722 MSF 11TE210271 13/08/2011 2011-09-07 14:30 2011-09-07 14:30 SPECIAL COLLET FOR NOSE ADAPTER AS etc.   Single
1723 MSF 11TE210272 13/08/2011 2011-09-09 14:30 2011-09-09 14:30 COMPRESSED OXYGEN etc.   Single
1724 MSF 11TE210273 13/08/2011 2011-09-07 14:30 2011-09-07 14:30 GREASE,GRADE:BEACON EP(M/S.MINO, etc.   Single
1725 RFI DTB0770342 13/08/2011 2011-09-02 14:00 2011-09-02 14:30 Purchase of CATERING & MISC SERVICE,   0.00 Single
1726 CFA 11PVTE0318 13/08/2011 2011-09-06 13:00 2011-09-06 14:00 SPARE PARTS FOR NA CON.PLANT   0.00 Single
1727 CFA 11PVTE0319 13/08/2011 2011-09-06 13:00 2011-09-06 14:00 CONCERTINA COIL   0.00 Single
1728 CFA 11PVTE0320 13/08/2011 2011-09-06 13:00 2011-09-06 14:00 BEAKERS,PHILIPS,CONICAL,250MLBEAKERS,PHILIPS, CONICAL,500ML   0.00 Single
1729 GSF 1100000582 13/08/2011 2011-08-22 00:00 2011-08-22 00:00 ACID SULPHURIC COMMERCIAL.,   0.00 Single
1730 GSF 1100000583 13/08/2011 2011-08-25 00:00 2011-08-25 00:00 ACID SULPHURIC COMMERCIAL.,   0.00 Single
1731 MPF 3100386 13/08/2011 2011-09-06 14:30 2011-09-06 14:30 ONE SET OF C211.25.R.03-11-A-32,3FL; ONE SET OF A490.80.R07-12,80DIA CUT; ONE SET OF C211.32.R.04-11-A-25-40,;   0.00 Single
1732 MPF 3100387 13/08/2011 2011-09-06 14:30 2011-09-06 14:30 INSIDE MICROMETER SIZE:11-14 MM; DIAL VERNIER 200 MM L.C.0.01;   0.00 Single
1733 MPF 3100388 13/08/2011 2011-09-06 14:30 2011-09-06 14:30 CAR.TIP BORING TOOL ISO-8R 130-1616; T MAX TOOL HOLDER CKJNR 2525 M16;   0.00 Single
1734 MPF 3100389 13/08/2011 2011-09-06 14:30 2011-09-06 14:30 WIDEX ENDMILL CUTTER 16MM DIA;   0.00 Single
1735 MPF 3100390 13/08/2011 2011-09-06 14:30 2011-09-06 14:30 INSERT SEMT 13 04 PETR M TT 8020;   0.00 Single
1736 MPF 3100391 13/08/2011 2011-09-06 14:30 2011-09-06 14:30 CLAMP METER MODEL:FLUKE 337A;   0.00 Single
1737 MPF 3100392 13/08/2011 2011-09-06 14:30 2011-09-06 14:30 CABLE ARMOURED PVC INSULATED 1.1 KV; CABLE, E.C GRADE,4 CORE,16 SQ.MM;   0.00 Single
1738 OCFAV 235/ET1112 13/08/2011 2011-09-15 14:30 2011-09-15 14:30 CLOTH COTT.LIGHT BL.150 CM-JAC/TRS/   135400.00 Single
1739 OCFAV 236/ET1112 13/08/2011 2011-09-15 14:30 2011-09-15 14:30 FAB.TWILL/W PC(20:80)DISP W/R 150CM   205700.00 Single
1740 OCFAV 237/11-12 13/08/2011 2011-09-05 14:30 2011-09-05 14:30 NOSE MASK SPECN.3M 9004 IN P1 AS/S   0.00 Single
1741 OFBA 110333 13/08/2011 2011-09-20 14:30 2011-09-20 14:30 ASRYLIC SHEET BOX ASSEMBLY   0.00 Single
1742 OFBA 110334 13/08/2011 2011-09-08 14:30 2011-09-08 14:30 TELEPHONE INSTRUMENT DESKTOP   0.00 Single
1743 OFBA 110335 13/08/2011 2011-09-15 14:30 2011-09-15 14:30 SELF OPERATED TEMPERATURE CONT   10800.00 Single
1744 OFBA 110336 13/08/2011 2011-09-15 14:30 2011-09-15 14:30 MAP LITHO PAPER SIZE A4   0.00 Single
1745 OFBA 110337 13/08/2011 2011-09-20 14:30 2011-09-20 14:30 REPLACEMENT OF BOILER IBR TUBE   12300.00 Single
1746 OFBA 110338 13/08/2011 2011-09-15 14:30 2011-09-15 14:30 ERECTION OF TRANSFORMER BT S/S   13900.00 Single
1747 HVF 0612679 13/08/2011 2011-09-02 12:00 2011-09-02 15:00 DRILL TWIST P/S J/S DIA 4.5MM , etc.   0.00 Single
1748 HVF 0612680 13/08/2011 2011-09-02 12:00 2011-09-02 15:00 TAP LONG SHANK , etc.   0.00 Single
1749 HVF 0612681 13/08/2011 2011-09-02 12:00 2011-09-02 15:00 GRINDING WHEEL TYPE 11 CUP WHEEL TYPE , etc.   0.00 Single
1750 HVF 0612682 13/08/2011 2011-09-02 12:00 2011-09-02 15:00 FINE BORING BAR FOR HSK A63 SPINDLE , etc.   0.00 Single
1751 HVF 0612683 13/08/2011 2011-09-13 12:00 2011-09-13 15:00 GRINDING WHEEL TYPE 1 , etc.   0.00 Single
1752 HVF 0612684 13/08/2011 2011-09-13 12:00 2011-09-13 15:00 GR.WHEELS TYPE1 AA60K5,V8 300X40X127MM , etc.   0.00 Single
1753 HVF 0612685 13/08/2011 2011-09-13 12:00 2011-09-13 15:00 GRINDING WHEEL DIA 750 X 125W X 304.8 MM , etc.   0.00 Single
1754 HVF 0612686 13/08/2011 2011-09-06 12:00 2011-09-06 15:00 DRILL TWIST HSS TAPER SHANK DIA 13.50MM , etc.   0.00 Single
1755 OFAJ RS2110124 13/08/2011 2011-09-06 14:00 2011-09-06 15:00 FUSE HRC SIEMENS TYPE 3NA1 020 80A   0.00 Single
1756 OFAJ RS2110125 13/08/2011 2011-09-06 14:00 2011-09-06 15:00 COV WEIGHT(E2319463)., GOV SPRING RETAINER(D0621463)., GOVERNOR BODY PT.NO 24,ST.D-8114463, GOVERNOR PUSH PIN(D1170463)., GOVERNOR VALVE(D7312463)., GOVT SPRING(Q3511700)., GOVT WT PIN(Q1139400)., IMP   0.00 Single
1757 OFT A182G48119 13/08/2011 2011-08-30 14:30 2011-08-30 15:00 SLING ASSY WITH LOOP SLG REAR   0.00 Single
1758 OFT A212D48120 13/08/2011 2011-08-25 14:30 2011-08-25 15:00 MFG.& SUPPLY OF HOUSING   0.00 Single
1759 OFT A221B48118 13/08/2011 2011-09-13 14:30 2011-09-13 15:00 IC AS PER RFI LATEST DRG.   0.00 Single
1760 OFT A332A48117 13/08/2011 2011-08-23 14:30 2011-08-23 15:00 STEEL TUBE CD SEAMLESS16MM/15.   0.00 Single
1761 OFT A332D48121 13/08/2011 2011-08-30 14:30 2011-08-30 15:00 MACHINING OF HAMMER FOR 7.62MM   0.00 Single
1762 OFCH 201100395 13/08/2011 2011-09-08 14:00 2011-09-08 14:30 CLOTH CALICO WHITE SZ-915 VARI   0.00 Single
1763 OFPM E601 13/08/2011 2011-09-13 14:00 2011-09-13 15:00 DEVELOPMENT OF LANDSCAPING WITH LAWN AT   0.00 Single
1764 OFPM E611 13/08/2011 2011-11-29 14:00 2011-11-29 15:00 ANNUAL CONTRACT FOR 03 NOS OF COOKS FOR   0.00 Single
1765 OFPM H831 13/08/2011 2011-12-01 14:00 2011-12-01 15:00 SET OF ITEMS FOR 765-06-CD4 (SPARES) SET OF ITEMS FOR 675-50-CD7(SPARES) SET OF ITEMS FOR 675-58-CD4 (SPARES)   0.00 Single
1766 OFPM H841 13/08/2011 2011-09-29 14:00 2011-09-29 15:00 GLAND 675-62-28 GLAND TO DRG.NO.675-56-90 STRAP LEATHER 272-77-Cb103 BELT 272-49-137 ASSY HATCHES 6745-130-CD2128   0.00 Single
1767 OFPM H851 13/08/2011 2011-09-15 14:00 2011-09-15 15:00 BOLT TO DRG NO 672-28-31 NUT 700-30-549   0.00 Single
1768 OFPM H861 13/08/2011 2011-09-15 14:00 2011-09-15 15:00 INSTRUCTION PLATE 765-05-738 INSTRUCTION PLATE 765-10-1989 NAME PLATE TO DRG.NO.765-17-251 INSTRUCTION PLATE 765-24-174 INSTRUCTION PLATE 765-46-304 ETC.   0.00 Single
1769 OFPM H871 13/08/2011 2011-09-08 14:00 2011-09-08 15:00 SPRING RING 700-39-272 STRAP 675-64-273 STRAP 675-64-274 STRAP 675-64-301 STRAP 675-64-275 ETC.   0.00 Single
1770 OFPM H881 13/08/2011 2011-09-22 14:00 2011-09-22 15:00 LOCKING PLATE DRG.765-12-700 765-31-16 LOCKING STRAP SAFETY WASHER 672-31-10 700-31-547 LOCK WASHER. TAB WASHER 672-31-71-01 ETC.   0.00 Single
1771 OFPM M151 13/08/2011 2011-09-13 14:00 2011-09-13 15:00 RISER PIPE FOR LPDC M/C, DRG NO.00281   0.00 Single
1772 OFPM R571 13/08/2011 2011-09-02 14:00 2011-09-02 15:00 COLD RLD CARBON ST SH0.15MMXST W&LIS1079 ST.SH 4X1000X2000MM GR:65C6 TOIS:2507-75   0.00 Single
1773 OFPM R581 13/08/2011 2011-09-02 14:00 2011-09-02 15:00 ST.SH:3X1000X2000MM GR-35C8 TO IS:5517 STEEL SHEET 3MMX1250MMX2500MM STEEL SHEET 3.15 X 1250 X2500 MM IS1079   0.00 Single
1774 OFPM R591 13/08/2011 2011-09-02 14:00 2011-09-02 15:00 ST.SH 2.5X1250X2500MM GR-Fe330 IS:1079-8 HOT RLD ST.SH 2X1000X2500MM GR-Fe330. STEEL SHEET 2 X 1250 X 2500 MM IS:1079   0.00 Single
1775 OFPM R601 13/08/2011 2011-09-09 14:00 2011-09-09 15:00 ST SH 10MM Fe410 TO IS:1079-88 STEEL SHEET 10MM TO 35C8,IS:5517-93 STEEL SHEET 12X1250X2500 MM TO IS:1079   0.00 Single
1776 OFPM R611 13/08/2011 2011-09-09 14:00 2011-09-09 15:00 ST.SH 6X1250X2000/2500MM Fe360 IS:5986-9 STEEL SHEET 6X1250X2500 MM IS:1079 GR:D STEEL SHEET 6X1250X2500 TO FE-410   0.00 Single
1777 OFPM S1161 13/08/2011 2011-11-15 14:00 2011-11-15 15:00 HARMONIC DRIVE MODEL: HD   0.00 Single
1778 OFPM T1251 13/08/2011 2011-09-13 14:00 2011-09-13 15:00 CARBIDE INSERTS B/W/U DRILLS WCMX040208 CARBIDE INSERTS B/W/U DRILLS WCMX060308   0.00 Single
1779 OFPM T1261 13/08/2011 2011-09-13 14:00 2011-09-13 15:00 TUNGSTAN CARBIDE ROTARY BURRS DIA=12MM TUNGSTAN ROTARY BURRS. TUNGSTAN CARBIDE ROTARY BURRS.   0.00 Single
1780 OFPM T1271 13/08/2011 2011-09-06 14:00 2011-09-06 15:00 OUTSIDE MICROMETER 0.25MM LC 0.01MM VERNIER CALIPER SIZE.0-200MM,505-647-50. VERNIER HT GAUGE WITH SCALE 12X300MM   0.00 Single
1781 OFPM T1281 13/08/2011 2011-09-13 14:00 2011-09-13 15:00 DIE FOR MANUFACTURE OF WAX PATTERN. DIE FOR MANUFACTURE OF WAX PATTERN.   0.00 Single
1782 OFPM T1291 13/08/2011 2011-09-13 14:00 2011-09-13 15:00 3 JAW ROHM LATHE CHUCK ID NO.108897 4 JAW ROHM LATHE CHUCK ID NO. 109210   0.00 Single
1783 OFPM T1301 13/08/2011 2011-09-20 14:00 2011-09-20 15:00 M40 SQ.SHOULD FACE MILL DIA:100MM-TP-22. FULL SIDE AND FACE MILLING CUTTER   0.00 Single
1784 OFPM T1311 13/08/2011 2011-09-13 14:00 2011-09-13 15:00 M35 P/S END MILL(STD.) DIA: 3.0MM HSS PARALLEL SHANK END MILLS DIA 25.0MM   0.00 Single
1785 HAPP 11/0210 13/08/2011 2011-09-13 14:00 2011-09-13 14:30 STEEL ROD DIA 150MM,BS 970,PT-3,080 M30   0.00 Single
1786 HAPP 11/0211 13/08/2011 2011-09-13 14:00 2011-09-13 14:30 STEEL PLATE 12MM THICK GR 080 M40/EN8   0.00 Single
1787 HAPP 11/0212 13/08/2011 2011-09-13 14:00 2011-09-13 14:30 SOLID CARBIDE DRILL DIA 6.0MM,O/L 66.0MM   0.00 Single
1788 EFA 111268 13/08/2011 2011-09-06 00:00 2011-09-06 00:00 HOSE   0.00 Single
1789 EFA 111269 13/08/2011 2011-09-06 00:00 2011-09-06 00:00 NUT M9   0.00 Single
1790 EFA 111270 13/08/2011 2011-09-06 00:00 2011-09-06 00:00 RING 27X35   0.00 Single
1791 EFA 111271 13/08/2011 2011-09-06 00:00 2011-09-06 00:00 HOSE   0.00 Single
1792 EFA 111272 13/08/2011 2011-09-06 00:00 2011-09-06 00:00 SPANNER FOR INJECTOR NUT   0.00 Single
1793 EFA 111273 13/08/2011 2011-09-06 00:00 2011-09-06 00:00 WASHER WITH STOPS   0.00 Single
1794 EFA 111274 13/08/2011 2011-09-16 00:00 2011-09-16 00:00 UNION   0.00 Single
1795 EFA 111275 13/08/2011 2011-09-16 00:00 2011-09-16 00:00 SEALING RING   0.00 Single
1796 EFA 111276 13/08/2011 2011-09-16 00:00 2011-09-16 00:00 CLEAT   0.00 Single
1797 EFA 111277 13/08/2011 2011-09-16 00:00 2011-09-16 00:00 BRANCH PIPE GASKET   0.00 Single
1798 EFA 111278 13/08/2011 2011-09-30 00:00 2011-09-30 00:00 NUT M8   0.00 Single
1799 EFA 111279 13/08/2011 2011-09-30 00:00 2011-09-30 00:00 NUT   0.00 Single
1800 EFA 111280 13/08/2011 2011-10-14 00:00 2011-10-14 00:00 SCREW DRIVER   0.00 Single
1801 EFA 111281 13/08/2011 2011-09-30 00:00 2011-09-30 00:00 CLIP   0.00 Single
1802 EFA 111282 13/08/2011 2011-09-13 00:00 2011-09-13 00:00 SPRING   0.00 Single
1803 EFA 111283 13/08/2011 2011-09-16 00:00 2011-09-16 00:00 SEALING RING   0.00 Single
1804 EFA 111284 13/08/2011 2011-09-16 00:00 2011-09-16 00:00 ROTOR BLADE   0.00 Single
1805 EFA 111285 13/08/2011 2011-09-16 00:00 2011-09-16 00:00 RING   0.00 Single
1806 EFA 111286 13/08/2011 2011-09-16 00:00 2011-09-16 00:00 GASKET   0.00 Single
1807 EFA 111287 13/08/2011 2011-09-16 00:00 2011-09-16 00:00 GASKET   0.00 Single
1808 EFA 111288 13/08/2011 2011-09-16 00:00 2011-09-16 00:00 SCREW   0.00 Single
1809 EFA 117530 13/08/2011 2011-08-23 00:00 2011-08-23 00:00 SERVO SUPER MULTIGRADEOIL20W50   0.00 Single
1810 OFBOL 11120131 13/08/2011 2011-09-09 14:30 2011-09-09 14:30 COMMON SALT FOR CHEMICAL INDUSTRY   0.00 Single
1811 OFDR 2011000149 13/08/2011 2011-09-06 14:30 2011-09-06 15:00 1. APC NO.11 (W.P.COMPO.RD-1154)   3.00 Single
1812 OFDR 2011000150 13/08/2011 2011-09-06 14:30 2011-09-06 15:00 1. ARALDITE (CIBA)PACKET OF 1.8 KG   3.00 Single
1813 OFDR 2011000151 13/08/2011 2011-09-06 14:30 2011-09-06 15:00 1. POLYVINYL CHLORIDE POWDER SIZE 75   3.00 Single
1814 OFDR 2011000152 13/08/2011 2011-09-06 14:30 2011-09-06 15:00 1. BARIUM CHROMATE   3.00 Single
1815 OFDR 2011000153 13/08/2011 2011-09-06 14:30 2011-09-06 15:00 1. ETHYL CELLULOSE (N-200) TO PISIONAL   3.00 Single
1816 AFK 20110473 12/08/2011 2011-09-02 14:00 2011-09-02 14:30 2 BARE SCREW COMPRESSOR HCH 127 M   0.00 Single
1817 AFK 20110474 12/08/2011 2011-08-30 14:00 2011-08-30 14:30 TYRES SOLID RUBBER NON-SKID TYPE   0.00 Single
1818 AFK 20110475 12/08/2011 2011-09-02 14:00 2011-09-02 14:30 2 X 28W FTL SURFACE/PENDENT MOUNTNG, 1 X 28W FTL SURFACE/PENDENT MAUNTNG ETC.   0.00 Single
1819 OEFC 20110292 12/08/2011 2011-09-05 13:30 2011-09-05 14:00 AMC OF AUTOMATIC XRAY FILM PROCESSOR (MODEL-PRO (ADC) M/C NO.0881   0.00 Single
1820 OEFC 20110383 12/08/2011 2011-08-12 13:30 2011-08-12 14:00 BUCKLE ALUMINIUM 57MM (MALE FOR BELT WAIST OF SYNT, BUCKLE ALUMINIUM 57MM (FEMALE) FOR BELT WAIST OF S, ,   0.00 Single
1821 MSF 11TE230269 12/08/2011 2011-08-26 14:30 2011-08-26 14:30 CLEANING & REMOVING OF GARBAGE etc.   Single
1822 GCF 110192SA56 12/08/2011 2011-09-29 10:30 2011-09-29 11:00 MAGAZINE TUBE WITH PLUG.SG-004   0.00 Single
1823 GCF 110193AD56 12/08/2011 2011-09-29 10:30 2011-09-29 11:00 AXLE.TO DRG NO 155-32-021. AXLE TO DRG NO PRG-01-05-15 AXLE.TO DRG NO 155-32-021-A AXLE TO DRG N0 PRG-01-05-13   0.00 Single
1824 GCF 110194P756 12/08/2011 2011-09-29 10:30 2011-09-29 11:00 PRIMARY CARTRIDGE KEY 1398-000099   0.00 Single
1825 GCF 110195AD56 12/08/2011 2011-09-29 10:30 2011-09-29 11:00 BALL GOST:372281 (4060) EYELET DRG NO. PRG 01-21M-03. 7105102969.LUG PRG 01-12-01 CARRIER DRGNO. PRG-01-21M-01   0.00 Single
1826 GCF 111187NC56 12/08/2011 2011-09-20 10:30 2011-09-20 11:00 INVERTER BASED SINGLE PHASE PORTABL   0.00 Single
1827 GCF 111188NC56 12/08/2011 2011-09-20 10:30 2011-09-20 11:00 PHOSPHOR BRONZE GRADE -III BUSH.   0.00 Single
1828 GCF 111189NC56 12/08/2011 2011-09-20 10:30 2011-09-20 11:00 ONE SET OF 30 SPARE PARTS OF VOLTAS   0.00 Single
1829 GCF 111190NC56 12/08/2011 2011-09-20 10:30 2011-09-20 11:00 ONE SET OF FOUR TIPES WIPER MOTORS   0.00 Single
1830 GCF 111191NC56 12/08/2011 2011-09-20 10:30 2011-09-20 11:00 LCD/MDI UNIT.   0.00 Single
1831 GCF 111192NA56 12/08/2011 2011-09-13 10:30 2011-09-13 11:00 FILE FLAT SMOOTH 6" FILE HALF ROUND SMOOTH 150 MM FILE HALF ROUND SMOOTH 300 MM FILE SQ ROUGH 12" FILE SQUARE ROUGH 250 MM(10 INCH) FILE SQ SECOND CUT 10" FILE SQ SECOND CUT 12" FILE THREE SQUARE SE   0.00 Single
1832 GCF 111193NB56 12/08/2011 2011-09-08 10:30 2011-09-08 11:00 COKE HARD   0.00 Single
1833 GCF 111194NA56 12/08/2011 2011-09-13 10:30 2011-09-13 11:00 TOOL BAR TURNING R-110-20X20P30 C16 TOOL CT R-111-20X20 P-30 TIP C-16 T/CRANKED TURNING R-111 25X25 P40 TOOL CRANKED KNIFE R117 20X20 P40 TOOL CRANKED RD NOSE R-115-25X25G20   0.00 Single
1834 RFI DTB3180336 12/08/2011 2011-09-14 14:00 2011-09-14 14:30 Purchase of TURNING INSERTS NO.VBMT-160408,   0.00 Single
1835 RFI DTB3480337 12/08/2011 2011-09-14 14:00 2011-09-14 14:30 Purchase of SHANK THREAD MILLING CUTTER, INSERT, INSERT SCREW, TORX KEY,   0.00 Single
1836 RFI DTB4270338 12/08/2011 2011-09-09 14:00 2011-09-09 14:30 Purchase of FLUX,   0.00 Single
1837 RFI DTB6380339 12/08/2011 2011-09-09 14:00 2011-09-09 14:30 Purchase of DIA.12 S/CARBIDE ENDMILL/SAL.C,   0.00 Single
1838 RFI DTB6380340 12/08/2011 2011-09-09 14:00 2011-09-09 14:30 Purchase of FLAT BED ABRASIVE BELT GRINDIN,   0.00 Single
1839 RFI DTB6380341 12/08/2011 2011-09-12 14:00 2011-09-12 14:30 Purchase of A16,S/C P40 M/GRADE 4.5D E/MIL,   0.00 Single
1840 CFA 11PVTE0317 12/08/2011 2011-09-06 13:00 2011-09-06 14:00 HAND OPERATED GREASE DISPENSERHAND OPERATED GREASE DISPENSERHAND OPERATED GREASE DISPENSER   0.00 Single
1841 GSF 1100000560 12/08/2011 2011-09-05 00:00 2011-09-05 00:00 S/C END MILL CUTTER DIA 8MM,F/LENGTH 50MM.,   0.00 Single
1842 GSF 1100000561 12/08/2011 2011-09-05 00:00 2011-09-05 00:00 DISC SPRING PT.NO.H991824C FOR M.S.AUTO AS-48 M/C.,   0.00 Single
1843 GSF 1100000562 12/08/2011 2011-09-05 00:00 2011-09-05 00:00 PULL STUD WITHOUT THROUGH HOLE. DIN 69872 FORM'B'., COLLET ISO NO:ER 25 BORE RANGE 1MM.TO 16MM.AT A ST,   0.00 Single
1844 GSF 1100000563 12/08/2011 2011-09-05 00:00 2011-09-05 00:00 DRILL TWIST ST.SHANK HSS 0.1015" G-38, DRILL TWIST ST SHANK HSS 6.2MM.,   0.00 Single
1845 GSF 1100000564 12/08/2011 2011-09-05 00:00 2011-09-05 00:00 SWISS FILE 6"LONG FLAT,H/RD,RD,SQR,KNFE,TRIANGULAR,   0.00 Single
1846 GSF 1100000565 12/08/2011 2011-09-05 00:00 2011-09-05 00:00 BRAZED TOOL 163-1212-P30.,   0.00 Single
1847 GSF 1100000566 12/08/2011 2011-08-29 00:00 2011-08-29 00:00 STEEL BLOCK 6" SQUARE X 8" LONG BS 970 EN-15,   0.00 Single
1848 GSF 1100000567 12/08/2011 2011-09-12 00:00 2011-09-12 00:00 STEEL ROUND 1 3/4" DIA.TO SPECN.STA-5/V 9D,   0.00 Single
1849 GSF 1100000568 12/08/2011 2011-09-12 00:00 2011-09-12 00:00 STEEL FLAT 3"+1/4"X1-1/4"+1/4"BS970 PT-1:709 M-40R,   0.00 Single
1850 GSF 1100000569 12/08/2011 2011-08-29 00:00 2011-08-29 00:00 NUT PLUNGER CATCH RET.CRANK HANDLE 10819/98 F/C,   0.00 Single
1851 GSF 1100000570 12/08/2011 2011-08-29 00:00 2011-08-29 00:00 SCREW PIVOT TRIGGER (ITEM-12) F/C,   0.00 Single
1852 GSF 1100000571 12/08/2011 2011-08-29 00:00 2011-08-29 00:00 PIN AXIS STIRRUP (ITEM-7) RGF-10819/98 F/C,   0.00 Single
1853 GSF 1100000572 12/08/2011 2011-08-29 00:00 2011-08-29 00:00 SPRING CATCH RETAINING CRANK HANDLE (ITEM-10) F/C,   0.00 Single
1854 GSF 1100000573 12/08/2011 2011-08-29 00:00 2011-08-29 00:00 CRANK HANDLE MK-II (NOD-2180/5) F/C,   0.00 Single
1855 GSF 1100000574 12/08/2011 2011-09-01 00:00 2011-09-01 00:00 SPRING TRIGGER SEAR MK-1 (ITEM-5) RGF10819/99 F/C,   0.00 Single
1856 GSF 1100000575 12/08/2011 2011-09-01 00:00 2011-09-01 00:00 TRIGGER WITH PIVOT SCREW (ITEM-3) IN F/C.,   0.00 Single
1857 GSF 1100000576 12/08/2011 2011-09-01 00:00 2011-09-01 00:00 SCREW FIXING TRIGGER GUARD(ITEM-9)RGF-10819/99 F/C,   0.00 Single
1858 GSF 1100000577 12/08/2011 2011-09-08 00:00 2011-09-08 00:00 H.T.BRASS CASTING DRG.NO.RGF-10819/53 GSF:C-2059 A,   0.00 Single
1859 GSF 1100000578 12/08/2011 2011-09-01 00:00 2011-09-01 00:00 DISTANCE PIECE FOR TIE BAR (ITEM-B) NAD 1025/4 F/C,   0.00 Single
1860 GSF 1100000579 12/08/2011 2011-09-01 00:00 2011-09-01 00:00 SCREW FIXING (ITEM-3) RGF-10819/100 F/C,   0.00 Single
1861 GSF 1100000580 12/08/2011 2011-09-01 00:00 2011-09-01 00:00 SPRING RETAINING FOR TRIGGER MK-1 A-92 (ITEM-2) FC,   0.00 Single
1862 GSF 1100000581 12/08/2011 2011-09-01 00:00 2011-09-01 00:00 SCREW FIXING SPRING RETAINING TRIGGER MK-1 F/C.,   0.00 Single
1863 HEF TE11120108 12/08/2011 2011-08-30 00:00 2011-08-30 00:00 HOSE - STEAM. 9910970028   0.00 Single
1864 HEF TE11120109 12/08/2011 2011-08-30 00:00 2011-08-30 00:00 FREON GAS 22 FOR REFRIGER1001251420   0.00 Single
1865 HEF TE11120110 12/08/2011 2011-08-30 00:00 2011-08-30 00:00 12 V/7 AH BATTERIES 2509457007   0.00 Single
1866 OFK 11CST-0562 12/08/2011 2011-09-09 14:30 2011-09-09 13:00 TYRE&TUBE SET(SIZE16X9X28.12 PLY).,TYRE&TUBE SET(13.6X28,12 PLY RATING,TYRE&TUBE(6.50X20)FRONT HMT TRACTOR,TYRE&TUBE SET SIZE-6.00X16HEAVYDUTY etc.   0.00 Single
1867 OFK 11CST-0563 12/08/2011 2011-09-09 14:30 2011-09-09 13:00 3 PHASE,VOLTAGE STABILIZER 21KVA,   0.00 Single
1868 OFK 11CST-0564 12/08/2011 2011-09-09 14:30 2011-09-09 13:00 SINGLE PHASE PORTABLE INVERTER   0.00 Single
1869 OFK 11CST-0565 12/08/2011 2011-09-13 14:30 2011-09-13 13:00 CLOTH EMEMRY NO.1 SIZE 150/180   0.00 Single
1870 OFK 11CST-0566 12/08/2011 2011-09-13 14:30 2011-09-13 13:00 WIRE ELE SINGEL CORE PVC 32/.20MM,WIRE ELE SINGLE CORE PVC 50/.25MM,WIRE ELE SINGLE CORE PVC 56/.30MM etc.   0.00 Single
1871 OFK 11CST-0567 12/08/2011 2011-09-13 14:30 2011-09-13 13:00 CONDUIT PIPE SADDLE SPACER DUTY 3/4,G.I.SADDLE FOR PVC CONDUIT 1" DIA etc.   0.00 Single
1872 OFK 11CST-0568 12/08/2011 2011-09-06 14:30 2011-09-06 13:00 STD.COLLET DRG.KHT150155/9.   0.00 Single
1873 OFK 11CST-0569 12/08/2011 2011-09-06 14:30 2011-09-06 13:00 INSERT VNMG 160408 PM - 4025.,INSERT CNMG-120408 GR TN OR SIMILAR etc.   0.00 Single
1874 SAF 3113000543 12/08/2011 2011-09-02 14:30 2011-09-02 15:00 WHEEL LOCK TO DRG.NO. CQA(SA),   0.00 Single
1875 SAF 3113000544 12/08/2011 2011-10-07 14:30 2011-10-07 15:00 SILVER BRAZING ALLOY ROD 1/16",   0.00 Single
1876 SAF 3113000545 12/08/2011 2011-10-07 14:30 2011-10-07 15:00 SILVER BRAZING ALLOY FOIL 0.07,   0.00 Single
1877 SAF 3113000546 12/08/2011 2011-10-07 14:30 2011-10-07 15:00 SILVER BRAZING ALLOY FOIL O.01,   0.00 Single
1878 SAF 3113000547 12/08/2011 2011-10-07 14:30 2011-10-07 15:00 TRICHLOROETHYLENE-TECH.TYPE 1,   0.00 Single
1879 SAF 3113000548 12/08/2011 2011-10-07 14:30 2011-10-07 15:00 HONNING HOLDER ASSEY. DIA 9.0,   0.00 Single
1880 SAF 3113000549 12/08/2011 2011-10-07 14:30 2011-10-07 15:00 VISITOR CHAIR GODREJ MODEL PCH,EXECUTIVE TABLE WITH SIDE TABL,CHAIR GODREJ MODEL PCH-7002D O,   0.00 Single
1881 MPF 3100383 12/08/2011 2011-09-02 14:30 2011-09-02 14:30 AIR CIRCULATORINDL.TYPE PEDESTALFAN;   0.00 Single
1882 MPF 3100384 12/08/2011 2011-09-02 14:30 2011-09-02 14:30 ULTRA VIOLET WATER PURIFIER.;   0.00 Single
1883 MPF 3100385 12/08/2011 2011-09-06 14:30 2011-09-06 14:30 PAINTING FIXTURE FOR PROJECT.FFU65.;   0.00 Single
1884 OCFC 2011LTE216 12/08/2011 2011-08-30 00:00 2011-08-30 00:00 ,PLUG SHRG20P4ESH8 ,PLUG FEMALE SHR32P10ESH1 ,PLUG FEMALE SSHR32P10ESH4 ,PLUG FEMALE SHR40P16ESH2   0.00 Single
1885 HVF 0108169 12/08/2011 2011-09-08 12:00 2011-09-08 15:00 CATCH , etc.   0.00 Single
1886 HVF 0108170 12/08/2011 2011-08-25 12:00 2011-08-25 15:00 PLUG , etc.   0.00 Single
1887 HVF 0210585 12/08/2011 2011-09-08 12:00 2011-09-08 15:00 BOLT , etc.   0.00 Single
1888 HVF 0410328 12/08/2011 2011-09-07 12:00 2011-09-07 15:00 CLIP ASSY , etc.   0.00 Single
1889 HVF 0410329 12/08/2011 2011-09-07 12:00 2011-09-07 15:00 TIE BUTTON , etc.   0.00 Single
1890 HVF 0410330 12/08/2011 2011-09-07 12:00 2011-09-07 15:00 FUSE CP-15 UKHLZ 30V , etc.   0.00 Single
1891 HVF 0410333 12/08/2011 2011-09-07 12:00 2011-09-07 15:00 DOUBLE WIRE DOME LIGHT.TYPE PMB-71 ASSY. , etc.   0.00 Single
1892 HVF 0510456 12/08/2011 2011-09-13 12:00 2011-09-13 15:00 FIRE BUCKETS,10 LITERS CAPACITY , etc.   0.00 Single
1893 HVF 0812016 12/08/2011 2011-09-13 12:00 2011-09-13 15:00 CHEMICAL RESISTANT EPOXY COATING IN , etc.   0.00 Single
1894 OFV 20110276 12/08/2011 1899-12-31 14:30 1899-12-31 15:00 PULLER (STN 2-6) V5/CT/049A.,PULLER (STN 2-6) V5/CT/050C.,   0.00 Single
1895 OFV 20110277 12/08/2011 1899-12-31 14:30 1899-12-31 15:00 ELECTRONIC WEIGHING BALANCE M/C,   0.00 Single
1896 OFAJ IS2110123 12/08/2011 2011-09-16 14:00 2011-09-16 15:00 EXECUTIVE CHAIR (HONCHO HB METHODEX, VERSATILE STORAGE SYSTEM(OPTIMIZER)   0.00 Single
1897 OFAJ NS2110036 12/08/2011 2011-09-14 14:00 2011-09-14 15:00 REFRACTORY LINING DRG. NO.FDY-288   0.00 Single
1898 OFT A150R48115 12/08/2011 2011-09-06 14:30 2011-09-06 15:00 VALIDATION OF DRG FOR MGL   0.00 Single
1899 OFT A160P48110 12/08/2011 2011-09-06 14:30 2011-09-06 15:00 TARGET PAPER AS PER SAMPLE   0.00 Single
1900 OFT A210L48116 12/08/2011 2011-09-06 14:30 2011-09-06 15:00 ARGON ARC NOZZLE TO SIZE 4, AS   0.00 Single
1901 OFT A440R48111 12/08/2011 2011-09-06 14:30 2011-09-06 15:00 SAMSUNG TONER CARE ML-1640   0.00 Single
1902 OFT A440R48112 12/08/2011 2011-09-06 14:30 2011-09-06 15:00 BLACK CARTRIDGE CANNON 308 II   0.00 Single
1903 OFT A440R48113 12/08/2011 2011-09-06 14:30 2011-09-06 15:00 MAGENTHA TONER CART.FOR HP2550   0.00 Single
1904 OFT A540M48114 12/08/2011 2011-09-06 14:30 2011-09-06 15:00 CHROMEKILL-HEXAVALENT CHROMIUM   0.00 Single
1905 OFT A55LE89877 12/08/2011 2011-09-06 14:30 2011-09-06 15:00 CHANGE LEVER RH TO DRAWING 33P   0.00 Single
1906 OFT A55LE89878 12/08/2011 2011-09-06 14:30 2011-09-06 15:00 CHANGE LEVER LH TO DRAWING 33P   0.00 Single
1907 OFCH 201100392 12/08/2011 2011-09-12 14:00 2011-09-12 14:30 MILK FRESH 01-10-2011 TO 30-09   0.00 Single
1908 OFCH 201100393 12/08/2011 2011-10-10 14:00 2011-10-10 14:30 THREAD COTTON SEWING 18.5 TEX.   0.00 Single
1909 OFCH 201100394 12/08/2011 2011-09-08 14:00 2011-09-08 14:30 TAPE ADHESIVE WP FAB 12.7 MM W   26160.00 Single
1910 OEFHZ 20110106 12/08/2011 2011-09-16 00:00 2011-09-16 00:00 EXIDE CHLORIDE LOW MAINT.TR.BATTERY   0.00 Single
1911 OEFHZ 20110107 12/08/2011 2011-09-16 00:00 2011-09-16 00:00 PVC ALUMINIUM CABLE 2.5MM SQ.   0.00 Single
1912 OEFHZ 20110108 12/08/2011 2011-09-06 00:00 2011-09-06 00:00 SEWING COTTON 165D TEX/6 KHAKI   0.00 Single
1913 OEFHZ 20110109 12/08/2011 2011-09-16 00:00 2011-09-16 00:00 COMPRESSION DEVICE FOR DETERMINATIO   0.00 Single
1914 VFJ 111WP0062 12/08/2011 2011-09-06 14:30 2011-09-06 14:30 BRACKET (GEAR CHANGE LEVER),   0.00 Single
1915 VFJ 111WP0063 12/08/2011 2011-09-06 14:30 2011-09-06 14:30 STRAINER ASSY.,   0.00 Single
1916 VFJ 111WP0064 12/08/2011 2011-09-06 14:30 2011-09-06 14:30 HANDLE ASSY,   0.00 Single
1917 VFJ 111WP0065 12/08/2011 2011-09-06 14:30 2011-09-06 14:30 HANDLE/LEVER 765-58-221/C,   0.00 Single
1918 VFJ 112TP0044 12/08/2011 2011-09-13 14:30 2011-09-13 14:30 SPRING,   0.00 Single
1919 VFJ 112TP0045 12/08/2011 2011-09-13 14:30 2011-09-13 14:30 BUSH GOST STD./ BAR,   0.00 Single
1920 VFJ 112TP0046 12/08/2011 2011-09-13 14:30 2011-09-13 14:30 LOCK,   0.00 Single
1921 VFJ 112TP0047 12/08/2011 2011-09-13 14:30 2011-09-13 14:30 PACKING,   0.00 Single
1922 VFJ 112TP0048 12/08/2011 2011-09-13 14:30 2011-09-13 14:30 SPRING GOST STD,   0.00 Single
1923 VFJ 113ET3416 12/08/2011 2011-08-18 13:00 2011-08-18 13:00 ASSY FLOOR FLAT BED-715,BS-III,   0.00 Single
1924 VFJ 113ET3417 12/08/2011 2011-08-30 14:30 2011-08-30 14:30 JARRICAN CARRIER,   0.00 Single
1925 VFJ 114G7040 12/08/2011 2011-09-13 14:00 2011-09-13 14:00 MAINTE.OF CLENING.IN ESTATE.,   64500.00 Two
1926 VFJ 114G7041 12/08/2011 2011-09-13 14:00 2011-09-13 14:00 GRASS CUTTING/CLEANING &MAINTE,   0.00 Two
1927 VFJ 114G7042 12/08/2011 2011-09-13 14:00 2011-09-13 14:00 SANITATION AND CLEANING OF PL1,   0.00 Two
1928 FGK 310408 12/08/2011 2011-08-18 00:00 2011-08-18 00:00 AXIAL TOOL HOLDER FOR TURRET A,   0.00 Single
1929 FGK 310409 12/08/2011 2011-09-15 00:00 2011-09-15 00:00 FILE SWIS TYPE (NEEDLE FILE),FILE SQUARE SECOND CUT SIZE: 2,FILE HALF ROUND 2ND CUT 250MM,FILE HALF ROUND SIZE-200MM SEC,FILE SQUARE 150MM(6") 2ND CUT,FILE FLAT 6" 2ND CUT 150MM,FILE SWISS KNIFE EDGE   0.00 Single
1930 FGK 310410 12/08/2011 2011-11-29 00:00 2011-11-29 00:00 CASE OF FIRING UNIT DRG.305301,   0.00 Single
1931 FGK 310411 12/08/2011 2012-02-14 00:00 2012-02-14 00:00 MICROMETER O/S 300-400MM LC=0.,O/S MICROMETER 125-150MM LC=0.,OUTSIDE MICROMETER SIZE: 100-1,OUT SIDE MICROMETER SIZE 75-10,   0.00 Single
1932 FGK 310412 12/08/2011 2012-01-03 00:00 2012-01-03 00:00 END MILL P/S 10%CO.M42HSS SIZE,P/S HSS M42 END MILL CUTTER SI,P/S END MILL CUTTER HSS M42 SI,HSS M42 P/S END MILL CUTTER SI,P/S M42 END MILL CUTTER SIZE-6,P/S End Mill Cutter Std.Size:4,   0.00 Single
1933 FGK 310413 12/08/2011 2011-11-29 00:00 2011-11-29 00:00 PREMACHINING OF ARM 495 OF FIR,   0.00 Single
1934 FGK 310414 12/08/2011 2012-01-24 00:00 2012-01-24 00:00 SET OF CARBIDE TIP BRAZED RIGH,   0.00 Single
1935 FGK 310415 12/08/2011 2011-12-29 00:00 2011-12-29 00:00 INSERT DNMG 150604-TN 4000/PM,   0.00 Single
1936 FGK 310416 12/08/2011 2011-12-29 00:00 2011-12-29 00:00 SET OF MILLING CUTTER SIZE-50,   0.00 Single
1937 OFPM B1001 12/08/2011 2011-09-27 14:00 2011-09-27 15:00 SWITCH PIANO 6A 250V ONE WAY NO.1014. 5PIN SWITCH SOCKET COMBINED 6A250V   0.00 Single
1938 OFPM B1011 12/08/2011 2011-09-27 14:00 2011-09-27 15:00 PVC INSUL.TAPE BLUE 25MM(W)X0.125MM THIC PVC ADHE.INSU.TAPE YEL.COLOUR 25x0.14x20   0.00 Single
1939 OFPM B981 12/08/2011 2011-09-27 14:00 2011-09-27 15:00 TELEPHONE INSTRUMENT   0.00 Single
1940 OFPM B991 12/08/2011 2011-09-20 14:00 2011-09-20 15:00 STARTER FLUORESENT TUBE 250V 40W TO 80W   0.00 Single
1941 OFPM H801 12/08/2011 2011-09-08 14:00 2011-09-08 15:00 OIL DIP STICK 765-06-CD275. ROD TO DRG:765-17-CD256   0.00 Single
1942 OFPM H811 12/08/2011 2011-09-08 14:00 2011-09-08 15:00 6745-50-1136 TUBE 6745-50-1138 TUBE 6745-50-1210 TUBE 6745-50-1211 TUBE   0.00 Single
1943 OFPM H821 12/08/2011 2011-10-27 14:00 2011-10-27 15:00 SET OF ITEMS FOR 765-17-CD2 SET OF ITEMS FOR 765-24-CD4   0.00 Single
1944 OFPM S1141 12/08/2011 2011-09-30 14:00 2011-09-30 15:00 CURVIC COUPLING   0.00 Single
1945 OFPM S1151 12/08/2011 2011-11-23 14:00 2011-11-23 15:00 SOLID CHUCK WITH SUITABLE CYLINDER   0.00 Single
1946 OFPM T1221 12/08/2011 2011-09-06 14:00 2011-09-06 15:00 SQUARE SHOULDER END MILLING CUTTER.   0.00 Single
1947 OFPM T1231 12/08/2011 2011-09-06 14:00 2011-09-06 15:00 EXTERNAL THREADING INSERT 2MM PITCH 16ER INSERT 4004Y-IC 908. INTERNAL THREADING INSERT   0.00 Single
1948 OFPM T1241 12/08/2011 2011-09-06 14:00 2011-09-06 15:00 DIAMOND COATED NEEDLE FILE (KNIFE EDGE). M.T.3 REVOLVING CENTRE FOUR BEARING   0.00 Single
1949 OFPM V1111 12/08/2011 2011-08-12 14:00 2011-08-12 15:00 GREASE GUN 200-3 TO SPEECNNO:GOST 8043-7   0.00 Single
1950 OFPM V1121 12/08/2011 2011-09-14 14:00 2011-09-14 15:00 MOUNTING PARTS OF GUN TO DRG..675-51-SB4   0.00 Single
1951 EFA 111260 12/08/2011 2011-09-06 00:00 2011-09-06 00:00 YOKE   0.00 Single
1952 EFA 111261 12/08/2011 2011-09-06 00:00 2011-09-06 00:00 UNION BLIND   0.00 Single
1953 EFA 111262 12/08/2011 2011-09-06 00:00 2011-09-06 00:00 LOCK WASHER   0.00 Single
1954 EFA 111263 12/08/2011 2011-09-06 00:00 2011-09-06 00:00 SEALING RING   0.00 Single
1955 EFA 111264 12/08/2011 2011-09-23 00:00 2011-09-23 00:00 BOLT M8 X 85   0.00 Single
1956 EFA 111265 12/08/2011 2011-09-23 00:00 2011-09-23 00:00 NUT M12X1.5   0.00 Single
1957 EFA 111266 12/08/2011 2011-09-06 00:00 2011-09-06 00:00 BUSH   0.00 Single
1958 EFA 111267 12/08/2011 2011-08-19 00:00 2011-08-19 00:00 LOCK WASHER 10   0.00 Single
1959 OLF 1106012396 12/08/2011 2011-09-05 15:00 2011-09-05 15:00 MULTI FUNCTION. INDEXABLE TOOL   0.00 Single
1960 OLF 1106012397 12/08/2011 2011-09-05 15:00 2011-09-05 15:00 TUR.INSERT CNMG-120404 GC4035   0.00 Single
1961 OLF 1106012398 12/08/2011 2011-09-30 15:00 2011-09-30 15:00 DIAPHRAGM,AXLE,CAP,SCREW M4-6G,LINK,WASHER,RING,HANDLE,STUD,CLAMP,WASHER,SLEEVE   0.00 Single
1962 OLF 1110082399 12/08/2011 2011-10-14 15:00 2011-10-14 15:00 COMPREHENSIVE ANNUAL SERVICE C   60000.00 Single
1963 OLF 1110082400 12/08/2011 2011-10-14 15:00 2011-10-14 15:00 COMPREHENSIVE ANNUAL SERVICE C   15000.00 Single
1964 OLF 1110082401 12/08/2011 2011-10-14 15:00 2011-10-14 15:00 COMPREHENSIVE ANNUAL SERVICE C   40000.00 Single
1965 OLF 1110082402 12/08/2011 2011-10-14 15:00 2011-10-14 15:00 ANNUAL SERVICE CONTRACT FOR OP   45000.00 Single
1966 OFBOL 11120129 12/08/2011 2011-09-06 14:30 2011-09-06 14:30 CUP(EMPTY) TO DRG.NO:QX-803,D.NO.D3   0.00 Single
1967 OFBOL 11120130 12/08/2011 2011-09-06 14:30 2011-09-06 14:30 SELF SUPPORTING LADDER(AL.),H-6' WI; SELF SUPPORTING LADDER(AL.),H-8' WI; SELF SUPPORTING LADDER(AL.),H-10' ; SELF SUPPORTING LADDER(AL.),H-12'   0.00 Single
1968 GIF 0227111250 12/08/2011 2011-09-13 15:00 2011-09-13 15:00 SODA ASH   0.00 Single
1969 GIF 0228111228 12/08/2011 2011-09-29 15:00 2011-09-29 15:00 GAUGES FOR HEAD COMPONENT OF AERIAL   0.00 Single
1970 GIF 0229111228 12/08/2011 2011-09-15 15:00 2011-09-15 15:00 GAUGES FOR CYLINDER COMPONENT OF AE   0.00 Single
1971 OFDR 2011000142 12/08/2011 2011-08-30 14:30 2011-08-30 15:00 1. THERMO PLAST.RETRO-EFFECTIVE PAINT   2.00 Single
1972 OFDR 2011000143 12/08/2011 2011-08-30 14:30 2011-08-30 15:00 1. AMC FOR ROAD LIGHT IN ESTATE   2.00 Single
1973 OFDR 2011000144 12/08/2011 2011-08-30 14:30 2011-08-30 15:00 1. AMC FOR ROAD LIGHT IN FACTORY   2.00 Single
1974 OFDR 2011000145 12/08/2011 2011-08-30 14:30 2011-08-30 15:00 1. AMC OF 20KVA UPS SYSTEM   2.00 Single
1975 OFDR 2011000146 12/08/2011 2011-08-30 14:30 2011-08-30 15:00 1. AMC OF LINE PRINTER.AS PER ATTACHED SPECN.   2.00 Single
1976 OFDR 2011000147 12/08/2011 2011-08-30 14:30 2011-08-30 15:00 1. TRAINING KIT   2.00 Single
1977 OFDR 2011000148 12/08/2011 2011-09-06 14:30 2011-09-06 15:00 1. FUZE T&P D.A.213 P-MK-5(M-2) EMPTY.   2.00 Single
1978 AFK 20110467 11/08/2011 2011-08-23 14:00 2011-08-23 14:30 OUTSOURCING OF RADIOGRAPHIC EXAMIN.   44000.00 Single
1979 AFK 20110467OP 11/08/2011 2011-08-23 14:00 2011-08-23 14:30 OUTSOURCING OF RADIOGRAPHIC EXAMIN.   44000.00 Single
1980 AFK 20110468 11/08/2011 2011-09-09 14:00 2011-09-09 14:30 TAPE ADHESIVE W/P FABRIC20MM WIDE   0.00 Single
1981 AFK 20110469 11/08/2011 2011-09-09 14:00 2011-09-09 14:30 PIECE PACKING SET TO DRG ARDE 1930   0.00 Single
1982 AFK 20110470 11/08/2011 2011-09-02 14:00 2011-09-02 14:30 CLOTH MUTTON UNBLEACHED 32CM WIDE   0.00 Single
1983 AFK 20110471 11/08/2011 2011-08-12 14:00 2011-08-12 14:30 IGNITER CASING DRG.NO.KF/PJ/SK/-5   0.00 Single
1984 OEFC 20110372 11/08/2011 2011-09-07 13:30 2011-09-07 14:00 LATEX FOAM RUBBER SHEET SOLID TYPE 13MM THICK X .60M X 1.20M   0.00 Single
1985 OEFC 20110373 11/08/2011 2011-09-12 13:30 2011-09-12 14:00 CORD COTTON BRAIDED U/D 4 MM DIA   0.00 Single
1986 MSF 11TE210266 11/08/2011 2011-09-02 14:30 2011-09-02 14:30 ACID SULPHURIC COMMERCIAL. etc.   Single
1987 MSF 11TE210267 11/08/2011 2011-09-07 14:30 2011-09-07 14:30 FIRE CLAY etc.   Single
1988 MSF 11TE210268 11/08/2011 2011-09-07 14:30 2011-09-07 14:30 TIE ROD-A AS PER DRG.NO. HT/140/A etc.   Single
1989 GCF 110189P756 11/08/2011 2011-09-22 10:30 2011-09-22 11:00 SLIDE BAR WELDING ASSY.AMG-71725   0.00 Single
1990 GCF 110190P756 11/08/2011 2011-09-22 10:30 2011-09-22 11:00 CHAIN MOUNT AMG-71422,1015-001490. FILE SAW TAPER 2ND CUT SINGLE 6"   0.00 Single
1991 GCF 110191P756 11/08/2011 2011-09-22 10:30 2011-09-22 11:00 PRINTING OF USER HANDBOOK PRINTING OF ID LIST FOR 81MM MORTAR   0.00 Single
1992 GCF 111186NC56 11/08/2011 2011-09-30 10:30 2011-09-30 11:00 WIRE SE COPPER 20 SWG WIRE SE COPPER 26 SWG WIRE SE COPPER 27 SWG WIRE SE COPPER 30 SWG   0.00 Single
1993 RFI DTB2070333 11/08/2011 2011-09-02 14:00 2011-09-02 14:30 Purchase of TONER FOR HP P1007 LASERJET,   0.00 Single
1994 RFI DTB4470334 11/08/2011 2011-08-31 14:00 2011-08-31 14:30 Purchase of REFRIGERANT GAS FREON-22,   0.00 Single
1995 RFI DTB7970335 11/08/2011 2011-08-31 14:00 2011-08-31 14:30 Purchase of GAS ARGON, GAS OXYGEN-COMPRESSED,   0.00 Single
1996 CFA 11PVTE0313 11/08/2011 2011-09-02 13:00 2011-09-02 14:00 TC CONTACTOR TC1-D60K12 ,415V.   0.00 Single
1997 CFA 11PVTE0314 11/08/2011 2011-09-02 13:00 2011-09-02 14:00 TIMBER BENTEAK 2440X50X50 MM   0.00 Single
1998 CFA 11PVTE0315 11/08/2011 2011-09-06 13:00 2011-09-06 14:00 SPARE PARTS FOR HEAT EXCHANGER   0.00 Single
1999 CFA 11PVTE0316 11/08/2011 2011-09-06 13:00 2011-09-06 14:00 LANTERN RING FOR BLENDER   0.00 Single
2000 GSF 1100000552 11/08/2011 2011-08-29 00:00 2011-08-29 00:00 PAINT SYNTHETIC ENAMEL AIR-CRAFT GREY.,   0.00 Single
2001 GSF 1100000553 11/08/2011 2011-08-29 00:00 2011-08-29 00:00 BRICKS INDIAN 1ST CLASS (WELL BURNT.), MARINE PLY SIZE-8'X4'X12MM., ORDINARY PORTLAND CEMENT,   0.00 Single
2002 GSF 1100000554 11/08/2011 2011-08-29 00:00 2011-08-29 00:00 G.I.SHEET 2500 MM X 900 MM X 0.80 MM., COMML.MILD STEEL FLAT 20MM(W) X 4MM(TH).,   0.00 Single
2003 GSF 1100000555 11/08/2011 2011-09-01 00:00 2011-09-01 00:00 MARINE PLY. SIZE - 8'X4'X6MM.,   0.00 Single
2004 GSF 1100000556 11/08/2011 2011-09-01 00:00 2011-09-01 00:00 TOUCH WOOD POLISH., STONE BALLAST OR CHIPS, SIZE : 3/4",   0.00 Single
2005 GSF 1100000557 11/08/2011 2011-09-01 00:00 2011-09-01 00:00 PAINT ALUMINIUM, SYNTHETIC ENAMEL PAINT GOLDEN BROWN., NAINT SYNTHETIC ENAMEL SHADE FEROJA BLUE, PAINT SYNTHETIC ENAMEL WHITE, PAINT OLIVE GREEN ENAMEL., SYNTHETIC ENAMEL PAINT AIR CRAFT BLUE.,   0.00 Single
2006 GSF 1100000558 11/08/2011 2011-09-05 00:00 2011-09-05 00:00 GLASS PLAIN 27"X27"X3MM THICK., G.I.PLAIN SHEET(450 GM ZN.SPELTER COATING)1 MM TH.,   0.00 Single
2007 GSF 1100000559 11/08/2011 2011-09-22 00:00 2011-09-22 00:00 ELECTRODE 12SWG (2.5MMX350MM LONG).122MM.,   0.00 Single
2008 OCFS 2010000370 11/08/2011 2011-09-06 14:30 2011-09-06 15:00 MS PICK BOWL STD PT NO.23A WITH NUT,CI RATCHET PAUL PT G/10A/275B P/L,CI RATCHET WHEEL PT G/10A/273A P/L,MS WEIGHT CHAIN FOR POWER LOOM,LEATHER PICKING BAND 1 MTR LONG,etc   0.00 Single
2009 HEF TE11120107 11/08/2011 2011-08-18 00:00 2011-08-18 00:00 HDPE WOVEN SAC BAGS 9910933683   0.00 Single
2010 OFK 11CST-0556 11/08/2011 2011-09-06 14:30 2011-09-06 13:00 COTTON DOSUTI SCOURED 91.44CMS(WHT)   0.00 Single
2011 OFK 11CST-0557 11/08/2011 2011-09-06 14:30 2011-09-06 13:00 ACID NITRIC 53-57% IS- 264-1976.   0.00 Single
2012 OFK 11CST-0558 11/08/2011 2011-08-12 14:30 2011-08-12 13:00 SLIPPING RING F1301-152220-B   0.00 Single
2013 OFK 11CST-0559 11/08/2011 2011-09-02 14:30 2011-09-02 13:00 MILL BOARD 787.4X558.8X1.25MM THICK   0.00 Single
2014 OFDUN 0464-11 11/08/2011 2011-08-30 00:00 2011-08-30 00:00 STEINER BASKET ( WOODEN),FIRE SAFETY BELT WITH ROPE,DISCHARGED TUBE WITH MINITURE,FIRE STRETCHER FIB   0.00 Single
2015 OFDUN 0465-11 11/08/2011 2011-08-30 00:00 2011-08-30 00:00 DISCHARGE TUBE WITH NOZZEL FOR,DISCHARGE TUBE WITH NOZZEL FOR,SAFETY CLIP FOR 'A'TYPE EXTI.,HARD SUN   0.00 Single
2016 OFDUN 0466-11 11/08/2011 2011-08-30 00:00 2011-08-30 00:00 WOOLEN FULL SLEEVED JERCY   0.00 Single
2017 OFDUN 0467-11 11/08/2011 2011-09-02 00:00 2011-09-02 00:00 STEEL CHAIRS FULL ARMS-INV.ITM   0.00 Single
2018 OFDUN 0468-11 11/08/2011 2011-09-02 00:00 2011-09-02 00:00 COPPER ENAMELLED WIRE 34 SWG   0.00 Single
2019 OFDUN 0469-11 11/08/2011 2011-09-02 00:00 2011-09-02 00:00 WORKMAN CHAIR DR.NO.ODD/M/2797   0.00 Single
2020 OFDUN 0470-11 11/08/2011 2011-09-06 00:00 2011-09-06 00:00 COAL STEAM   0.00 Single
2021 SAF 3113000542 11/08/2011 2011-08-30 14:30 2011-08-30 15:00 BAG TOOL SATCHEL TO DS CAT NO,   0.00 Single
2022 MPF 3100381 11/08/2011 2011-09-13 14:30 2011-09-13 14:30 FORGING FOR SHAFT RIGHT;   0.00 Single
2023 MPF 3100382 11/08/2011 2011-09-02 14:30 2011-09-02 14:30 BLACK CG LEATHER PROT.SHOE(GENTS).;   0.00 Single
2024 HVF 0108166 11/08/2011 2011-08-25 12:00 2011-08-25 15:00 SUB ASSY PIPE , etc.   0.00 Single
2025 HVF 0108167 11/08/2011 2011-08-25 12:00 2011-08-25 15:00 PIN , etc.   0.00 Single
2026 HVF 0108168 11/08/2011 2011-08-25 12:00 2011-08-25 15:00 SHACKLE , etc.   0.00 Single
2027 HVF 0510454 11/08/2011 2011-09-02 12:00 2011-09-02 15:00 HRC FUSE LINKS 100 AMPS EE MAKE TYPE , etc.   0.00 Single
2028 HVF 0510455 11/08/2011 2011-09-02 12:00 2011-09-02 15:00 HIRING OF 3 MT TRUCK FROM HVF AVADI , etc.   0.00 Single
2029 HVF 0701741 11/08/2011 2011-09-08 12:00 2011-09-08 15:00 FLANGE FRONT L.H , etc.   0.00 Single
2030 HVF 0812021 11/08/2011 2011-09-30 12:00 2011-09-30 15:00 LENS 5.0" TO PART NO.4-07475 FOR BYSTRO- , etc.   0.00 Single
2031 OFV 20110275 11/08/2011 1899-12-31 14:30 1899-12-31 15:00 DIE POCKET TO DRG NO:VCT-230D,   0.00 Single
2032 OFAJ FS2110060 11/08/2011 2011-09-13 14:00 2011-09-13 15:00 CONV.OF AL. BLANKS TO LOCATOR, CONV.OF AL.BLANK TO EXTN.TUBE HOLDE, CONV.OF AL.BLANK TO MODULE CAP, CONV.OF AL.BLANKS TO EXPLODER TUBE, CONV.OF AL.BOANK TO EXTENSION TUBE   0.00 Single
2033 OFAJ IS2110114 11/08/2011 2012-01-25 14:00 2012-01-25 15:00 REMOVAL OF SLUDGE AND TREATMENT.   0.00 Single
2034 OFAJ IS2110115 11/08/2011 2012-01-25 14:00 2012-01-25 15:00 NEUTRALISATION OF CYANIDE EFFLUENTS   0.00 Single
2035 OFAJ IS2110116 11/08/2011 2011-09-02 14:00 2011-09-02 15:00 REFILLING OF PRINTER CARTRIDGES.   0.00 Single
2036 OFAJ IS2110117 11/08/2011 2011-09-02 14:00 2011-09-02 15:00 GI PIPE 1-1/2"(40MM), GI.REDU.ELBOW 3/4"X1/2"(20X15MM), PIPE GI NOM.BORE 32MM, PVC BALL COCK M/O PTMT H.P. SZ-15MM, PVC BALL COCK M/O PTMT H.P. SZ-25MM, SHOWER ROSE   0.00 Single
2037 OFAJ IS2110118 11/08/2011 2011-10-07 14:00 2011-10-07 15:00 CLEANING OF 4X4 PRESS BY"DRY ICE PE, CLEANING OF CZECH LINE PRESS BY"DRY, CLEANING OF VERSON PRESS BY"DRY ICE   0.00 Single
2038 OFAJ TS2110056 11/08/2011 2011-09-14 14:00 2011-09-14 15:00 POWER OPERATED 500MM DIA LCB CHUCK   0.00 Single
2039 OFAJ TS2110057 11/08/2011 2011-09-14 14:00 2011-09-14 15:00 TWIST DRILL TAPER SHANK 80 X 300 MM   0.00 Single
2040 OFT 48109 11/08/2011 2011-08-18 14:30 2011-08-18 15:00 CLAMP DEVICE CR. PLATE LP2038/   0.00 Single
2041 OFT A212E48106 11/08/2011 2011-08-30 14:30 2011-08-30 15:00 PIN AXIS TRIGGER & SEAR - 7.62   0.00 Single
2042 OFT A212E48107 11/08/2011 2011-08-30 14:30 2011-08-30 15:00 PIN CATCH GRIP (ICR-1294)   0.00 Single
2043 OFT A541J48108 11/08/2011 2011-09-08 14:30 2011-09-08 15:00 CLAMP DEVICE CR. PLATE LP2038/   0.00 Single
2044 OEFHZ 20110103 11/08/2011 2011-09-06 00:00 2011-09-06 00:00 PROVIDNG INFORMATION TECHNOLOGY SER   3.00 Single
2045 OEFHZ 20110104 11/08/2011 2011-09-13 00:00 2011-09-13 00:00 FRESH AIR FAN   0.00 Single
2046 OEFHZ 20110105 11/08/2011 2011-09-13 00:00 2011-09-13 00:00 GLASS MARKING PENCIL FOR MENA   0.00 Single
2047 VFJ 111WP0060 11/08/2011 2011-09-06 14:30 2011-09-06 14:30 CONTROL TUBE ASSY,   0.00 Single
2048 VFJ 111WP0061 11/08/2011 2011-09-06 14:30 2011-09-06 14:30 BUSH DRG NO.67